<?xml version='1.0' encoding='UTF-8'?><gpx version="1.1" creator="JPX - https://github.com/jenetics/jpx" xmlns="http://www.topografix.com/GPX/1/1"><trk><trkseg><trkpt lat="45.7180689" lon="9.8768205"><ele>348.0</ele><time>2026-04-12T07:23:49.293Z</time></trkpt><trkpt lat="45.7180151" lon="9.8769066"><ele>348.0</ele><time>2026-04-12T07:26:01.338Z</time></trkpt><trkpt lat="45.7179491" lon="9.8769015"><ele>348.0</ele><time>2026-04-12T07:26:41.973Z</time></trkpt><trkpt lat="45.7179697" lon="9.877002"><ele>348.0</ele><time>2026-04-12T07:26:43.978Z</time></trkpt><trkpt lat="45.7179056" lon="9.877062"><ele>348.0</ele><time>2026-04-12T07:26:46.038Z</time></trkpt><trkpt lat="45.7179143" lon="9.8771513"><ele>348.0</ele><time>2026-04-12T07:26:47.973Z</time></trkpt><trkpt lat="45.7179165" lon="9.8772516"><ele>348.0</ele><time>2026-04-12T07:26:49.965Z</time></trkpt><trkpt lat="45.717891" lon="9.8773409"><ele>348.0</ele><time>2026-04-12T07:26:51.975Z</time></trkpt><trkpt lat="45.7178532" lon="9.8774246"><ele>348.0</ele><time>2026-04-12T07:26:53.963Z</time></trkpt><trkpt lat="45.717807" lon="9.8774938"><ele>348.0</ele><time>2026-04-12T07:26:55.969Z</time></trkpt><trkpt lat="45.7177442" lon="9.8775509"><ele>348.0</ele><time>2026-04-12T07:26:57.924Z</time></trkpt><trkpt lat="45.7176762" lon="9.8776775"><ele>348.0</ele><time>2026-04-12T07:26:59.968Z</time></trkpt><trkpt lat="45.7176301" lon="9.8777486"><ele>348.0</ele><time>2026-04-12T07:27:01.034Z</time></trkpt><trkpt lat="45.717591" lon="9.8778289"><ele>345.57142857142856</ele><time>2026-04-12T07:27:01.985Z</time></trkpt><trkpt lat="45.7175517" lon="9.8779157"><ele>343.14285714285717</ele><time>2026-04-12T07:27:02.961Z</time></trkpt><trkpt lat="45.7175121" lon="9.8779975"><ele>340.7142857142857</ele><time>2026-04-12T07:27:03.966Z</time></trkpt><trkpt lat="45.7174631" lon="9.878075"><ele>338.2857142857143</ele><time>2026-04-12T07:27:05.03Z</time></trkpt><trkpt lat="45.7174138" lon="9.878156"><ele>335.85714285714283</ele><time>2026-04-12T07:27:06.037Z</time></trkpt><trkpt lat="45.7173694" lon="9.8782371"><ele>333.42857142857144</ele><time>2026-04-12T07:27:07.012Z</time></trkpt><trkpt lat="45.7173243" lon="9.8783254"><ele>331.0</ele><time>2026-04-12T07:27:07.96Z</time></trkpt><trkpt lat="45.7172773" lon="9.8784198"><ele>332.0</ele><time>2026-04-12T07:27:09.035Z</time></trkpt><trkpt lat="45.7172309" lon="9.8785236"><ele>333.0</ele><time>2026-04-12T07:27:10.029Z</time></trkpt><trkpt lat="45.7171905" lon="9.8786338"><ele>334.0</ele><time>2026-04-12T07:27:10.983Z</time></trkpt><trkpt lat="45.7171527" lon="9.8787564"><ele>335.0</ele><time>2026-04-12T07:27:12.039Z</time></trkpt><trkpt lat="45.7171114" lon="9.8788812"><ele>336.0</ele><time>2026-04-12T07:27:12.951Z</time></trkpt><trkpt lat="45.717069" lon="9.8790084"><ele>336.0</ele><time>2026-04-12T07:27:13.967Z</time></trkpt><trkpt lat="45.7170282" lon="9.8791304"><ele>336.0</ele><time>2026-04-12T07:27:14.981Z</time></trkpt><trkpt lat="45.7169912" lon="9.8792454"><ele>336.0</ele><time>2026-04-12T07:27:16.03Z</time></trkpt><trkpt lat="45.7169475" lon="9.8793478"><ele>336.0</ele><time>2026-04-12T07:27:17.044Z</time></trkpt><trkpt lat="45.7169038" lon="9.8794522"><ele>336.0</ele><time>2026-04-12T07:27:17.983Z</time></trkpt><trkpt lat="45.7168575" lon="9.8795472"><ele>336.0</ele><time>2026-04-12T07:27:18.976Z</time></trkpt><trkpt lat="45.7168126" lon="9.8796348"><ele>333.0</ele><time>2026-04-12T07:27:20.053Z</time></trkpt><trkpt lat="45.7167754" lon="9.8797341"><ele>330.0</ele><time>2026-04-12T07:27:21.031Z</time></trkpt><trkpt lat="45.7167461" lon="9.8798368"><ele>327.0</ele><time>2026-04-12T07:27:21.987Z</time></trkpt><trkpt lat="45.7167166" lon="9.8799276"><ele>324.0</ele><time>2026-04-12T07:27:22.966Z</time></trkpt><trkpt lat="45.7166872" lon="9.880013"><ele>321.0</ele><time>2026-04-12T07:27:24.002Z</time></trkpt><trkpt lat="45.7166358" lon="9.8801448"><ele>318.0</ele><time>2026-04-12T07:27:25.978Z</time></trkpt><trkpt lat="45.7166297" lon="9.8802587"><ele>318.0</ele><time>2026-04-12T07:27:27.964Z</time></trkpt><trkpt lat="45.716647" lon="9.8803741"><ele>318.0</ele><time>2026-04-12T07:27:29.974Z</time></trkpt><trkpt lat="45.7166546" lon="9.8804843"><ele>318.0</ele><time>2026-04-12T07:27:31.972Z</time></trkpt><trkpt lat="45.7166728" lon="9.8805987"><ele>318.0</ele><time>2026-04-12T07:27:33.974Z</time></trkpt><trkpt lat="45.7166891" lon="9.880718"><ele>318.0</ele><time>2026-04-12T07:27:35.978Z</time></trkpt><trkpt lat="45.7166972" lon="9.8808488"><ele>318.0</ele><time>2026-04-12T07:27:37.988Z</time></trkpt><trkpt lat="45.7167188" lon="9.8809961"><ele>317.4</ele><time>2026-04-12T07:27:39.984Z</time></trkpt><trkpt lat="45.7167327" lon="9.8811582"><ele>316.8</ele><time>2026-04-12T07:27:41.979Z</time></trkpt><trkpt lat="45.7167547" lon="9.8813127"><ele>316.2</ele><time>2026-04-12T07:27:43.967Z</time></trkpt><trkpt lat="45.7167775" lon="9.8814838"><ele>315.6</ele><time>2026-04-12T07:27:45.981Z</time></trkpt><trkpt lat="45.7167922" lon="9.881582"><ele>315.0</ele><time>2026-04-12T07:27:46.977Z</time></trkpt><trkpt lat="45.7167958" lon="9.8816727"><ele>314.2</ele><time>2026-04-12T07:27:47.976Z</time></trkpt><trkpt lat="45.7168092" lon="9.88185"><ele>313.4</ele><time>2026-04-12T07:27:49.975Z</time></trkpt><trkpt lat="45.716826" lon="9.8820233"><ele>312.6</ele><time>2026-04-12T07:27:51.979Z</time></trkpt><trkpt lat="45.716828" lon="9.8821147"><ele>311.8</ele><time>2026-04-12T07:27:52.966Z</time></trkpt><trkpt lat="45.7168371" lon="9.8822042"><ele>311.0</ele><time>2026-04-12T07:27:53.974Z</time></trkpt><trkpt lat="45.7168666" lon="9.8823621"><ele>313.6</ele><time>2026-04-12T07:27:55.984Z</time></trkpt><trkpt lat="45.716903" lon="9.8825123"><ele>316.20000000000005</ele><time>2026-04-12T07:27:57.978Z</time></trkpt><trkpt lat="45.716948" lon="9.8826355"><ele>318.79999999999995</ele><time>2026-04-12T07:27:59.972Z</time></trkpt><trkpt lat="45.7169915" lon="9.8827763"><ele>321.4</ele><time>2026-04-12T07:28:01.986Z</time></trkpt><trkpt lat="45.7170397" lon="9.882912"><ele>324.0</ele><time>2026-04-12T07:28:03.978Z</time></trkpt><trkpt lat="45.7171044" lon="9.883044"><ele>324.0</ele><time>2026-04-12T07:28:05.982Z</time></trkpt><trkpt lat="45.7171728" lon="9.8831869"><ele>324.0</ele><time>2026-04-12T07:28:07.983Z</time></trkpt><trkpt lat="45.7172437" lon="9.8833159"><ele>324.0</ele><time>2026-04-12T07:28:09.971Z</time></trkpt><trkpt lat="45.7173062" lon="9.8834526"><ele>324.0</ele><time>2026-04-12T07:28:11.96Z</time></trkpt><trkpt lat="45.7173471" lon="9.8835981"><ele>322.0</ele><time>2026-04-12T07:28:13.977Z</time></trkpt><trkpt lat="45.7173564" lon="9.8837487"><ele>320.0</ele><time>2026-04-12T07:28:15.957Z</time></trkpt><trkpt lat="45.7173596" lon="9.8839023"><ele>318.0</ele><time>2026-04-12T07:28:17.979Z</time></trkpt><trkpt lat="45.7173577" lon="9.8840527"><ele>316.0</ele><time>2026-04-12T07:28:19.972Z</time></trkpt><trkpt lat="45.7173657" lon="9.8841954"><ele>314.0</ele><time>2026-04-12T07:28:21.988Z</time></trkpt><trkpt lat="45.717377" lon="9.8843353"><ele>312.2</ele><time>2026-04-12T07:28:23.972Z</time></trkpt><trkpt lat="45.7174006" lon="9.8844788"><ele>310.4</ele><time>2026-04-12T07:28:25.978Z</time></trkpt><trkpt lat="45.7174608" lon="9.8846063"><ele>308.6</ele><time>2026-04-12T07:28:27.978Z</time></trkpt><trkpt lat="45.7175323" lon="9.8847318"><ele>306.8</ele><time>2026-04-12T07:28:29.985Z</time></trkpt><trkpt lat="45.7176263" lon="9.8848315"><ele>305.0</ele><time>2026-04-12T07:28:31.975Z</time></trkpt><trkpt lat="45.7177272" lon="9.884925"><ele>305.6</ele><time>2026-04-12T07:28:33.978Z</time></trkpt><trkpt lat="45.7178255" lon="9.8850251"><ele>306.2</ele><time>2026-04-12T07:28:35.985Z</time></trkpt><trkpt lat="45.7178761" lon="9.8850793"><ele>306.8</ele><time>2026-04-12T07:28:36.975Z</time></trkpt><trkpt lat="45.7179675" lon="9.8851963"><ele>307.4</ele><time>2026-04-12T07:28:38.956Z</time></trkpt><trkpt lat="45.7180449" lon="9.8853278"><ele>308.0</ele><time>2026-04-12T07:28:40.972Z</time></trkpt><trkpt lat="45.7181108" lon="9.8854716"><ele>308.0</ele><time>2026-04-12T07:28:42.977Z</time></trkpt><trkpt lat="45.7181743" lon="9.8856143"><ele>308.0</ele><time>2026-04-12T07:28:44.981Z</time></trkpt><trkpt lat="45.7182132" lon="9.8856892"><ele>308.0</ele><time>2026-04-12T07:28:45.979Z</time></trkpt><trkpt lat="45.7182529" lon="9.8857692"><ele>308.0</ele><time>2026-04-12T07:28:46.977Z</time></trkpt><trkpt lat="45.7183231" lon="9.8859161"><ele>308.0</ele><time>2026-04-12T07:28:48.978Z</time></trkpt><trkpt lat="45.7183894" lon="9.8860686"><ele>307.57142857142856</ele><time>2026-04-12T07:28:50.964Z</time></trkpt><trkpt lat="45.7184141" lon="9.8861523"><ele>307.1428571428571</ele><time>2026-04-12T07:28:51.966Z</time></trkpt><trkpt lat="45.7184381" lon="9.886248"><ele>306.7142857142857</ele><time>2026-04-12T07:28:52.974Z</time></trkpt><trkpt lat="45.7184627" lon="9.8863452"><ele>306.2857142857143</ele><time>2026-04-12T07:28:53.982Z</time></trkpt><trkpt lat="45.7184829" lon="9.886441"><ele>305.85714285714283</ele><time>2026-04-12T07:28:54.974Z</time></trkpt><trkpt lat="45.7185057" lon="9.886543"><ele>305.42857142857144</ele><time>2026-04-12T07:28:55.978Z</time></trkpt><trkpt lat="45.7185251" lon="9.88665"><ele>305.0</ele><time>2026-04-12T07:28:56.973Z</time></trkpt><trkpt lat="45.7185384" lon="9.8867539"><ele>303.33333333333337</ele><time>2026-04-12T07:28:57.977Z</time></trkpt><trkpt lat="45.718539" lon="9.886862"><ele>301.6666666666667</ele><time>2026-04-12T07:28:58.97Z</time></trkpt><trkpt lat="45.7185371" lon="9.8869829"><ele>300.0</ele><time>2026-04-12T07:28:59.972Z</time></trkpt><trkpt lat="45.718523" lon="9.8871036"><ele>298.3333333333333</ele><time>2026-04-12T07:29:00.972Z</time></trkpt><trkpt lat="45.7184974" lon="9.887212"><ele>296.66666666666663</ele><time>2026-04-12T07:29:01.974Z</time></trkpt><trkpt lat="45.718459" lon="9.8873262"><ele>295.0</ele><time>2026-04-12T07:29:02.982Z</time></trkpt><trkpt lat="45.7184187" lon="9.8874476"><ele>295.0</ele><time>2026-04-12T07:29:03.978Z</time></trkpt><trkpt lat="45.718381" lon="9.8875765"><ele>295.0</ele><time>2026-04-12T07:29:04.978Z</time></trkpt><trkpt lat="45.7183603" lon="9.8877038"><ele>295.0</ele><time>2026-04-12T07:29:05.979Z</time></trkpt><trkpt lat="45.7183567" lon="9.8878383"><ele>295.0</ele><time>2026-04-12T07:29:06.971Z</time></trkpt><trkpt lat="45.7183794" lon="9.8879777"><ele>295.0</ele><time>2026-04-12T07:29:07.974Z</time></trkpt><trkpt lat="45.7184253" lon="9.8881026"><ele>295.0</ele><time>2026-04-12T07:29:08.974Z</time></trkpt><trkpt lat="45.7184788" lon="9.8882273"><ele>295.0</ele><time>2026-04-12T07:29:09.969Z</time></trkpt><trkpt lat="45.7185311" lon="9.8883502"><ele>295.0</ele><time>2026-04-12T07:29:10.973Z</time></trkpt><trkpt lat="45.7185893" lon="9.888487"><ele>295.0</ele><time>2026-04-12T07:29:11.976Z</time></trkpt><trkpt lat="45.7186599" lon="9.8886145"><ele>295.0</ele><time>2026-04-12T07:29:12.97Z</time></trkpt><trkpt lat="45.7187445" lon="9.888728"><ele>295.0</ele><time>2026-04-12T07:29:13.971Z</time></trkpt><trkpt lat="45.7188292" lon="9.8888205"><ele>295.0</ele><time>2026-04-12T07:29:14.972Z</time></trkpt><trkpt lat="45.718928" lon="9.8888759"><ele>295.0</ele><time>2026-04-12T07:29:15.972Z</time></trkpt><trkpt lat="45.7190227" lon="9.8889187"><ele>295.0</ele><time>2026-04-12T07:29:16.973Z</time></trkpt><trkpt lat="45.7191036" lon="9.8889529"><ele>295.0</ele><time>2026-04-12T07:29:17.968Z</time></trkpt><trkpt lat="45.7191791" lon="9.8889967"><ele>295.0</ele><time>2026-04-12T07:29:18.98Z</time></trkpt><trkpt lat="45.7191613" lon="9.8891873"><ele>295.0</ele><time>2026-04-12T07:29:20.976Z</time></trkpt><trkpt lat="45.7190776" lon="9.8892441"><ele>295.0</ele><time>2026-04-12T07:29:21.962Z</time></trkpt><trkpt lat="45.7189875" lon="9.8892431"><ele>295.0</ele><time>2026-04-12T07:29:22.975Z</time></trkpt><trkpt lat="45.7189111" lon="9.8892373"><ele>295.0</ele><time>2026-04-12T07:29:23.982Z</time></trkpt><trkpt lat="45.7188433" lon="9.8892191"><ele>294.25</ele><time>2026-04-12T07:29:24.974Z</time></trkpt><trkpt lat="45.718742" lon="9.8893094"><ele>293.5</ele><time>2026-04-12T07:29:26.982Z</time></trkpt><trkpt lat="45.7186965" lon="9.8894606"><ele>292.75</ele><time>2026-04-12T07:29:28.966Z</time></trkpt><trkpt lat="45.7186653" lon="9.8896211"><ele>292.0</ele><time>2026-04-12T07:29:30.98Z</time></trkpt><trkpt lat="45.7186038" lon="9.8897527"><ele>291.6</ele><time>2026-04-12T07:29:32.975Z</time></trkpt><trkpt lat="45.718534" lon="9.8898798"><ele>291.2</ele><time>2026-04-12T07:29:34.969Z</time></trkpt><trkpt lat="45.7184537" lon="9.8899917"><ele>290.8</ele><time>2026-04-12T07:29:36.975Z</time></trkpt><trkpt lat="45.7183721" lon="9.8900971"><ele>290.4</ele><time>2026-04-12T07:29:38.975Z</time></trkpt><trkpt lat="45.7182896" lon="9.8900894"><ele>290.0</ele><time>2026-04-12T07:29:40.984Z</time></trkpt><trkpt lat="45.7183181" lon="9.8901798"><ele>290.0</ele><time>2026-04-12T07:29:51.968Z</time></trkpt><trkpt lat="45.718278" lon="9.8902655"><ele>290.0</ele><time>2026-04-12T07:29:56.977Z</time></trkpt><trkpt lat="45.7182361" lon="9.8903474"><ele>290.0</ele><time>2026-04-12T07:30:00.976Z</time></trkpt><trkpt lat="45.7182031" lon="9.8904416"><ele>290.0</ele><time>2026-04-12T07:30:04.981Z</time></trkpt><trkpt lat="45.718184" lon="9.8905377"><ele>290.0</ele><time>2026-04-12T07:30:08.96Z</time></trkpt><trkpt lat="45.71817" lon="9.8906397"><ele>290.0</ele><time>2026-04-12T07:30:11.977Z</time></trkpt><trkpt lat="45.7181716" lon="9.8907438"><ele>290.0</ele><time>2026-04-12T07:30:14.976Z</time></trkpt><trkpt lat="45.7181749" lon="9.890857"><ele>290.2857142857143</ele><time>2026-04-12T07:30:17.951Z</time></trkpt><trkpt lat="45.7182139" lon="9.8909816"><ele>290.5714285714286</ele><time>2026-04-12T07:30:20.964Z</time></trkpt><trkpt lat="45.7182457" lon="9.8910628"><ele>290.8571428571429</ele><time>2026-04-12T07:30:24.979Z</time></trkpt><trkpt lat="45.7182727" lon="9.891145"><ele>291.14285714285717</ele><time>2026-04-12T07:30:28.972Z</time></trkpt><trkpt lat="45.718305" lon="9.8912322"><ele>291.42857142857144</ele><time>2026-04-12T07:30:32.977Z</time></trkpt><trkpt lat="45.7183476" lon="9.8913169"><ele>291.7142857142857</ele><time>2026-04-12T07:30:36.973Z</time></trkpt><trkpt lat="45.7183765" lon="9.891399"><ele>292.0</ele><time>2026-04-12T07:30:39.959Z</time></trkpt><trkpt lat="45.7184266" lon="9.891476"><ele>292.0</ele><time>2026-04-12T07:30:42.956Z</time></trkpt><trkpt lat="45.7184805" lon="9.8915625"><ele>292.0</ele><time>2026-04-12T07:30:45.971Z</time></trkpt><trkpt lat="45.7185317" lon="9.8916558"><ele>292.0</ele><time>2026-04-12T07:30:48.992Z</time></trkpt><trkpt lat="45.71859" lon="9.8917403"><ele>292.0</ele><time>2026-04-12T07:30:51.979Z</time></trkpt><trkpt lat="45.7186346" lon="9.8918116"><ele>292.0</ele><time>2026-04-12T07:30:53.98Z</time></trkpt><trkpt lat="45.7186803" lon="9.891891"><ele>292.0</ele><time>2026-04-12T07:30:55.978Z</time></trkpt><trkpt lat="45.7187164" lon="9.8919696"><ele>291.7142857142857</ele><time>2026-04-12T07:30:57.955Z</time></trkpt><trkpt lat="45.7187613" lon="9.89204"><ele>291.42857142857144</ele><time>2026-04-12T07:30:59.984Z</time></trkpt><trkpt lat="45.7188133" lon="9.8920967"><ele>291.14285714285717</ele><time>2026-04-12T07:31:01.977Z</time></trkpt><trkpt lat="45.7188597" lon="9.8921739"><ele>290.8571428571429</ele><time>2026-04-12T07:31:03.985Z</time></trkpt><trkpt lat="45.7189114" lon="9.8922412"><ele>290.5714285714286</ele><time>2026-04-12T07:31:05.983Z</time></trkpt><trkpt lat="45.7189612" lon="9.8923131"><ele>290.2857142857143</ele><time>2026-04-12T07:31:07.994Z</time></trkpt><trkpt lat="45.7190137" lon="9.8923862"><ele>290.0</ele><time>2026-04-12T07:31:09.976Z</time></trkpt><trkpt lat="45.7190658" lon="9.8924545"><ele>290.0</ele><time>2026-04-12T07:31:11.971Z</time></trkpt><trkpt lat="45.7191213" lon="9.8925191"><ele>290.0</ele><time>2026-04-12T07:31:13.968Z</time></trkpt><trkpt lat="45.7191739" lon="9.8925771"><ele>290.0</ele><time>2026-04-12T07:31:15.987Z</time></trkpt><trkpt lat="45.7192304" lon="9.8926283"><ele>290.0</ele><time>2026-04-12T07:31:17.963Z</time></trkpt><trkpt lat="45.719298" lon="9.8926773"><ele>290.0</ele><time>2026-04-12T07:31:19.981Z</time></trkpt><trkpt lat="45.7193501" lon="9.8927348"><ele>290.0</ele><time>2026-04-12T07:31:21.958Z</time></trkpt><trkpt lat="45.7194049" lon="9.8927988"><ele>290.0</ele><time>2026-04-12T07:31:23.973Z</time></trkpt><trkpt lat="45.7194568" lon="9.8928694"><ele>290.5</ele><time>2026-04-12T07:31:25.975Z</time></trkpt><trkpt lat="45.7195237" lon="9.8929471"><ele>291.0</ele><time>2026-04-12T07:31:27.973Z</time></trkpt><trkpt lat="45.7195733" lon="9.8930197"><ele>291.5</ele><time>2026-04-12T07:31:29.982Z</time></trkpt><trkpt lat="45.7196427" lon="9.8930956"><ele>292.0</ele><time>2026-04-12T07:31:31.988Z</time></trkpt><trkpt lat="45.7197149" lon="9.8931661"><ele>292.5</ele><time>2026-04-12T07:31:33.978Z</time></trkpt><trkpt lat="45.7197811" lon="9.8932354"><ele>293.0</ele><time>2026-04-12T07:31:36.033Z</time></trkpt><trkpt lat="45.719845" lon="9.8933003"><ele>292.99999999999994</ele><time>2026-04-12T07:31:37.955Z</time></trkpt><trkpt lat="45.7198938" lon="9.8933673"><ele>293.0</ele><time>2026-04-12T07:31:39.973Z</time></trkpt><trkpt lat="45.7199456" lon="9.8934294"><ele>293.0</ele><time>2026-04-12T07:31:41.976Z</time></trkpt><trkpt lat="45.7199971" lon="9.8934953"><ele>293.0</ele><time>2026-04-12T07:31:43.956Z</time></trkpt><trkpt lat="45.7200621" lon="9.8935539"><ele>293.0</ele><time>2026-04-12T07:31:45.962Z</time></trkpt><trkpt lat="45.7201199" lon="9.8936112"><ele>292.99999999999994</ele><time>2026-04-12T07:31:47.958Z</time></trkpt><trkpt lat="45.7201819" lon="9.8936596"><ele>293.0</ele><time>2026-04-12T07:31:49.958Z</time></trkpt><trkpt lat="45.72024" lon="9.8936984"><ele>293.83333333333337</ele><time>2026-04-12T07:31:51.969Z</time></trkpt><trkpt lat="45.7203013" lon="9.8937431"><ele>294.6666666666667</ele><time>2026-04-12T07:31:53.974Z</time></trkpt><trkpt lat="45.7203799" lon="9.8938031"><ele>295.5</ele><time>2026-04-12T07:31:56.979Z</time></trkpt><trkpt lat="45.7204346" lon="9.8938491"><ele>296.3333333333333</ele><time>2026-04-12T07:31:58.962Z</time></trkpt><trkpt lat="45.7205117" lon="9.8938977"><ele>297.16666666666663</ele><time>2026-04-12T07:32:00.972Z</time></trkpt><trkpt lat="45.7205876" lon="9.8939662"><ele>298.0</ele><time>2026-04-12T07:32:02.962Z</time></trkpt><trkpt lat="45.7206447" lon="9.8940343"><ele>298.0</ele><time>2026-04-12T07:32:04.971Z</time></trkpt><trkpt lat="45.7206982" lon="9.8941076"><ele>298.0</ele><time>2026-04-12T07:32:07.037Z</time></trkpt><trkpt lat="45.7207583" lon="9.8941958"><ele>298.0</ele><time>2026-04-12T07:32:08.97Z</time></trkpt><trkpt lat="45.7208116" lon="9.8942977"><ele>298.0</ele><time>2026-04-12T07:32:10.976Z</time></trkpt><trkpt lat="45.7208623" lon="9.8943952"><ele>298.0</ele><time>2026-04-12T07:32:12.981Z</time></trkpt><trkpt lat="45.72091" lon="9.8944926"><ele>298.0</ele><time>2026-04-12T07:32:14.97Z</time></trkpt><trkpt lat="45.7209453" lon="9.8946082"><ele>298.42857142857144</ele><time>2026-04-12T07:32:16.975Z</time></trkpt><trkpt lat="45.72096" lon="9.8947159"><ele>298.85714285714283</ele><time>2026-04-12T07:32:18.972Z</time></trkpt><trkpt lat="45.7209687" lon="9.8948161"><ele>299.2857142857143</ele><time>2026-04-12T07:32:20.977Z</time></trkpt><trkpt lat="45.7209452" lon="9.8949085"><ele>299.7142857142857</ele><time>2026-04-12T07:32:22.968Z</time></trkpt><trkpt lat="45.7208713" lon="9.8949457"><ele>300.1428571428571</ele><time>2026-04-12T07:32:24.949Z</time></trkpt><trkpt lat="45.7208049" lon="9.8949132"><ele>300.57142857142856</ele><time>2026-04-12T07:32:26.96Z</time></trkpt><trkpt lat="45.720724" lon="9.8948779"><ele>301.0</ele><time>2026-04-12T07:32:29.956Z</time></trkpt><trkpt lat="45.7206478" lon="9.8948412"><ele>301.0</ele><time>2026-04-12T07:32:32.959Z</time></trkpt><trkpt lat="45.7205641" lon="9.8947991"><ele>301.0</ele><time>2026-04-12T07:32:35.96Z</time></trkpt><trkpt lat="45.7204813" lon="9.8947675"><ele>301.0</ele><time>2026-04-12T07:32:39.029Z</time></trkpt><trkpt lat="45.7204204" lon="9.8947442"><ele>301.0</ele><time>2026-04-12T07:32:40.96Z</time></trkpt><trkpt lat="45.7203404" lon="9.894685"><ele>301.0</ele><time>2026-04-12T07:32:43.967Z</time></trkpt><trkpt lat="45.7202579" lon="9.8946396"><ele>301.0</ele><time>2026-04-12T07:32:46.966Z</time></trkpt><trkpt lat="45.7201948" lon="9.8946191"><ele>304.66666666666663</ele><time>2026-04-12T07:32:48.961Z</time></trkpt><trkpt lat="45.7201166" lon="9.8945842"><ele>308.3333333333333</ele><time>2026-04-12T07:32:51.97Z</time></trkpt><trkpt lat="45.7200399" lon="9.894548"><ele>312.0</ele><time>2026-04-12T07:32:54.958Z</time></trkpt><trkpt lat="45.7199296" lon="9.8945358"><ele>315.6666666666667</ele><time>2026-04-12T07:32:57.957Z</time></trkpt><trkpt lat="45.7198663" lon="9.8945281"><ele>319.33333333333337</ele><time>2026-04-12T07:32:59.977Z</time></trkpt><trkpt lat="45.7197777" lon="9.8945205"><ele>323.0</ele><time>2026-04-12T07:33:02.96Z</time></trkpt><trkpt lat="45.7196944" lon="9.894484"><ele>323.00000000000006</ele><time>2026-04-12T07:33:05.96Z</time></trkpt><trkpt lat="45.7196291" lon="9.8944565"><ele>323.0</ele><time>2026-04-12T07:33:07.959Z</time></trkpt><trkpt lat="45.7195595" lon="9.8944329"><ele>323.0</ele><time>2026-04-12T07:33:09.961Z</time></trkpt><trkpt lat="45.7194971" lon="9.8944149"><ele>323.0</ele><time>2026-04-12T07:33:11.961Z</time></trkpt><trkpt lat="45.719434" lon="9.8943898"><ele>323.0</ele><time>2026-04-12T07:33:13.962Z</time></trkpt><trkpt lat="45.7193714" lon="9.8943795"><ele>323.00000000000006</ele><time>2026-04-12T07:33:15.961Z</time></trkpt><trkpt lat="45.7192915" lon="9.894366"><ele>323.0</ele><time>2026-04-12T07:33:18.944Z</time></trkpt><trkpt lat="45.7192004" lon="9.8943466"><ele>322.5</ele><time>2026-04-12T07:33:21.958Z</time></trkpt><trkpt lat="45.7191201" lon="9.8943231"><ele>322.0</ele><time>2026-04-12T07:33:24.956Z</time></trkpt><trkpt lat="45.7190429" lon="9.8943039"><ele>321.5</ele><time>2026-04-12T07:33:27.943Z</time></trkpt><trkpt lat="45.7189693" lon="9.8943479"><ele>321.0</ele><time>2026-04-12T07:33:30.033Z</time></trkpt><trkpt lat="45.7189141" lon="9.8944431"><ele>320.5</ele><time>2026-04-12T07:33:32.973Z</time></trkpt><trkpt lat="45.7189308" lon="9.8945525"><ele>320.0</ele><time>2026-04-12T07:33:36.963Z</time></trkpt><trkpt lat="45.7189718" lon="9.8946375"><ele>320.0</ele><time>2026-04-12T07:33:38.963Z</time></trkpt><trkpt lat="45.7190179" lon="9.8947303"><ele>320.0</ele><time>2026-04-12T07:33:42.031Z</time></trkpt><trkpt lat="45.7190565" lon="9.8948395"><ele>320.0</ele><time>2026-04-12T07:33:44.959Z</time></trkpt><trkpt lat="45.7190774" lon="9.8949379"><ele>320.0</ele><time>2026-04-12T07:33:47.955Z</time></trkpt><trkpt lat="45.7190966" lon="9.8950611"><ele>320.0</ele><time>2026-04-12T07:33:50.954Z</time></trkpt><trkpt lat="45.7191095" lon="9.8951863"><ele>320.0</ele><time>2026-04-12T07:33:53.971Z</time></trkpt><trkpt lat="45.7191011" lon="9.895305"><ele>321.6666666666667</ele><time>2026-04-12T07:33:56.959Z</time></trkpt><trkpt lat="45.7191023" lon="9.8954127"><ele>323.33333333333337</ele><time>2026-04-12T07:34:00.033Z</time></trkpt><trkpt lat="45.7190916" lon="9.8955333"><ele>325.0</ele><time>2026-04-12T07:34:02.956Z</time></trkpt><trkpt lat="45.7190735" lon="9.8956492"><ele>326.6666666666667</ele><time>2026-04-12T07:34:05.969Z</time></trkpt><trkpt lat="45.7190377" lon="9.8957577"><ele>328.3333333333333</ele><time>2026-04-12T07:34:08.979Z</time></trkpt><trkpt lat="45.7190069" lon="9.8958373"><ele>330.0</ele><time>2026-04-12T07:34:10.964Z</time></trkpt><trkpt lat="45.7189661" lon="9.8959548"><ele>330.8333333333333</ele><time>2026-04-12T07:34:14.029Z</time></trkpt><trkpt lat="45.7189272" lon="9.896055"><ele>331.6666666666667</ele><time>2026-04-12T07:34:16.98Z</time></trkpt><trkpt lat="45.7188923" lon="9.8961626"><ele>332.5</ele><time>2026-04-12T07:34:19.967Z</time></trkpt><trkpt lat="45.7188612" lon="9.8962743"><ele>333.33333333333337</ele><time>2026-04-12T07:34:22.969Z</time></trkpt><trkpt lat="45.7188402" lon="9.8963996"><ele>334.1666666666667</ele><time>2026-04-12T07:34:25.96Z</time></trkpt><trkpt lat="45.7188341" lon="9.8964921"><ele>335.0</ele><time>2026-04-12T07:34:27.969Z</time></trkpt><trkpt lat="45.7188381" lon="9.8965825"><ele>334.99999999999994</ele><time>2026-04-12T07:34:29.98Z</time></trkpt><trkpt lat="45.7188512" lon="9.896681"><ele>335.0</ele><time>2026-04-12T07:34:32.027Z</time></trkpt><trkpt lat="45.7188655" lon="9.8967819"><ele>335.0</ele><time>2026-04-12T07:34:33.977Z</time></trkpt><trkpt lat="45.718882" lon="9.8968803"><ele>335.0</ele><time>2026-04-12T07:34:35.958Z</time></trkpt><trkpt lat="45.7188971" lon="9.89698"><ele>335.0</ele><time>2026-04-12T07:34:37.964Z</time></trkpt><trkpt lat="45.7189068" lon="9.8970872"><ele>334.99999999999994</ele><time>2026-04-12T07:34:39.992Z</time></trkpt><trkpt lat="45.7189303" lon="9.897205"><ele>335.0</ele><time>2026-04-12T07:34:41.975Z</time></trkpt><trkpt lat="45.7189422" lon="9.8973031"><ele>335.0</ele><time>2026-04-12T07:34:43.971Z</time></trkpt><trkpt lat="45.7189579" lon="9.8974062"><ele>335.0</ele><time>2026-04-12T07:34:46.018Z</time></trkpt><trkpt lat="45.7189699" lon="9.8975062"><ele>335.0</ele><time>2026-04-12T07:34:47.97Z</time></trkpt><trkpt lat="45.7189805" lon="9.8976099"><ele>335.0</ele><time>2026-04-12T07:34:49.976Z</time></trkpt><trkpt lat="45.7189819" lon="9.8977169"><ele>335.0</ele><time>2026-04-12T07:34:51.967Z</time></trkpt><trkpt lat="45.7189993" lon="9.8978437"><ele>335.0</ele><time>2026-04-12T07:34:54.958Z</time></trkpt><trkpt lat="45.7190209" lon="9.8979766"><ele>335.0</ele><time>2026-04-12T07:34:57.963Z</time></trkpt><trkpt lat="45.7190465" lon="9.8980756"><ele>335.0</ele><time>2026-04-12T07:34:59.963Z</time></trkpt><trkpt lat="45.7191034" lon="9.8981548"><ele>335.0</ele><time>2026-04-12T07:35:01.974Z</time></trkpt><trkpt lat="45.7191634" lon="9.8982231"><ele>335.0</ele><time>2026-04-12T07:35:03.961Z</time></trkpt><trkpt lat="45.7192282" lon="9.898303"><ele>335.0</ele><time>2026-04-12T07:35:05.975Z</time></trkpt><trkpt lat="45.719297" lon="9.8983793"><ele>335.0</ele><time>2026-04-12T07:35:07.97Z</time></trkpt><trkpt lat="45.7193639" lon="9.898457"><ele>334.33333333333337</ele><time>2026-04-12T07:35:09.964Z</time></trkpt><trkpt lat="45.7194212" lon="9.8985385"><ele>333.6666666666667</ele><time>2026-04-12T07:35:12.029Z</time></trkpt><trkpt lat="45.7194843" lon="9.8986129"><ele>333.0</ele><time>2026-04-12T07:35:13.979Z</time></trkpt><trkpt lat="45.719544" lon="9.8986914"><ele>332.3333333333333</ele><time>2026-04-12T07:35:15.979Z</time></trkpt><trkpt lat="45.7196033" lon="9.8987608"><ele>331.66666666666663</ele><time>2026-04-12T07:35:17.954Z</time></trkpt><trkpt lat="45.7196621" lon="9.8988374"><ele>331.0</ele><time>2026-04-12T07:35:20.001Z</time></trkpt><trkpt lat="45.7197223" lon="9.8989128"><ele>331.0</ele><time>2026-04-12T07:35:21.985Z</time></trkpt><trkpt lat="45.7197792" lon="9.8989763"><ele>331.0</ele><time>2026-04-12T07:35:23.977Z</time></trkpt><trkpt lat="45.7198331" lon="9.8990504"><ele>331.0</ele><time>2026-04-12T07:35:25.978Z</time></trkpt><trkpt lat="45.7199002" lon="9.8991088"><ele>331.0</ele><time>2026-04-12T07:35:27.974Z</time></trkpt><trkpt lat="45.7199604" lon="9.899183"><ele>331.0</ele><time>2026-04-12T07:35:29.974Z</time></trkpt><trkpt lat="45.7200254" lon="9.8992426"><ele>331.0</ele><time>2026-04-12T07:35:31.979Z</time></trkpt><trkpt lat="45.7200873" lon="9.8993068"><ele>331.16666666666663</ele><time>2026-04-12T07:35:33.976Z</time></trkpt><trkpt lat="45.7201537" lon="9.8993874"><ele>331.3333333333333</ele><time>2026-04-12T07:35:35.97Z</time></trkpt><trkpt lat="45.7202136" lon="9.8994609"><ele>331.5</ele><time>2026-04-12T07:35:37.981Z</time></trkpt><trkpt lat="45.7202737" lon="9.8995337"><ele>331.6666666666667</ele><time>2026-04-12T07:35:39.974Z</time></trkpt><trkpt lat="45.7203415" lon="9.8996018"><ele>331.83333333333337</ele><time>2026-04-12T07:35:41.972Z</time></trkpt><trkpt lat="45.7203977" lon="9.8996772"><ele>332.0</ele><time>2026-04-12T07:35:43.975Z</time></trkpt><trkpt lat="45.7204608" lon="9.8997475"><ele>332.0</ele><time>2026-04-12T07:35:45.97Z</time></trkpt><trkpt lat="45.7205192" lon="9.8998098"><ele>332.0</ele><time>2026-04-12T07:35:47.973Z</time></trkpt><trkpt lat="45.7205783" lon="9.8998759"><ele>332.0</ele><time>2026-04-12T07:35:49.975Z</time></trkpt><trkpt lat="45.7206381" lon="9.8999499"><ele>332.0</ele><time>2026-04-12T07:35:51.963Z</time></trkpt><trkpt lat="45.7206948" lon="9.9000211"><ele>332.0</ele><time>2026-04-12T07:35:53.982Z</time></trkpt><trkpt lat="45.720762" lon="9.9001025"><ele>332.0</ele><time>2026-04-12T07:35:55.983Z</time></trkpt><trkpt lat="45.7208268" lon="9.9001708"><ele>332.1666666666667</ele><time>2026-04-12T07:35:57.975Z</time></trkpt><trkpt lat="45.7208872" lon="9.9002408"><ele>332.33333333333337</ele><time>2026-04-12T07:35:59.986Z</time></trkpt><trkpt lat="45.7209365" lon="9.9003348"><ele>332.5</ele><time>2026-04-12T07:36:01.984Z</time></trkpt><trkpt lat="45.7209805" lon="9.9004217"><ele>332.6666666666667</ele><time>2026-04-12T07:36:03.98Z</time></trkpt><trkpt lat="45.7210283" lon="9.9005094"><ele>332.8333333333333</ele><time>2026-04-12T07:36:05.983Z</time></trkpt><trkpt lat="45.7210764" lon="9.9005999"><ele>333.0</ele><time>2026-04-12T07:36:07.971Z</time></trkpt><trkpt lat="45.7211142" lon="9.9007002"><ele>332.6666666666667</ele><time>2026-04-12T07:36:09.978Z</time></trkpt><trkpt lat="45.7211605" lon="9.9007966"><ele>332.3333333333333</ele><time>2026-04-12T07:36:11.97Z</time></trkpt><trkpt lat="45.7212007" lon="9.9008828"><ele>332.0</ele><time>2026-04-12T07:36:13.979Z</time></trkpt><trkpt lat="45.7212342" lon="9.9009781"><ele>331.66666666666663</ele><time>2026-04-12T07:36:15.98Z</time></trkpt><trkpt lat="45.7212788" lon="9.901081"><ele>331.3333333333333</ele><time>2026-04-12T07:36:17.977Z</time></trkpt><trkpt lat="45.7213282" lon="9.9011734"><ele>331.0</ele><time>2026-04-12T07:36:19.975Z</time></trkpt><trkpt lat="45.7213626" lon="9.901261"><ele>331.57142857142856</ele><time>2026-04-12T07:36:21.979Z</time></trkpt><trkpt lat="45.7214004" lon="9.9013457"><ele>332.1428571428571</ele><time>2026-04-12T07:36:23.975Z</time></trkpt><trkpt lat="45.7214437" lon="9.9014374"><ele>332.71428571428567</ele><time>2026-04-12T07:36:25.98Z</time></trkpt><trkpt lat="45.7214677" lon="9.9015341"><ele>333.2857142857143</ele><time>2026-04-12T07:36:27.952Z</time></trkpt><trkpt lat="45.7214543" lon="9.9016395"><ele>333.85714285714283</ele><time>2026-04-12T07:36:29.966Z</time></trkpt><trkpt lat="45.7214057" lon="9.9017232"><ele>334.4285714285714</ele><time>2026-04-12T07:36:31.969Z</time></trkpt><trkpt lat="45.721343" lon="9.9017804"><ele>335.0</ele><time>2026-04-12T07:36:33.98Z</time></trkpt><trkpt lat="45.7212788" lon="9.9018406"><ele>335.33333333333337</ele><time>2026-04-12T07:36:35.98Z</time></trkpt><trkpt lat="45.7212102" lon="9.9018974"><ele>335.6666666666667</ele><time>2026-04-12T07:36:37.971Z</time></trkpt><trkpt lat="45.7211391" lon="9.9019509"><ele>336.0</ele><time>2026-04-12T07:36:39.98Z</time></trkpt><trkpt lat="45.7210779" lon="9.9020031"><ele>336.3333333333333</ele><time>2026-04-12T07:36:41.98Z</time></trkpt><trkpt lat="45.7210119" lon="9.9020683"><ele>336.66666666666663</ele><time>2026-04-12T07:36:43.979Z</time></trkpt><trkpt lat="45.720948" lon="9.902133"><ele>337.0</ele><time>2026-04-12T07:36:45.987Z</time></trkpt><trkpt lat="45.720879" lon="9.9021847"><ele>337.0</ele><time>2026-04-12T07:36:47.988Z</time></trkpt><trkpt lat="45.7208092" lon="9.9022507"><ele>337.0</ele><time>2026-04-12T07:36:49.967Z</time></trkpt><trkpt lat="45.7207347" lon="9.9023031"><ele>337.0</ele><time>2026-04-12T07:36:51.955Z</time></trkpt><trkpt lat="45.7206573" lon="9.9023757"><ele>337.0</ele><time>2026-04-12T07:36:53.979Z</time></trkpt><trkpt lat="45.7205809" lon="9.9024323"><ele>337.0</ele><time>2026-04-12T07:36:55.973Z</time></trkpt><trkpt lat="45.7205086" lon="9.9024799"><ele>337.0</ele><time>2026-04-12T07:36:57.976Z</time></trkpt><trkpt lat="45.720435" lon="9.9025268"><ele>337.0</ele><time>2026-04-12T07:36:59.979Z</time></trkpt><trkpt lat="45.720367" lon="9.9025734"><ele>337.0</ele><time>2026-04-12T07:37:01.973Z</time></trkpt><trkpt lat="45.7202929" lon="9.9026226"><ele>337.0</ele><time>2026-04-12T07:37:03.978Z</time></trkpt><trkpt lat="45.7202174" lon="9.902676"><ele>337.0</ele><time>2026-04-12T07:37:05.978Z</time></trkpt><trkpt lat="45.7201386" lon="9.9027329"><ele>337.0</ele><time>2026-04-12T07:37:07.967Z</time></trkpt><trkpt lat="45.720052" lon="9.9027811"><ele>337.0</ele><time>2026-04-12T07:37:09.984Z</time></trkpt><trkpt lat="45.71998" lon="9.902833"><ele>337.42857142857144</ele><time>2026-04-12T07:37:11.977Z</time></trkpt><trkpt lat="45.719913" lon="9.9028816"><ele>337.8571428571429</ele><time>2026-04-12T07:37:13.984Z</time></trkpt><trkpt lat="45.7198516" lon="9.9029222"><ele>338.28571428571433</ele><time>2026-04-12T07:37:15.979Z</time></trkpt><trkpt lat="45.7197892" lon="9.9029782"><ele>338.7142857142857</ele><time>2026-04-12T07:37:18.033Z</time></trkpt><trkpt lat="45.7197324" lon="9.9030231"><ele>339.1428571428571</ele><time>2026-04-12T07:37:19.984Z</time></trkpt><trkpt lat="45.7196699" lon="9.9030111"><ele>339.5714285714286</ele><time>2026-04-12T07:37:21.969Z</time></trkpt><trkpt lat="45.7196125" lon="9.9029469"><ele>340.0</ele><time>2026-04-12T07:37:23.971Z</time></trkpt><trkpt lat="45.7195574" lon="9.9028588"><ele>340.0</ele><time>2026-04-12T07:37:25.973Z</time></trkpt><trkpt lat="45.719506" lon="9.9027765"><ele>340.0</ele><time>2026-04-12T07:37:27.981Z</time></trkpt><trkpt lat="45.7194431" lon="9.9027464"><ele>340.0</ele><time>2026-04-12T07:37:29.979Z</time></trkpt><trkpt lat="45.7193794" lon="9.9028272"><ele>340.0</ele><time>2026-04-12T07:37:31.975Z</time></trkpt><trkpt lat="45.7193245" lon="9.902892"><ele>340.0</ele><time>2026-04-12T07:37:33.968Z</time></trkpt><trkpt lat="45.7192564" lon="9.9029421"><ele>340.0</ele><time>2026-04-12T07:37:35.975Z</time></trkpt><trkpt lat="45.7191821" lon="9.9030029"><ele>340.16666666666663</ele><time>2026-04-12T07:37:37.987Z</time></trkpt><trkpt lat="45.7191068" lon="9.9030753"><ele>340.3333333333333</ele><time>2026-04-12T07:37:39.975Z</time></trkpt><trkpt lat="45.7190425" lon="9.9031448"><ele>340.5</ele><time>2026-04-12T07:37:41.984Z</time></trkpt><trkpt lat="45.7189675" lon="9.9032059"><ele>340.6666666666667</ele><time>2026-04-12T07:37:43.976Z</time></trkpt><trkpt lat="45.7189068" lon="9.903265"><ele>340.83333333333337</ele><time>2026-04-12T07:37:45.968Z</time></trkpt><trkpt lat="45.7188408" lon="9.9033266"><ele>341.0</ele><time>2026-04-12T07:37:47.974Z</time></trkpt><trkpt lat="45.7187672" lon="9.9033779"><ele>341.42857142857144</ele><time>2026-04-12T07:37:49.975Z</time></trkpt><trkpt lat="45.7186989" lon="9.9034377"><ele>341.8571428571429</ele><time>2026-04-12T07:37:51.978Z</time></trkpt><trkpt lat="45.7186262" lon="9.9034982"><ele>342.28571428571433</ele><time>2026-04-12T07:37:53.978Z</time></trkpt><trkpt lat="45.7185559" lon="9.9035472"><ele>342.7142857142857</ele><time>2026-04-12T07:37:55.983Z</time></trkpt><trkpt lat="45.7184997" lon="9.9036013"><ele>343.14285714285717</ele><time>2026-04-12T07:37:57.976Z</time></trkpt><trkpt lat="45.7184448" lon="9.9036514"><ele>343.5714285714286</ele><time>2026-04-12T07:37:59.975Z</time></trkpt><trkpt lat="45.7183855" lon="9.9036892"><ele>344.0</ele><time>2026-04-12T07:38:01.968Z</time></trkpt><trkpt lat="45.71833" lon="9.9037804"><ele>344.5714285714286</ele><time>2026-04-12T07:38:04.977Z</time></trkpt><trkpt lat="45.7183307" lon="9.9038791"><ele>345.14285714285717</ele><time>2026-04-12T07:38:06.967Z</time></trkpt><trkpt lat="45.71834" lon="9.9039856"><ele>345.7142857142857</ele><time>2026-04-12T07:38:08.98Z</time></trkpt><trkpt lat="45.7183586" lon="9.9040916"><ele>346.28571428571433</ele><time>2026-04-12T07:38:10.973Z</time></trkpt><trkpt lat="45.7183626" lon="9.904195"><ele>346.8571428571429</ele><time>2026-04-12T07:38:12.972Z</time></trkpt><trkpt lat="45.7183592" lon="9.9042955"><ele>347.42857142857144</ele><time>2026-04-12T07:38:14.972Z</time></trkpt><trkpt lat="45.7183468" lon="9.9043958"><ele>348.0</ele><time>2026-04-12T07:38:16.976Z</time></trkpt><trkpt lat="45.7183236" lon="9.9044818"><ele>349.0</ele><time>2026-04-12T07:38:18.987Z</time></trkpt><trkpt lat="45.7182842" lon="9.9045528"><ele>350.0</ele><time>2026-04-12T07:38:20.977Z</time></trkpt><trkpt lat="45.7182101" lon="9.904625"><ele>351.0</ele><time>2026-04-12T07:38:23.976Z</time></trkpt><trkpt lat="45.7181221" lon="9.9046679"><ele>352.0</ele><time>2026-04-12T07:38:26.966Z</time></trkpt><trkpt lat="45.7180577" lon="9.9046754"><ele>353.0</ele><time>2026-04-12T07:38:28.977Z</time></trkpt><trkpt lat="45.7179862" lon="9.9046633"><ele>354.0</ele><time>2026-04-12T07:38:30.969Z</time></trkpt><trkpt lat="45.7179153" lon="9.904648"><ele>354.0</ele><time>2026-04-12T07:38:32.98Z</time></trkpt><trkpt lat="45.7178454" lon="9.9046433"><ele>354.0</ele><time>2026-04-12T07:38:34.973Z</time></trkpt><trkpt lat="45.7177744" lon="9.9046455"><ele>354.0</ele><time>2026-04-12T07:38:36.973Z</time></trkpt><trkpt lat="45.7177096" lon="9.9046596"><ele>354.0</ele><time>2026-04-12T07:38:38.977Z</time></trkpt><trkpt lat="45.7176406" lon="9.9046845"><ele>354.0</ele><time>2026-04-12T07:38:40.974Z</time></trkpt><trkpt lat="45.7175738" lon="9.9047046"><ele>354.0</ele><time>2026-04-12T07:38:42.974Z</time></trkpt><trkpt lat="45.7175069" lon="9.9047179"><ele>354.0</ele><time>2026-04-12T07:38:44.973Z</time></trkpt><trkpt lat="45.7174356" lon="9.9047485"><ele>354.0</ele><time>2026-04-12T07:38:46.979Z</time></trkpt><trkpt lat="45.7173727" lon="9.9047936"><ele>354.0</ele><time>2026-04-12T07:38:48.984Z</time></trkpt><trkpt lat="45.7173005" lon="9.9048871"><ele>354.0</ele><time>2026-04-12T07:38:50.971Z</time></trkpt><trkpt lat="45.7172267" lon="9.90494"><ele>354.0</ele><time>2026-04-12T07:38:52.983Z</time></trkpt><trkpt lat="45.7171559" lon="9.9049908"><ele>354.0</ele><time>2026-04-12T07:38:54.976Z</time></trkpt><trkpt lat="45.7170763" lon="9.9050265"><ele>354.0</ele><time>2026-04-12T07:38:56.969Z</time></trkpt><trkpt lat="45.717007" lon="9.9050723"><ele>355.5</ele><time>2026-04-12T07:38:58.974Z</time></trkpt><trkpt lat="45.7169438" lon="9.9051289"><ele>357.0</ele><time>2026-04-12T07:39:00.979Z</time></trkpt><trkpt lat="45.7168792" lon="9.905182"><ele>358.5</ele><time>2026-04-12T07:39:02.97Z</time></trkpt><trkpt lat="45.7168109" lon="9.9052451"><ele>360.0</ele><time>2026-04-12T07:39:04.972Z</time></trkpt><trkpt lat="45.7167387" lon="9.9053099"><ele>361.5</ele><time>2026-04-12T07:39:06.984Z</time></trkpt><trkpt lat="45.7166699" lon="9.9053717"><ele>363.0</ele><time>2026-04-12T07:39:08.969Z</time></trkpt><trkpt lat="45.7166031" lon="9.9054332"><ele>363.0</ele><time>2026-04-12T07:39:10.966Z</time></trkpt><trkpt lat="45.7165448" lon="9.9054949"><ele>363.0</ele><time>2026-04-12T07:39:12.953Z</time></trkpt><trkpt lat="45.7164853" lon="9.9055537"><ele>363.0</ele><time>2026-04-12T07:39:14.964Z</time></trkpt><trkpt lat="45.7164265" lon="9.9056134"><ele>363.0</ele><time>2026-04-12T07:39:16.956Z</time></trkpt><trkpt lat="45.7163463" lon="9.9056661"><ele>363.0</ele><time>2026-04-12T07:39:19.973Z</time></trkpt><trkpt lat="45.7162564" lon="9.9056707"><ele>363.0</ele><time>2026-04-12T07:39:22.979Z</time></trkpt><trkpt lat="45.7161892" lon="9.9056531"><ele>362.99999999999994</ele><time>2026-04-12T07:39:24.978Z</time></trkpt><trkpt lat="45.7161239" lon="9.9056284"><ele>363.0</ele><time>2026-04-12T07:39:26.98Z</time></trkpt><trkpt lat="45.7160515" lon="9.9056007"><ele>363.0</ele><time>2026-04-12T07:39:28.971Z</time></trkpt><trkpt lat="45.7159889" lon="9.9055749"><ele>363.0</ele><time>2026-04-12T07:39:30.972Z</time></trkpt><trkpt lat="45.7159211" lon="9.9055732"><ele>363.0</ele><time>2026-04-12T07:39:32.976Z</time></trkpt><trkpt lat="45.7158605" lon="9.905611"><ele>362.99999999999994</ele><time>2026-04-12T07:39:34.976Z</time></trkpt><trkpt lat="45.7157955" lon="9.9056767"><ele>363.0</ele><time>2026-04-12T07:39:36.955Z</time></trkpt><trkpt lat="45.7157331" lon="9.9057656"><ele>363.2857142857143</ele><time>2026-04-12T07:39:39.032Z</time></trkpt><trkpt lat="45.7156862" lon="9.9058369"><ele>363.57142857142856</ele><time>2026-04-12T07:39:41.03Z</time></trkpt><trkpt lat="45.7156416" lon="9.9059006"><ele>363.8571428571429</ele><time>2026-04-12T07:39:42.97Z</time></trkpt><trkpt lat="45.7155938" lon="9.9059607"><ele>364.1428571428571</ele><time>2026-04-12T07:39:44.97Z</time></trkpt><trkpt lat="45.7155533" lon="9.9060316"><ele>364.42857142857144</ele><time>2026-04-12T07:39:47.045Z</time></trkpt><trkpt lat="45.7155203" lon="9.906114"><ele>364.7142857142857</ele><time>2026-04-12T07:39:48.968Z</time></trkpt><trkpt lat="45.715488" lon="9.906216"><ele>365.0</ele><time>2026-04-12T07:39:51.957Z</time></trkpt><trkpt lat="45.7154831" lon="9.9063233"><ele>366.5</ele><time>2026-04-12T07:39:55.024Z</time></trkpt><trkpt lat="45.7154743" lon="9.906444"><ele>368.0</ele><time>2026-04-12T07:39:57.961Z</time></trkpt><trkpt lat="45.715476" lon="9.9065646"><ele>369.5</ele><time>2026-04-12T07:40:00.946Z</time></trkpt><trkpt lat="45.7154692" lon="9.9066737"><ele>371.0</ele><time>2026-04-12T07:40:03.964Z</time></trkpt><trkpt lat="45.7154775" lon="9.906783"><ele>372.5</ele><time>2026-04-12T07:40:07.035Z</time></trkpt><trkpt lat="45.7154845" lon="9.9068971"><ele>374.0</ele><time>2026-04-12T07:40:09.964Z</time></trkpt><trkpt lat="45.7154952" lon="9.9069967"><ele>374.6666666666667</ele><time>2026-04-12T07:40:12.971Z</time></trkpt><trkpt lat="45.7154952" lon="9.9071076"><ele>375.33333333333337</ele><time>2026-04-12T07:40:15.974Z</time></trkpt><trkpt lat="45.7154926" lon="9.9072248"><ele>376.0</ele><time>2026-04-12T07:40:18.995Z</time></trkpt><trkpt lat="45.7154817" lon="9.9073545"><ele>376.6666666666667</ele><time>2026-04-12T07:40:22.042Z</time></trkpt><trkpt lat="45.7154605" lon="9.9074394"><ele>377.3333333333333</ele><time>2026-04-12T07:40:23.97Z</time></trkpt><trkpt lat="45.7154242" lon="9.9075526"><ele>378.0</ele><time>2026-04-12T07:40:26.969Z</time></trkpt><trkpt lat="45.7153946" lon="9.9076455"><ele>379.14285714285717</ele><time>2026-04-12T07:40:30.077Z</time></trkpt><trkpt lat="45.7153625" lon="9.9077287"><ele>380.2857142857143</ele><time>2026-04-12T07:40:32.966Z</time></trkpt><trkpt lat="45.715348" lon="9.9078315"><ele>381.42857142857144</ele><time>2026-04-12T07:40:35.965Z</time></trkpt><trkpt lat="45.7153192" lon="9.9079327"><ele>382.57142857142856</ele><time>2026-04-12T07:40:38.968Z</time></trkpt><trkpt lat="45.7152942" lon="9.9080327"><ele>383.7142857142857</ele><time>2026-04-12T07:40:41.963Z</time></trkpt><trkpt lat="45.7152599" lon="9.9081377"><ele>384.8571428571429</ele><time>2026-04-12T07:40:45.028Z</time></trkpt><trkpt lat="45.715224" lon="9.9082243"><ele>386.0</ele><time>2026-04-12T07:40:47.964Z</time></trkpt><trkpt lat="45.7151825" lon="9.9083202"><ele>387.14285714285717</ele><time>2026-04-12T07:40:50.964Z</time></trkpt><trkpt lat="45.7151258" lon="9.9083939"><ele>388.2857142857143</ele><time>2026-04-12T07:40:54.034Z</time></trkpt><trkpt lat="45.715075" lon="9.9084773"><ele>389.42857142857144</ele><time>2026-04-12T07:40:56.976Z</time></trkpt><trkpt lat="45.7150199" lon="9.908553"><ele>390.57142857142856</ele><time>2026-04-12T07:40:59.973Z</time></trkpt><trkpt lat="45.7149742" lon="9.9086244"><ele>391.7142857142857</ele><time>2026-04-12T07:41:02.975Z</time></trkpt><trkpt lat="45.7149258" lon="9.908694"><ele>392.8571428571429</ele><time>2026-04-12T07:41:05.979Z</time></trkpt><trkpt lat="45.7148786" lon="9.9087561"><ele>394.0</ele><time>2026-04-12T07:41:08.978Z</time></trkpt><trkpt lat="45.7148222" lon="9.9088576"><ele>395.1666666666667</ele><time>2026-04-12T07:41:12.976Z</time></trkpt><trkpt lat="45.7147864" lon="9.9089413"><ele>396.33333333333337</ele><time>2026-04-12T07:41:15.975Z</time></trkpt><trkpt lat="45.7147666" lon="9.9091047"><ele>397.5</ele><time>2026-04-12T07:41:21.956Z</time></trkpt><trkpt lat="45.7147895" lon="9.9092181"><ele>398.66666666666663</ele><time>2026-04-12T07:41:24.033Z</time></trkpt><trkpt lat="45.7148497" lon="9.9093003"><ele>399.8333333333333</ele><time>2026-04-12T07:41:26.952Z</time></trkpt><trkpt lat="45.7149176" lon="9.9093426"><ele>401.0</ele><time>2026-04-12T07:41:29.957Z</time></trkpt><trkpt lat="45.7149842" lon="9.9093946"><ele>403.16666666666663</ele><time>2026-04-12T07:41:32.959Z</time></trkpt><trkpt lat="45.7150458" lon="9.9094922"><ele>405.3333333333333</ele><time>2026-04-12T07:41:35.967Z</time></trkpt><trkpt lat="45.7150203" lon="9.9095868"><ele>407.5</ele><time>2026-04-12T07:41:39.959Z</time></trkpt><trkpt lat="45.7149503" lon="9.9095875"><ele>409.66666666666663</ele><time>2026-04-12T07:41:42.961Z</time></trkpt><trkpt lat="45.7148654" lon="9.9095951"><ele>411.8333333333333</ele><time>2026-04-12T07:41:45.958Z</time></trkpt><trkpt lat="45.7147781" lon="9.9095741"><ele>414.0</ele><time>2026-04-12T07:41:48.97Z</time></trkpt><trkpt lat="45.7146998" lon="9.9095406"><ele>414.0</ele><time>2026-04-12T07:41:51.974Z</time></trkpt><trkpt lat="45.7146252" lon="9.9094955"><ele>414.0</ele><time>2026-04-12T07:41:54.981Z</time></trkpt><trkpt lat="45.7145571" lon="9.909458"><ele>414.0</ele><time>2026-04-12T07:41:57.973Z</time></trkpt><trkpt lat="45.7144885" lon="9.9094287"><ele>414.0</ele><time>2026-04-12T07:42:00.975Z</time></trkpt><trkpt lat="45.71448" lon="9.909549"><ele>414.0</ele><time>2026-04-12T07:42:04.978Z</time></trkpt><trkpt lat="45.714498" lon="9.909665"><ele>414.0</ele><time>2026-04-12T07:42:07.974Z</time></trkpt><trkpt lat="45.7145198" lon="9.909764"><ele>414.00000000000006</ele><time>2026-04-12T07:42:10.976Z</time></trkpt><trkpt lat="45.7145391" lon="9.9098682"><ele>414.0</ele><time>2026-04-12T07:42:13.98Z</time></trkpt><trkpt lat="45.7145567" lon="9.9099627"><ele>414.0</ele><time>2026-04-12T07:42:16.984Z</time></trkpt><trkpt lat="45.7145735" lon="9.9100719"><ele>414.0</ele><time>2026-04-12T07:42:20.966Z</time></trkpt><trkpt lat="45.7145816" lon="9.9101665"><ele>414.0</ele><time>2026-04-12T07:42:23.954Z</time></trkpt><trkpt lat="45.7145912" lon="9.9102644"><ele>414.00000000000006</ele><time>2026-04-12T07:42:26.977Z</time></trkpt><trkpt lat="45.7145949" lon="9.9103928"><ele>414.0</ele><time>2026-04-12T07:42:30.969Z</time></trkpt><trkpt lat="45.7145966" lon="9.9104951"><ele>416.6666666666667</ele><time>2026-04-12T07:42:33.979Z</time></trkpt><trkpt lat="45.7146121" lon="9.9106121"><ele>419.33333333333337</ele><time>2026-04-12T07:42:37.983Z</time></trkpt><trkpt lat="45.714629" lon="9.9107243"><ele>422.0</ele><time>2026-04-12T07:42:41.982Z</time></trkpt><trkpt lat="45.7146411" lon="9.9108243"><ele>424.6666666666667</ele><time>2026-04-12T07:42:44.982Z</time></trkpt><trkpt lat="45.7146594" lon="9.9109323"><ele>427.33333333333337</ele><time>2026-04-12T07:42:48.979Z</time></trkpt><trkpt lat="45.7146773" lon="9.9110306"><ele>430.0</ele><time>2026-04-12T07:42:51.979Z</time></trkpt><trkpt lat="45.7146899" lon="9.911133"><ele>432.2857142857143</ele><time>2026-04-12T07:42:54.981Z</time></trkpt><trkpt lat="45.7146919" lon="9.9112426"><ele>434.5714285714286</ele><time>2026-04-12T07:42:58.982Z</time></trkpt><trkpt lat="45.7146874" lon="9.9113514"><ele>436.8571428571429</ele><time>2026-04-12T07:43:01.968Z</time></trkpt><trkpt lat="45.714685" lon="9.9114499"><ele>439.1428571428571</ele><time>2026-04-12T07:43:04.973Z</time></trkpt><trkpt lat="45.7146675" lon="9.9115484"><ele>441.42857142857144</ele><time>2026-04-12T07:43:07.982Z</time></trkpt><trkpt lat="45.7146499" lon="9.9116416"><ele>443.7142857142857</ele><time>2026-04-12T07:43:10.977Z</time></trkpt><trkpt lat="45.7146333" lon="9.911733"><ele>446.0</ele><time>2026-04-12T07:43:13.995Z</time></trkpt><trkpt lat="45.7146147" lon="9.9118272"><ele>448.1428571428571</ele><time>2026-04-12T07:43:16.98Z</time></trkpt><trkpt lat="45.7145956" lon="9.9119186"><ele>450.2857142857143</ele><time>2026-04-12T07:43:19.988Z</time></trkpt><trkpt lat="45.7145851" lon="9.9120155"><ele>452.42857142857144</ele><time>2026-04-12T07:43:22.987Z</time></trkpt><trkpt lat="45.7145762" lon="9.9121172"><ele>454.57142857142856</ele><time>2026-04-12T07:43:25.98Z</time></trkpt><trkpt lat="45.7145575" lon="9.912206"><ele>456.7142857142858</ele><time>2026-04-12T07:43:28.986Z</time></trkpt><trkpt lat="45.7145523" lon="9.912303"><ele>458.8571428571429</ele><time>2026-04-12T07:43:31.994Z</time></trkpt><trkpt lat="45.714538" lon="9.9123957"><ele>461.0</ele><time>2026-04-12T07:43:34.968Z</time></trkpt><trkpt lat="45.7145268" lon="9.9125082"><ele>464.14285714285717</ele><time>2026-04-12T07:43:38.981Z</time></trkpt><trkpt lat="45.7145072" lon="9.9126026"><ele>467.28571428571433</ele><time>2026-04-12T07:43:41.978Z</time></trkpt><trkpt lat="45.7144909" lon="9.9127066"><ele>470.42857142857144</ele><time>2026-04-12T07:43:44.981Z</time></trkpt><trkpt lat="45.7144845" lon="9.9128144"><ele>473.57142857142856</ele><time>2026-04-12T07:43:47.969Z</time></trkpt><trkpt lat="45.7144713" lon="9.91292"><ele>476.7142857142857</ele><time>2026-04-12T07:43:50.972Z</time></trkpt><trkpt lat="45.7144543" lon="9.9130257"><ele>479.8571428571429</ele><time>2026-04-12T07:43:53.974Z</time></trkpt><trkpt lat="45.7144484" lon="9.9131201"><ele>483.0</ele><time>2026-04-12T07:43:56.963Z</time></trkpt><trkpt lat="45.7144223" lon="9.9132331"><ele>482.2857142857143</ele><time>2026-04-12T07:44:00.98Z</time></trkpt><trkpt lat="45.7144026" lon="9.9133195"><ele>481.57142857142856</ele><time>2026-04-12T07:44:03.973Z</time></trkpt><trkpt lat="45.7143615" lon="9.9134204"><ele>480.8571428571429</ele><time>2026-04-12T07:44:07.985Z</time></trkpt><trkpt lat="45.7143259" lon="9.9135151"><ele>480.14285714285717</ele><time>2026-04-12T07:44:11.982Z</time></trkpt><trkpt lat="45.7142952" lon="9.91362"><ele>479.42857142857144</ele><time>2026-04-12T07:44:15.982Z</time></trkpt><trkpt lat="45.7142791" lon="9.9137311"><ele>478.7142857142858</ele><time>2026-04-12T07:44:19.966Z</time></trkpt><trkpt lat="45.7142608" lon="9.9138176"><ele>478.00000000000006</ele><time>2026-04-12T07:44:22.974Z</time></trkpt><trkpt lat="45.7142366" lon="9.9139271"><ele>478.00000000000006</ele><time>2026-04-12T07:44:26.968Z</time></trkpt><trkpt lat="45.7142184" lon="9.9140308"><ele>478.0</ele><time>2026-04-12T07:44:30.981Z</time></trkpt><trkpt lat="45.7142078" lon="9.9141209"><ele>478.00000000000006</ele><time>2026-04-12T07:44:33.984Z</time></trkpt><trkpt lat="45.7141925" lon="9.9142262"><ele>478.00000000000006</ele><time>2026-04-12T07:44:37.974Z</time></trkpt><trkpt lat="45.7141749" lon="9.9143186"><ele>478.0</ele><time>2026-04-12T07:44:41.975Z</time></trkpt><trkpt lat="45.7141412" lon="9.914401"><ele>478.00000000000006</ele><time>2026-04-12T07:44:45.986Z</time></trkpt><trkpt lat="45.7141208" lon="9.9145102"><ele>478.00000000000006</ele><time>2026-04-12T07:44:50.981Z</time></trkpt><trkpt lat="45.7140922" lon="9.9146098"><ele>482.6666666666667</ele><time>2026-04-12T07:44:54.986Z</time></trkpt><trkpt lat="45.7140342" lon="9.9147114"><ele>487.33333333333337</ele><time>2026-04-12T07:44:59.957Z</time></trkpt><trkpt lat="45.7139787" lon="9.9148063"><ele>492.0</ele><time>2026-04-12T07:45:01.953Z</time></trkpt><trkpt lat="45.7139378" lon="9.9148852"><ele>496.66666666666663</ele><time>2026-04-12T07:45:02.952Z</time></trkpt><trkpt lat="45.7138533" lon="9.9150006"><ele>501.3333333333333</ele><time>2026-04-12T07:45:04.95Z</time></trkpt><trkpt lat="45.7138177" lon="9.9150857"><ele>506.0</ele><time>2026-04-12T07:45:07.986Z</time></trkpt><trkpt lat="45.7137891" lon="9.9151842"><ele>508.49999999999994</ele><time>2026-04-12T07:45:12.96Z</time></trkpt><trkpt lat="45.7137611" lon="9.9152745"><ele>511.0</ele><time>2026-04-12T07:45:16.97Z</time></trkpt><trkpt lat="45.7137453" lon="9.915391"><ele>513.5</ele><time>2026-04-12T07:45:24.975Z</time></trkpt><trkpt lat="45.7137091" lon="9.9154941"><ele>516.0</ele><time>2026-04-12T07:45:28.975Z</time></trkpt><trkpt lat="45.7136877" lon="9.9155898"><ele>518.5</ele><time>2026-04-12T07:45:31.981Z</time></trkpt><trkpt lat="45.7136659" lon="9.9157038"><ele>521.0</ele><time>2026-04-12T07:45:35.976Z</time></trkpt><trkpt lat="45.7136577" lon="9.9157961"><ele>520.7142857142857</ele><time>2026-04-12T07:45:38.979Z</time></trkpt><trkpt lat="45.7136775" lon="9.9159046"><ele>520.4285714285714</ele><time>2026-04-12T07:45:42.974Z</time></trkpt><trkpt lat="45.7137038" lon="9.9159873"><ele>520.1428571428571</ele><time>2026-04-12T07:45:45.983Z</time></trkpt><trkpt lat="45.7137478" lon="9.9160628"><ele>519.8571428571429</ele><time>2026-04-12T07:45:48.99Z</time></trkpt><trkpt lat="45.713784" lon="9.9161368"><ele>519.5714285714286</ele><time>2026-04-12T07:45:51.988Z</time></trkpt><trkpt lat="45.7138377" lon="9.9161896"><ele>519.2857142857142</ele><time>2026-04-12T07:45:55.968Z</time></trkpt><trkpt lat="45.7138901" lon="9.9162675"><ele>519.0</ele><time>2026-04-12T07:45:59.981Z</time></trkpt><trkpt lat="45.7139631" lon="9.9163001"><ele>519.0</ele><time>2026-04-12T07:46:03.973Z</time></trkpt><trkpt lat="45.7140269" lon="9.9163018"><ele>519.0</ele><time>2026-04-12T07:46:08.977Z</time></trkpt><trkpt lat="45.7140926" lon="9.9162587"><ele>519.0</ele><time>2026-04-12T07:46:13.988Z</time></trkpt><trkpt lat="45.714057" lon="9.9161694"><ele>519.0</ele><time>2026-04-12T07:46:17.956Z</time></trkpt><trkpt lat="45.7140131" lon="9.9160738"><ele>519.0</ele><time>2026-04-12T07:46:21.97Z</time></trkpt><trkpt lat="45.7139629" lon="9.9159921"><ele>519.0</ele><time>2026-04-12T07:46:25.972Z</time></trkpt><trkpt lat="45.7139649" lon="9.9158999"><ele>519.0</ele><time>2026-04-12T07:46:31.976Z</time></trkpt><trkpt lat="45.7140376" lon="9.915958"><ele>519.0</ele><time>2026-04-12T07:46:46.974Z</time></trkpt><trkpt lat="45.7140958" lon="9.9159956"><ele>519.0</ele><time>2026-04-12T07:46:50.039Z</time></trkpt><trkpt lat="45.7141685" lon="9.9160387"><ele>519.0</ele><time>2026-04-12T07:46:53.955Z</time></trkpt><trkpt lat="45.7142332" lon="9.9160654"><ele>519.0</ele><time>2026-04-12T07:46:57.03Z</time></trkpt><trkpt lat="45.7142934" lon="9.9161023"><ele>519.0</ele><time>2026-04-12T07:46:59.969Z</time></trkpt><trkpt lat="45.714357" lon="9.9161349"><ele>519.0</ele><time>2026-04-12T07:47:03.968Z</time></trkpt><trkpt lat="45.7144222" lon="9.916182"><ele>519.0</ele><time>2026-04-12T07:47:07.974Z</time></trkpt><trkpt lat="45.7144908" lon="9.9162339"><ele>525.0</ele><time>2026-04-12T07:47:12.971Z</time></trkpt><trkpt lat="45.7145572" lon="9.9162735"><ele>531.0</ele><time>2026-04-12T07:47:16.966Z</time></trkpt><trkpt lat="45.7146143" lon="9.9163148"><ele>537.0</ele><time>2026-04-12T07:47:19.974Z</time></trkpt><trkpt lat="45.7146769" lon="9.9163718"><ele>543.0</ele><time>2026-04-12T07:47:22.963Z</time></trkpt><trkpt lat="45.7146946" lon="9.9164716"><ele>549.0</ele><time>2026-04-12T07:47:26.967Z</time></trkpt><trkpt lat="45.7147052" lon="9.9165635"><ele>555.0</ele><time>2026-04-12T07:47:30.963Z</time></trkpt><trkpt lat="45.714702" lon="9.916663"><ele>561.0</ele><time>2026-04-12T07:47:35.97Z</time></trkpt><trkpt lat="45.714701" lon="9.9167755"><ele>562.3333333333334</ele><time>2026-04-12T07:47:39.983Z</time></trkpt><trkpt lat="45.7146924" lon="9.9168924"><ele>563.6666666666666</ele><time>2026-04-12T07:47:43.966Z</time></trkpt><trkpt lat="45.7146769" lon="9.9169969"><ele>565.0</ele><time>2026-04-12T07:47:47.976Z</time></trkpt><trkpt lat="45.7146451" lon="9.9171022"><ele>566.3333333333333</ele><time>2026-04-12T07:47:51.973Z</time></trkpt><trkpt lat="45.7146411" lon="9.9172071"><ele>567.6666666666666</ele><time>2026-04-12T07:47:55.985Z</time></trkpt><trkpt lat="45.7146293" lon="9.9173196"><ele>569.0</ele><time>2026-04-12T07:47:59.974Z</time></trkpt><trkpt lat="45.7146189" lon="9.9174276"><ele>569.0000000000001</ele><time>2026-04-12T07:48:02.975Z</time></trkpt><trkpt lat="45.7146021" lon="9.9175415"><ele>569.0</ele><time>2026-04-12T07:48:05.966Z</time></trkpt><trkpt lat="45.7145859" lon="9.9176297"><ele>569.0</ele><time>2026-04-12T07:48:08.958Z</time></trkpt><trkpt lat="45.7146005" lon="9.9177335"><ele>569.0</ele><time>2026-04-12T07:48:11.979Z</time></trkpt><trkpt lat="45.7146211" lon="9.9178239"><ele>569.0</ele><time>2026-04-12T07:48:14.98Z</time></trkpt><trkpt lat="45.714648" lon="9.9179272"><ele>569.0000000000001</ele><time>2026-04-12T07:48:18.972Z</time></trkpt><trkpt lat="45.7146883" lon="9.9180155"><ele>569.0</ele><time>2026-04-12T07:48:22.964Z</time></trkpt><trkpt lat="45.7147123" lon="9.9181043"><ele>570.5714285714287</ele><time>2026-04-12T07:48:26.973Z</time></trkpt><trkpt lat="45.7147251" lon="9.9182211"><ele>572.1428571428571</ele><time>2026-04-12T07:48:30.976Z</time></trkpt><trkpt lat="45.7147121" lon="9.9183129"><ele>573.7142857142858</ele><time>2026-04-12T07:48:33.973Z</time></trkpt><trkpt lat="45.7146881" lon="9.9183971"><ele>575.2857142857143</ele><time>2026-04-12T07:48:36.978Z</time></trkpt><trkpt lat="45.714651" lon="9.9184955"><ele>576.8571428571429</ele><time>2026-04-12T07:48:40.975Z</time></trkpt><trkpt lat="45.714602" lon="9.9185667"><ele>578.4285714285714</ele><time>2026-04-12T07:48:44.971Z</time></trkpt><trkpt lat="45.7145432" lon="9.9186488"><ele>580.0</ele><time>2026-04-12T07:48:48.973Z</time></trkpt><trkpt lat="45.7144838" lon="9.918726"><ele>582.1666666666667</ele><time>2026-04-12T07:48:52.975Z</time></trkpt><trkpt lat="45.7144523" lon="9.9188203"><ele>584.3333333333334</ele><time>2026-04-12T07:48:56.968Z</time></trkpt><trkpt lat="45.7144352" lon="9.9189306"><ele>586.5</ele><time>2026-04-12T07:49:01.033Z</time></trkpt><trkpt lat="45.7144385" lon="9.9190307"><ele>588.6666666666666</ele><time>2026-04-12T07:49:04.96Z</time></trkpt><trkpt lat="45.7144507" lon="9.9191363"><ele>590.8333333333333</ele><time>2026-04-12T07:49:08.95Z</time></trkpt><trkpt lat="45.7144469" lon="9.9192471"><ele>593.0</ele><time>2026-04-12T07:49:12.963Z</time></trkpt><trkpt lat="45.7144554" lon="9.9193621"><ele>595.4285714285713</ele><time>2026-04-12T07:49:16.976Z</time></trkpt><trkpt lat="45.714474" lon="9.9194622"><ele>597.8571428571429</ele><time>2026-04-12T07:49:21.035Z</time></trkpt><trkpt lat="45.7144799" lon="9.9195819"><ele>600.2857142857142</ele><time>2026-04-12T07:49:24.963Z</time></trkpt><trkpt lat="45.7144727" lon="9.9196772"><ele>602.7142857142857</ele><time>2026-04-12T07:49:27.967Z</time></trkpt><trkpt lat="45.7144725" lon="9.9197756"><ele>605.1428571428571</ele><time>2026-04-12T07:49:31.026Z</time></trkpt><trkpt lat="45.7144607" lon="9.9198679"><ele>607.5714285714286</ele><time>2026-04-12T07:49:33.963Z</time></trkpt><trkpt lat="45.7144451" lon="9.9199614"><ele>610.0</ele><time>2026-04-12T07:49:36.976Z</time></trkpt><trkpt lat="45.7144372" lon="9.9200682"><ele>608.5</ele><time>2026-04-12T07:49:39.974Z</time></trkpt><trkpt lat="45.7144275" lon="9.9201813"><ele>607.0</ele><time>2026-04-12T07:49:43.969Z</time></trkpt><trkpt lat="45.7144154" lon="9.9202759"><ele>605.5</ele><time>2026-04-12T07:49:47.96Z</time></trkpt><trkpt lat="45.7144001" lon="9.9203891"><ele>604.0</ele><time>2026-04-12T07:49:51.964Z</time></trkpt><trkpt lat="45.7143872" lon="9.9205076"><ele>602.5</ele><time>2026-04-12T07:49:55.966Z</time></trkpt><trkpt lat="45.7143812" lon="9.9206064"><ele>601.0</ele><time>2026-04-12T07:49:58.963Z</time></trkpt><trkpt lat="45.7143789" lon="9.9207095"><ele>601.0</ele><time>2026-04-12T07:50:01.97Z</time></trkpt><trkpt lat="45.7143948" lon="9.920811"><ele>601.0</ele><time>2026-04-12T07:50:05.966Z</time></trkpt><trkpt lat="45.7144612" lon="9.9208623"><ele>601.0</ele><time>2026-04-12T07:50:10.96Z</time></trkpt><trkpt lat="45.7145349" lon="9.9208875"><ele>601.0</ele><time>2026-04-12T07:50:15.956Z</time></trkpt><trkpt lat="45.7145981" lon="9.9208828"><ele>601.0</ele><time>2026-04-12T07:50:19.971Z</time></trkpt><trkpt lat="45.7146625" lon="9.9208592"><ele>601.0</ele><time>2026-04-12T07:50:24.967Z</time></trkpt><trkpt lat="45.7147207" lon="9.9208157"><ele>601.0</ele><time>2026-04-12T07:50:30.034Z</time></trkpt><trkpt lat="45.7147061" lon="9.9209192"><ele>609.8571428571428</ele><time>2026-04-12T07:50:37.965Z</time></trkpt><trkpt lat="45.7146758" lon="9.9210226"><ele>618.7142857142858</ele><time>2026-04-12T07:50:42.962Z</time></trkpt><trkpt lat="45.7146485" lon="9.9211194"><ele>627.5714285714286</ele><time>2026-04-12T07:50:47.973Z</time></trkpt><trkpt lat="45.7146076" lon="9.9212"><ele>636.4285714285713</ele><time>2026-04-12T07:50:52.956Z</time></trkpt><trkpt lat="45.7145611" lon="9.9212847"><ele>645.2857142857142</ele><time>2026-04-12T07:50:58.984Z</time></trkpt><trkpt lat="45.7145348" lon="9.9213698"><ele>654.1428571428571</ele><time>2026-04-12T07:51:02.975Z</time></trkpt><trkpt lat="45.7145008" lon="9.9214605"><ele>663.0</ele><time>2026-04-12T07:51:06.968Z</time></trkpt><trkpt lat="45.7144443" lon="9.9215274"><ele>663.4285714285713</ele><time>2026-04-12T07:51:10.978Z</time></trkpt><trkpt lat="45.7143881" lon="9.9215876"><ele>663.8571428571429</ele><time>2026-04-12T07:51:15.036Z</time></trkpt><trkpt lat="45.7143321" lon="9.9216719"><ele>664.2857142857142</ele><time>2026-04-12T07:51:18.964Z</time></trkpt><trkpt lat="45.7142856" lon="9.9217615"><ele>664.7142857142857</ele><time>2026-04-12T07:51:22.039Z</time></trkpt><trkpt lat="45.7142499" lon="9.9218429"><ele>665.1428571428571</ele><time>2026-04-12T07:51:24.96Z</time></trkpt><trkpt lat="45.7141919" lon="9.9218936"><ele>665.5714285714286</ele><time>2026-04-12T07:51:29.046Z</time></trkpt><trkpt lat="45.7141181" lon="9.9219102"><ele>666.0</ele><time>2026-04-12T07:51:31.965Z</time></trkpt><trkpt lat="45.7140405" lon="9.9218981"><ele>666.0</ele><time>2026-04-12T07:51:35.045Z</time></trkpt><trkpt lat="45.7139745" lon="9.9218939"><ele>666.0</ele><time>2026-04-12T07:51:37.973Z</time></trkpt><trkpt lat="45.7139116" lon="9.9219046"><ele>666.0</ele><time>2026-04-12T07:51:40.952Z</time></trkpt><trkpt lat="45.7138389" lon="9.9219172"><ele>666.0</ele><time>2026-04-12T07:51:43.975Z</time></trkpt><trkpt lat="45.7137706" lon="9.921933"><ele>666.0</ele><time>2026-04-12T07:51:47.039Z</time></trkpt><trkpt lat="45.713702" lon="9.9219421"><ele>666.0</ele><time>2026-04-12T07:51:49.937Z</time></trkpt><trkpt lat="45.713632" lon="9.9219611"><ele>666.0</ele><time>2026-04-12T07:51:52.938Z</time></trkpt><trkpt lat="45.7135447" lon="9.9219621"><ele>664.2857142857143</ele><time>2026-04-12T07:51:55.966Z</time></trkpt><trkpt lat="45.7134593" lon="9.9219433"><ele>662.5714285714286</ele><time>2026-04-12T07:51:58.941Z</time></trkpt><trkpt lat="45.7133832" lon="9.9219209"><ele>660.8571428571429</ele><time>2026-04-12T07:52:01.955Z</time></trkpt><trkpt lat="45.7133163" lon="9.9219297"><ele>659.1428571428571</ele><time>2026-04-12T07:52:05.027Z</time></trkpt><trkpt lat="45.7132362" lon="9.921964"><ele>657.4285714285714</ele><time>2026-04-12T07:52:07.974Z</time></trkpt><trkpt lat="45.7131752" lon="9.9220032"><ele>655.7142857142857</ele><time>2026-04-12T07:52:10.965Z</time></trkpt><trkpt lat="45.7131161" lon="9.9220364"><ele>654.0</ele><time>2026-04-12T07:52:14.957Z</time></trkpt><trkpt lat="45.7130361" lon="9.9220592"><ele>654.0</ele><time>2026-04-12T07:52:18.982Z</time></trkpt><trkpt lat="45.7129656" lon="9.922077"><ele>654.0</ele><time>2026-04-12T07:52:21.967Z</time></trkpt><trkpt lat="45.7128989" lon="9.9221295"><ele>654.0</ele><time>2026-04-12T07:52:26.031Z</time></trkpt><trkpt lat="45.7128347" lon="9.9221664"><ele>654.0</ele><time>2026-04-12T07:52:28.975Z</time></trkpt><trkpt lat="45.7127696" lon="9.9222041"><ele>654.0</ele><time>2026-04-12T07:52:32.037Z</time></trkpt><trkpt lat="45.7127165" lon="9.9222609"><ele>654.0</ele><time>2026-04-12T07:52:34.976Z</time></trkpt><trkpt lat="45.7126631" lon="9.9223464"><ele>654.0</ele><time>2026-04-12T07:52:37.973Z</time></trkpt><trkpt lat="45.7126273" lon="9.9224225"><ele>654.5</ele><time>2026-04-12T07:52:39.966Z</time></trkpt><trkpt lat="45.7125911" lon="9.9225076"><ele>655.0</ele><time>2026-04-12T07:52:41.972Z</time></trkpt><trkpt lat="45.7125626" lon="9.9226382"><ele>655.5</ele><time>2026-04-12T07:52:44.972Z</time></trkpt><trkpt lat="45.7125253" lon="9.9227418"><ele>656.0</ele><time>2026-04-12T07:52:46.971Z</time></trkpt><trkpt lat="45.7124839" lon="9.9228282"><ele>656.5</ele><time>2026-04-12T07:52:48.974Z</time></trkpt><trkpt lat="45.7124521" lon="9.922917"><ele>657.0</ele><time>2026-04-12T07:52:50.971Z</time></trkpt><trkpt lat="45.7124321" lon="9.9230119"><ele>657.0</ele><time>2026-04-12T07:52:53.972Z</time></trkpt><trkpt lat="45.712439" lon="9.9231148"><ele>657.0</ele><time>2026-04-12T07:52:57.973Z</time></trkpt><trkpt lat="45.7124148" lon="9.9232426"><ele>657.0</ele><time>2026-04-12T07:53:14.962Z</time></trkpt><trkpt lat="45.712415" lon="9.9233617"><ele>657.0</ele><time>2026-04-12T07:53:28.967Z</time></trkpt><trkpt lat="45.7123826" lon="9.9235118"><ele>657.0</ele><time>2026-04-12T07:53:47.944Z</time></trkpt><trkpt lat="45.7123389" lon="9.9236064"><ele>657.0</ele><time>2026-04-12T07:54:21.022Z</time></trkpt><trkpt lat="45.7122714" lon="9.9236361"><ele>657.8333333333334</ele><time>2026-04-12T07:54:32.972Z</time></trkpt><trkpt lat="45.7121992" lon="9.9236338"><ele>658.6666666666666</ele><time>2026-04-12T07:54:36.957Z</time></trkpt><trkpt lat="45.7121278" lon="9.9236266"><ele>659.5</ele><time>2026-04-12T07:54:39.957Z</time></trkpt><trkpt lat="45.7120656" lon="9.9236512"><ele>660.3333333333333</ele><time>2026-04-12T07:54:42.963Z</time></trkpt><trkpt lat="45.7120046" lon="9.9236859"><ele>661.1666666666666</ele><time>2026-04-12T07:54:45.969Z</time></trkpt><trkpt lat="45.7119279" lon="9.9237364"><ele>662.0</ele><time>2026-04-12T07:54:50.029Z</time></trkpt><trkpt lat="45.7118352" lon="9.9237574"><ele>662.0</ele><time>2026-04-12T07:54:52.984Z</time></trkpt><trkpt lat="45.7117694" lon="9.9237802"><ele>662.0</ele><time>2026-04-12T07:54:54.962Z</time></trkpt><trkpt lat="45.7117069" lon="9.9238095"><ele>662.0</ele><time>2026-04-12T07:54:56.971Z</time></trkpt><trkpt lat="45.7116127" lon="9.9238469"><ele>662.0</ele><time>2026-04-12T07:54:59.973Z</time></trkpt><trkpt lat="45.7115504" lon="9.9238911"><ele>662.0</ele><time>2026-04-12T07:55:02.012Z</time></trkpt><trkpt lat="45.7114873" lon="9.9239798"><ele>662.0</ele><time>2026-04-12T07:55:04.977Z</time></trkpt><trkpt lat="45.7114367" lon="9.9240492"><ele>662.0</ele><time>2026-04-12T07:55:06.972Z</time></trkpt><trkpt lat="45.7113973" lon="9.924135"><ele>662.0</ele><time>2026-04-12T07:55:09.972Z</time></trkpt><trkpt lat="45.7113569" lon="9.9242084"><ele>662.0</ele><time>2026-04-12T07:55:13.985Z</time></trkpt><trkpt lat="45.7113064" lon="9.9243081"><ele>662.0</ele><time>2026-04-12T07:55:16.972Z</time></trkpt><trkpt lat="45.711272" lon="9.9244173"><ele>662.0</ele><time>2026-04-12T07:55:19.973Z</time></trkpt><trkpt lat="45.7112488" lon="9.9245096"><ele>662.0</ele><time>2026-04-12T07:55:23.021Z</time></trkpt><trkpt lat="45.7112235" lon="9.9246052"><ele>662.0</ele><time>2026-04-12T07:55:25.959Z</time></trkpt><trkpt lat="45.7111915" lon="9.9246884"><ele>663.0</ele><time>2026-04-12T07:55:28.988Z</time></trkpt><trkpt lat="45.7111638" lon="9.9247715"><ele>664.0</ele><time>2026-04-12T07:55:33.045Z</time></trkpt><trkpt lat="45.7111475" lon="9.9248657"><ele>665.0</ele><time>2026-04-12T07:55:35.983Z</time></trkpt><trkpt lat="45.7111088" lon="9.9249762"><ele>666.0</ele><time>2026-04-12T07:55:38.983Z</time></trkpt><trkpt lat="45.7110818" lon="9.9250976"><ele>667.0</ele><time>2026-04-12T07:55:41.995Z</time></trkpt><trkpt lat="45.7110526" lon="9.9251801"><ele>668.0</ele><time>2026-04-12T07:55:44.005Z</time></trkpt><trkpt lat="45.7110194" lon="9.9252653"><ele>669.0</ele><time>2026-04-12T07:55:45.973Z</time></trkpt><trkpt lat="45.7110016" lon="9.9253569"><ele>669.0</ele><time>2026-04-12T07:55:48.974Z</time></trkpt><trkpt lat="45.7109721" lon="9.9254562"><ele>669.0</ele><time>2026-04-12T07:55:51.976Z</time></trkpt><trkpt lat="45.7109547" lon="9.925553"><ele>669.0</ele><time>2026-04-12T07:55:57.978Z</time></trkpt><trkpt lat="45.7108825" lon="9.925625"><ele>669.0</ele><time>2026-04-12T07:56:06.973Z</time></trkpt><trkpt lat="45.7108163" lon="9.9256557"><ele>669.0</ele><time>2026-04-12T07:56:11.996Z</time></trkpt><trkpt lat="45.7107383" lon="9.9257394"><ele>669.0</ele><time>2026-04-12T07:56:23.975Z</time></trkpt><trkpt lat="45.7106547" lon="9.9257419"><ele>669.0</ele><time>2026-04-12T07:56:27.967Z</time></trkpt><trkpt lat="45.7105598" lon="9.9257223"><ele>669.0</ele><time>2026-04-12T07:56:30.955Z</time></trkpt><trkpt lat="45.7104858" lon="9.9257186"><ele>669.0</ele><time>2026-04-12T07:56:32.979Z</time></trkpt><trkpt lat="45.7104079" lon="9.9257179"><ele>669.0</ele><time>2026-04-12T07:56:34.97Z</time></trkpt><trkpt lat="45.7103328" lon="9.9257186"><ele>669.0</ele><time>2026-04-12T07:56:36.978Z</time></trkpt><trkpt lat="45.7102629" lon="9.9257311"><ele>669.0</ele><time>2026-04-12T07:56:38.963Z</time></trkpt><trkpt lat="45.7101954" lon="9.9257678"><ele>669.3333333333334</ele><time>2026-04-12T07:56:41.957Z</time></trkpt><trkpt lat="45.7101413" lon="9.9258163"><ele>669.6666666666666</ele><time>2026-04-12T07:56:44.968Z</time></trkpt><trkpt lat="45.7100803" lon="9.9258958"><ele>670.0</ele><time>2026-04-12T07:56:48.035Z</time></trkpt><trkpt lat="45.7100298" lon="9.9260047"><ele>670.3333333333333</ele><time>2026-04-12T07:56:50.951Z</time></trkpt><trkpt lat="45.7100012" lon="9.9260953"><ele>670.6666666666666</ele><time>2026-04-12T07:56:52.957Z</time></trkpt><trkpt lat="45.7099585" lon="9.9261822"><ele>671.0</ele><time>2026-04-12T07:56:54.936Z</time></trkpt><trkpt lat="45.7099127" lon="9.9262584"><ele>671.0</ele><time>2026-04-12T07:56:56.959Z</time></trkpt><trkpt lat="45.7098643" lon="9.9263449"><ele>671.0</ele><time>2026-04-12T07:56:58.969Z</time></trkpt><trkpt lat="45.7098301" lon="9.926436"><ele>671.0</ele><time>2026-04-12T07:57:00.961Z</time></trkpt><trkpt lat="45.709792" lon="9.9265269"><ele>671.0</ele><time>2026-04-12T07:57:02.977Z</time></trkpt><trkpt lat="45.7097442" lon="9.926622"><ele>671.0</ele><time>2026-04-12T07:57:04.956Z</time></trkpt><trkpt lat="45.7097098" lon="9.9267002"><ele>671.0</ele><time>2026-04-12T07:57:07.032Z</time></trkpt><trkpt lat="45.7096692" lon="9.9268118"><ele>670.2857142857142</ele><time>2026-04-12T07:57:09.982Z</time></trkpt><trkpt lat="45.7096473" lon="9.9269104"><ele>669.5714285714287</ele><time>2026-04-12T07:57:12.97Z</time></trkpt><trkpt lat="45.7096028" lon="9.9270105"><ele>668.8571428571429</ele><time>2026-04-12T07:57:16.976Z</time></trkpt><trkpt lat="45.7095561" lon="9.9270735"><ele>668.1428571428571</ele><time>2026-04-12T07:57:20.042Z</time></trkpt><trkpt lat="45.7095041" lon="9.9271333"><ele>667.4285714285713</ele><time>2026-04-12T07:57:22.977Z</time></trkpt><trkpt lat="45.7094407" lon="9.9272032"><ele>666.7142857142858</ele><time>2026-04-12T07:57:26.034Z</time></trkpt><trkpt lat="45.7093802" lon="9.9272557"><ele>666.0</ele><time>2026-04-12T07:57:28.972Z</time></trkpt><trkpt lat="45.709302" lon="9.9273099"><ele>666.0</ele><time>2026-04-12T07:57:31.978Z</time></trkpt><trkpt lat="45.7092215" lon="9.9273687"><ele>666.0</ele><time>2026-04-12T07:57:35.036Z</time></trkpt><trkpt lat="45.7091466" lon="9.9274296"><ele>666.0</ele><time>2026-04-12T07:57:37.956Z</time></trkpt><trkpt lat="45.7090956" lon="9.9274972"><ele>666.0</ele><time>2026-04-12T07:57:39.955Z</time></trkpt><trkpt lat="45.7090518" lon="9.9275636"><ele>666.0</ele><time>2026-04-12T07:57:42.035Z</time></trkpt><trkpt lat="45.7089977" lon="9.9276647"><ele>666.0</ele><time>2026-04-12T07:57:44.961Z</time></trkpt><trkpt lat="45.7089381" lon="9.9277654"><ele>666.1666666666666</ele><time>2026-04-12T07:57:47.966Z</time></trkpt><trkpt lat="45.7088886" lon="9.9278391"><ele>666.3333333333334</ele><time>2026-04-12T07:57:49.949Z</time></trkpt><trkpt lat="45.7088309" lon="9.9279063"><ele>666.5</ele><time>2026-04-12T07:57:51.966Z</time></trkpt><trkpt lat="45.7087486" lon="9.9279918"><ele>666.6666666666667</ele><time>2026-04-12T07:57:54.967Z</time></trkpt><trkpt lat="45.7086707" lon="9.9280447"><ele>666.8333333333334</ele><time>2026-04-12T07:57:57.967Z</time></trkpt><trkpt lat="45.7086157" lon="9.9280902"><ele>667.0</ele><time>2026-04-12T07:57:59.971Z</time></trkpt><trkpt lat="45.7085497" lon="9.928186"><ele>667.0000000000001</ele><time>2026-04-12T07:58:02.963Z</time></trkpt><trkpt lat="45.7085018" lon="9.9282543"><ele>667.0</ele><time>2026-04-12T07:58:04.961Z</time></trkpt><trkpt lat="45.7084504" lon="9.9283085"><ele>667.0</ele><time>2026-04-12T07:58:07.031Z</time></trkpt><trkpt lat="45.7084004" lon="9.9283704"><ele>667.0</ele><time>2026-04-12T07:58:08.962Z</time></trkpt><trkpt lat="45.7083584" lon="9.9284384"><ele>667.0</ele><time>2026-04-12T07:58:10.974Z</time></trkpt><trkpt lat="45.7083082" lon="9.9285402"><ele>667.0000000000001</ele><time>2026-04-12T07:58:13.973Z</time></trkpt><trkpt lat="45.7082591" lon="9.9286529"><ele>667.0</ele><time>2026-04-12T07:58:16.97Z</time></trkpt><trkpt lat="45.7082055" lon="9.9287227"><ele>672.2</ele><time>2026-04-12T07:58:18.974Z</time></trkpt><trkpt lat="45.7081286" lon="9.9287814"><ele>677.4000000000001</ele><time>2026-04-12T07:58:20.972Z</time></trkpt><trkpt lat="45.7080425" lon="9.9288423"><ele>682.5999999999999</ele><time>2026-04-12T07:58:22.974Z</time></trkpt><trkpt lat="45.7079511" lon="9.9289008"><ele>687.8</ele><time>2026-04-12T07:58:23.984Z</time></trkpt><trkpt lat="45.7078808" lon="9.9289761"><ele>693.0</ele><time>2026-04-12T07:58:24.97Z</time></trkpt><trkpt lat="45.7077846" lon="9.9290369"><ele>689.2</ele><time>2026-04-12T07:58:26.036Z</time></trkpt><trkpt lat="45.7076983" lon="9.9290986"><ele>685.4</ele><time>2026-04-12T07:58:26.991Z</time></trkpt><trkpt lat="45.7076011" lon="9.9291754"><ele>681.6</ele><time>2026-04-12T07:58:28.988Z</time></trkpt><trkpt lat="45.707513" lon="9.9292517"><ele>677.8000000000001</ele><time>2026-04-12T07:58:30.984Z</time></trkpt><trkpt lat="45.7074302" lon="9.9293289"><ele>674.0</ele><time>2026-04-12T07:58:32.972Z</time></trkpt><trkpt lat="45.7073649" lon="9.9293681"><ele>674.0000000000001</ele><time>2026-04-12T07:58:34.991Z</time></trkpt><trkpt lat="45.7073005" lon="9.9294054"><ele>674.0</ele><time>2026-04-12T07:58:38.969Z</time></trkpt><trkpt lat="45.7072063" lon="9.9294467"><ele>674.0</ele><time>2026-04-12T08:00:15.96Z</time></trkpt><trkpt lat="45.7071473" lon="9.9293932"><ele>674.0</ele><time>2026-04-12T08:00:18.955Z</time></trkpt><trkpt lat="45.7070918" lon="9.9293427"><ele>674.0</ele><time>2026-04-12T08:00:21.964Z</time></trkpt><trkpt lat="45.7070365" lon="9.9292899"><ele>674.0000000000001</ele><time>2026-04-12T08:00:24.968Z</time></trkpt><trkpt lat="45.7069897" lon="9.9292232"><ele>674.0</ele><time>2026-04-12T08:00:27.964Z</time></trkpt><trkpt lat="45.7069443" lon="9.9291396"><ele>674.6666666666666</ele><time>2026-04-12T08:00:30.974Z</time></trkpt><trkpt lat="45.706901" lon="9.9290704"><ele>675.3333333333333</ele><time>2026-04-12T08:00:33.972Z</time></trkpt><trkpt lat="45.7068579" lon="9.9289697"><ele>676.0</ele><time>2026-04-12T08:00:36.958Z</time></trkpt><trkpt lat="45.7068113" lon="9.9288725"><ele>676.6666666666666</ele><time>2026-04-12T08:00:39.966Z</time></trkpt><trkpt lat="45.7067673" lon="9.9287602"><ele>677.3333333333334</ele><time>2026-04-12T08:00:42.951Z</time></trkpt><trkpt lat="45.7067162" lon="9.9286661"><ele>678.0</ele><time>2026-04-12T08:00:45.956Z</time></trkpt><trkpt lat="45.7066739" lon="9.9285846"><ele>678.0</ele><time>2026-04-12T08:00:48.966Z</time></trkpt><trkpt lat="45.7066252" lon="9.9285117"><ele>678.0</ele><time>2026-04-12T08:00:51.961Z</time></trkpt><trkpt lat="45.7065751" lon="9.9284359"><ele>678.0</ele><time>2026-04-12T08:00:54.969Z</time></trkpt><trkpt lat="45.7065338" lon="9.9283678"><ele>678.0</ele><time>2026-04-12T08:00:57.967Z</time></trkpt><trkpt lat="45.7064857" lon="9.9282915"><ele>678.0</ele><time>2026-04-12T08:01:00.961Z</time></trkpt><trkpt lat="45.7064528" lon="9.9281974"><ele>678.0</ele><time>2026-04-12T08:01:03.966Z</time></trkpt><trkpt lat="45.7064214" lon="9.9280972"><ele>678.0</ele><time>2026-04-12T08:01:06.964Z</time></trkpt><trkpt lat="45.7063889" lon="9.9280042"><ele>678.8571428571428</ele><time>2026-04-12T08:01:09.969Z</time></trkpt><trkpt lat="45.7063518" lon="9.9279191"><ele>679.7142857142858</ele><time>2026-04-12T08:01:12.975Z</time></trkpt><trkpt lat="45.7063127" lon="9.9278378"><ele>680.5714285714286</ele><time>2026-04-12T08:01:15.963Z</time></trkpt><trkpt lat="45.7062755" lon="9.9277543"><ele>681.4285714285713</ele><time>2026-04-12T08:01:18.96Z</time></trkpt><trkpt lat="45.7062259" lon="9.9276785"><ele>682.2857142857142</ele><time>2026-04-12T08:01:21.975Z</time></trkpt><trkpt lat="45.7061772" lon="9.9275945"><ele>683.1428571428571</ele><time>2026-04-12T08:01:24.971Z</time></trkpt><trkpt lat="45.7061194" lon="9.9275154"><ele>684.0</ele><time>2026-04-12T08:01:27.959Z</time></trkpt><trkpt lat="45.7060714" lon="9.9274143"><ele>683.9999999999999</ele><time>2026-04-12T08:01:30.94Z</time></trkpt><trkpt lat="45.7060336" lon="9.9273362"><ele>684.0</ele><time>2026-04-12T08:01:32.956Z</time></trkpt><trkpt lat="45.7059814" lon="9.9272177"><ele>684.0</ele><time>2026-04-12T08:01:35.96Z</time></trkpt><trkpt lat="45.7059581" lon="9.9271292"><ele>684.0</ele><time>2026-04-12T08:01:37.962Z</time></trkpt><trkpt lat="45.7059514" lon="9.9270315"><ele>684.0</ele><time>2026-04-12T08:01:39.952Z</time></trkpt><trkpt lat="45.7059381" lon="9.9269219"><ele>683.9999999999999</ele><time>2026-04-12T08:01:42.96Z</time></trkpt><trkpt lat="45.7059313" lon="9.9268246"><ele>684.0</ele><time>2026-04-12T08:01:45.964Z</time></trkpt><trkpt lat="45.7059371" lon="9.9267018"><ele>686.2</ele><time>2026-04-12T08:01:48.97Z</time></trkpt><trkpt lat="45.7059072" lon="9.9265912"><ele>688.4000000000001</ele><time>2026-04-12T08:01:52.958Z</time></trkpt><trkpt lat="45.7058536" lon="9.9263953"><ele>690.6</ele><time>2026-04-12T08:01:59.966Z</time></trkpt><trkpt lat="45.7058215" lon="9.9262975"><ele>692.8</ele><time>2026-04-12T08:02:02.963Z</time></trkpt><trkpt lat="45.7057984" lon="9.9261892"><ele>695.0</ele><time>2026-04-12T08:02:05.959Z</time></trkpt><trkpt lat="45.705771" lon="9.9260764"><ele>695.0</ele><time>2026-04-12T08:02:08.962Z</time></trkpt><trkpt lat="45.7057372" lon="9.925982"><ele>695.0</ele><time>2026-04-12T08:02:11.972Z</time></trkpt><trkpt lat="45.705728" lon="9.9258835"><ele>695.0</ele><time>2026-04-12T08:02:14.973Z</time></trkpt><trkpt lat="45.7057124" lon="9.9257743"><ele>695.0</ele><time>2026-04-12T08:02:17.949Z</time></trkpt><trkpt lat="45.7056989" lon="9.9256504"><ele>695.0</ele><time>2026-04-12T08:02:20.976Z</time></trkpt><trkpt lat="45.7056814" lon="9.9255314"><ele>695.0</ele><time>2026-04-12T08:02:24.97Z</time></trkpt><trkpt lat="45.7056635" lon="9.9254409"><ele>696.4285714285714</ele><time>2026-04-12T08:02:27.95Z</time></trkpt><trkpt lat="45.7056158" lon="9.9253647"><ele>697.8571428571429</ele><time>2026-04-12T08:02:52.943Z</time></trkpt><trkpt lat="45.7055682" lon="9.9253052"><ele>699.2857142857142</ele><time>2026-04-12T08:03:07.948Z</time></trkpt><trkpt lat="45.7055468" lon="9.9251827"><ele>700.7142857142858</ele><time>2026-04-12T08:04:54.961Z</time></trkpt><trkpt lat="45.705547" lon="9.9250588"><ele>702.1428571428571</ele><time>2026-04-12T08:04:57.964Z</time></trkpt><trkpt lat="45.7055585" lon="9.9249625"><ele>703.5714285714286</ele><time>2026-04-12T08:04:59.963Z</time></trkpt><trkpt lat="45.7055573" lon="9.9248717"><ele>705.0</ele><time>2026-04-12T08:05:01.967Z</time></trkpt><trkpt lat="45.7055535" lon="9.9247763"><ele>705.5</ele><time>2026-04-12T08:05:03.966Z</time></trkpt><trkpt lat="45.7055517" lon="9.9246791"><ele>706.0</ele><time>2026-04-12T08:05:05.97Z</time></trkpt><trkpt lat="45.7055691" lon="9.9244807"><ele>706.5</ele><time>2026-04-12T08:05:07.963Z</time></trkpt><trkpt lat="45.7055807" lon="9.9243765"><ele>707.0</ele><time>2026-04-12T08:05:08.97Z</time></trkpt><trkpt lat="45.7055872" lon="9.9242622"><ele>707.5</ele><time>2026-04-12T08:05:09.966Z</time></trkpt><trkpt lat="45.7055847" lon="9.9241664"><ele>708.0</ele><time>2026-04-12T08:05:10.948Z</time></trkpt><trkpt lat="45.7055866" lon="9.9240732"><ele>707.0</ele><time>2026-04-12T08:05:11.96Z</time></trkpt><trkpt lat="45.7055863" lon="9.9239203"><ele>706.0</ele><time>2026-04-12T08:05:13.966Z</time></trkpt><trkpt lat="45.7056002" lon="9.9238136"><ele>705.0</ele><time>2026-04-12T08:05:15.97Z</time></trkpt><trkpt lat="45.7056128" lon="9.92372"><ele>704.0</ele><time>2026-04-12T08:05:17.957Z</time></trkpt><trkpt lat="45.7056257" lon="9.9236074"><ele>703.0</ele><time>2026-04-12T08:05:19.969Z</time></trkpt><trkpt lat="45.7056508" lon="9.9234777"><ele>702.0</ele><time>2026-04-12T08:05:21.962Z</time></trkpt><trkpt lat="45.7056778" lon="9.9233409"><ele>699.6</ele><time>2026-04-12T08:05:23.968Z</time></trkpt><trkpt lat="45.7056942" lon="9.9231976"><ele>697.2</ele><time>2026-04-12T08:05:25.968Z</time></trkpt><trkpt lat="45.7057122" lon="9.9230769"><ele>694.8</ele><time>2026-04-12T08:05:27.97Z</time></trkpt><trkpt lat="45.7057146" lon="9.9229441"><ele>692.4</ele><time>2026-04-12T08:05:29.967Z</time></trkpt><trkpt lat="45.7057114" lon="9.9227908"><ele>690.0</ele><time>2026-04-12T08:05:31.967Z</time></trkpt><trkpt lat="45.7057087" lon="9.9226899"><ele>690.0</ele><time>2026-04-12T08:05:32.962Z</time></trkpt><trkpt lat="45.7057025" lon="9.922594"><ele>690.0</ele><time>2026-04-12T08:05:33.973Z</time></trkpt><trkpt lat="45.705692" lon="9.9224906"><ele>690.0</ele><time>2026-04-12T08:05:34.966Z</time></trkpt><trkpt lat="45.7056843" lon="9.9223838"><ele>690.0</ele><time>2026-04-12T08:05:35.972Z</time></trkpt><trkpt lat="45.7056861" lon="9.9222785"><ele>690.0</ele><time>2026-04-12T08:05:36.968Z</time></trkpt><trkpt lat="45.7056921" lon="9.9221661"><ele>690.0</ele><time>2026-04-12T08:05:37.973Z</time></trkpt><trkpt lat="45.7056975" lon="9.9220563"><ele>690.0</ele><time>2026-04-12T08:05:38.941Z</time></trkpt><trkpt lat="45.7056986" lon="9.9219321"><ele>688.1666666666666</ele><time>2026-04-12T08:05:39.959Z</time></trkpt><trkpt lat="45.7056983" lon="9.9218177"><ele>686.3333333333334</ele><time>2026-04-12T08:05:40.95Z</time></trkpt><trkpt lat="45.7056919" lon="9.9216941"><ele>684.5</ele><time>2026-04-12T08:05:41.969Z</time></trkpt><trkpt lat="45.705675" lon="9.9215647"><ele>682.6666666666667</ele><time>2026-04-12T08:05:42.954Z</time></trkpt><trkpt lat="45.7056482" lon="9.9214513"><ele>680.8333333333334</ele><time>2026-04-12T08:05:43.961Z</time></trkpt><trkpt lat="45.7056355" lon="9.9213435"><ele>679.0</ele><time>2026-04-12T08:05:44.961Z</time></trkpt><trkpt lat="45.7056153" lon="9.9212466"><ele>678.8000000000001</ele><time>2026-04-12T08:05:45.962Z</time></trkpt><trkpt lat="45.7055939" lon="9.9211503"><ele>678.6</ele><time>2026-04-12T08:05:46.95Z</time></trkpt><trkpt lat="45.7055457" lon="9.9209818"><ele>678.4</ele><time>2026-04-12T08:05:48.959Z</time></trkpt><trkpt lat="45.7055212" lon="9.9208911"><ele>678.2</ele><time>2026-04-12T08:05:49.968Z</time></trkpt><trkpt lat="45.70546" lon="9.9207303"><ele>678.0</ele><time>2026-04-12T08:05:51.97Z</time></trkpt><trkpt lat="45.7054252" lon="9.9206434"><ele>679.2</ele><time>2026-04-12T08:05:52.963Z</time></trkpt><trkpt lat="45.705363" lon="9.9205045"><ele>680.4</ele><time>2026-04-12T08:05:54.957Z</time></trkpt><trkpt lat="45.7052989" lon="9.9203898"><ele>681.6</ele><time>2026-04-12T08:05:56.962Z</time></trkpt><trkpt lat="45.705244" lon="9.9203135"><ele>682.8000000000001</ele><time>2026-04-12T08:05:58.967Z</time></trkpt><trkpt lat="45.7051669" lon="9.9202457"><ele>684.0</ele><time>2026-04-12T08:06:00.944Z</time></trkpt><trkpt lat="45.7050681" lon="9.9201826"><ele>685.8333333333334</ele><time>2026-04-12T08:06:02.971Z</time></trkpt><trkpt lat="45.7050033" lon="9.9201525"><ele>687.6666666666666</ele><time>2026-04-12T08:06:03.963Z</time></trkpt><trkpt lat="45.7049381" lon="9.9201273"><ele>689.5</ele><time>2026-04-12T08:06:04.959Z</time></trkpt><trkpt lat="45.7048649" lon="9.9201068"><ele>691.3333333333333</ele><time>2026-04-12T08:06:05.964Z</time></trkpt><trkpt lat="45.7047542" lon="9.9200919"><ele>693.1666666666666</ele><time>2026-04-12T08:06:07.972Z</time></trkpt><trkpt lat="45.7046748" lon="9.9200789"><ele>695.0</ele><time>2026-04-12T08:06:09.959Z</time></trkpt><trkpt lat="45.7045835" lon="9.9200517"><ele>695.0</ele><time>2026-04-12T08:06:11.94Z</time></trkpt><trkpt lat="45.704471" lon="9.9200472"><ele>695.0</ele><time>2026-04-12T08:06:13.959Z</time></trkpt><trkpt lat="45.704374" lon="9.9200319"><ele>695.0</ele><time>2026-04-12T08:06:15.963Z</time></trkpt><trkpt lat="45.7042689" lon="9.9200041"><ele>695.0</ele><time>2026-04-12T08:06:17.958Z</time></trkpt><trkpt lat="45.7041859" lon="9.9199597"><ele>695.0</ele><time>2026-04-12T08:06:19.963Z</time></trkpt><trkpt lat="45.7041202" lon="9.9199507"><ele>690.8333333333333</ele><time>2026-04-12T08:06:42.954Z</time></trkpt><trkpt lat="45.7041108" lon="9.9198418"><ele>686.6666666666666</ele><time>2026-04-12T08:06:47.967Z</time></trkpt><trkpt lat="45.7041341" lon="9.9197162"><ele>682.5</ele><time>2026-04-12T08:06:50.97Z</time></trkpt><trkpt lat="45.7041643" lon="9.9196132"><ele>678.3333333333334</ele><time>2026-04-12T08:06:53.974Z</time></trkpt><trkpt lat="45.7042048" lon="9.9195184"><ele>674.1666666666667</ele><time>2026-04-12T08:06:56.961Z</time></trkpt><trkpt lat="45.7042312" lon="9.9194164"><ele>670.0</ele><time>2026-04-12T08:06:59.957Z</time></trkpt><trkpt lat="45.7042335" lon="9.9192961"><ele>670.3333333333334</ele><time>2026-04-12T08:07:02.955Z</time></trkpt><trkpt lat="45.7042609" lon="9.9191653"><ele>670.6666666666667</ele><time>2026-04-12T08:07:06.027Z</time></trkpt><trkpt lat="45.7042834" lon="9.9190626"><ele>671.0</ele><time>2026-04-12T08:07:07.978Z</time></trkpt><trkpt lat="45.7043162" lon="9.9189705"><ele>671.3333333333334</ele><time>2026-04-12T08:07:09.974Z</time></trkpt><trkpt lat="45.7043472" lon="9.918877"><ele>671.6666666666666</ele><time>2026-04-12T08:07:11.971Z</time></trkpt><trkpt lat="45.7043621" lon="9.9187688"><ele>672.0</ele><time>2026-04-12T08:07:13.97Z</time></trkpt><trkpt lat="45.7043811" lon="9.9186656"><ele>672.0</ele><time>2026-04-12T08:07:16.023Z</time></trkpt><trkpt lat="45.7043931" lon="9.9185607"><ele>672.0</ele><time>2026-04-12T08:07:18.977Z</time></trkpt><trkpt lat="45.7044219" lon="9.9184445"><ele>672.0</ele><time>2026-04-12T08:07:22.968Z</time></trkpt><trkpt lat="45.704424" lon="9.9183309"><ele>672.0</ele><time>2026-04-12T08:07:25.969Z</time></trkpt><trkpt lat="45.7043742" lon="9.9182065"><ele>672.0</ele><time>2026-04-12T08:07:38.975Z</time></trkpt><trkpt lat="45.70437" lon="9.91811"><ele>672.0</ele><time>2026-04-12T08:07:49.981Z</time></trkpt><trkpt lat="45.7043936" lon="9.9180017"><ele>670.0</ele><time>2026-04-12T08:07:52.964Z</time></trkpt><trkpt lat="45.704392" lon="9.9178743"><ele>668.0</ele><time>2026-04-12T08:07:55.971Z</time></trkpt><trkpt lat="45.7043752" lon="9.9177552"><ele>666.0</ele><time>2026-04-12T08:07:58.972Z</time></trkpt><trkpt lat="45.704382" lon="9.9176589"><ele>664.0</ele><time>2026-04-12T08:08:00.968Z</time></trkpt><trkpt lat="45.704368" lon="9.9175416"><ele>662.0</ele><time>2026-04-12T08:08:03.977Z</time></trkpt><trkpt lat="45.7043973" lon="9.9174056"><ele>660.0</ele><time>2026-04-12T08:08:06.971Z</time></trkpt><trkpt lat="45.7044077" lon="9.9172877"><ele>667.2</ele><time>2026-04-12T08:08:08.958Z</time></trkpt><trkpt lat="45.704429" lon="9.9171561"><ele>674.4</ele><time>2026-04-12T08:08:11.022Z</time></trkpt><trkpt lat="45.7044548" lon="9.9170345"><ele>681.5999999999999</ele><time>2026-04-12T08:08:12.961Z</time></trkpt><trkpt lat="45.704459" lon="9.916904"><ele>688.8</ele><time>2026-04-12T08:08:14.969Z</time></trkpt><trkpt lat="45.7044693" lon="9.9167802"><ele>696.0</ele><time>2026-04-12T08:08:16.966Z</time></trkpt><trkpt lat="45.704501" lon="9.9166398"><ele>696.0</ele><time>2026-04-12T08:08:18.974Z</time></trkpt><trkpt lat="45.7045207" lon="9.9165489"><ele>696.0</ele><time>2026-04-12T08:08:19.977Z</time></trkpt><trkpt lat="45.704549" lon="9.9164484"><ele>696.0</ele><time>2026-04-12T08:08:21.976Z</time></trkpt><trkpt lat="45.7045537" lon="9.9163452"><ele>696.0</ele><time>2026-04-12T08:08:23.963Z</time></trkpt><trkpt lat="45.7045517" lon="9.9161955"><ele>696.0</ele><time>2026-04-12T08:08:26.034Z</time></trkpt><trkpt lat="45.704549" lon="9.9160504"><ele>696.0</ele><time>2026-04-12T08:08:27.956Z</time></trkpt><trkpt lat="45.7045587" lon="9.9159132"><ele>692.8</ele><time>2026-04-12T08:08:29.958Z</time></trkpt><trkpt lat="45.7045267" lon="9.9157981"><ele>689.5999999999999</ele><time>2026-04-12T08:08:31.969Z</time></trkpt><trkpt lat="45.7044565" lon="9.9156926"><ele>686.4</ele><time>2026-04-12T08:08:33.96Z</time></trkpt><trkpt lat="45.7043939" lon="9.9155675"><ele>683.2</ele><time>2026-04-12T08:08:36.03Z</time></trkpt><trkpt lat="45.7043084" lon="9.9154817"><ele>680.0</ele><time>2026-04-12T08:08:37.967Z</time></trkpt><trkpt lat="45.7042112" lon="9.9154138"><ele>674.8333333333333</ele><time>2026-04-12T08:08:39.961Z</time></trkpt><trkpt lat="45.7041351" lon="9.9153754"><ele>669.6666666666666</ele><time>2026-04-12T08:08:41.95Z</time></trkpt><trkpt lat="45.7040542" lon="9.9153487"><ele>664.5</ele><time>2026-04-12T08:08:43.971Z</time></trkpt><trkpt lat="45.7039729" lon="9.915309"><ele>659.3333333333334</ele><time>2026-04-12T08:08:45.963Z</time></trkpt><trkpt lat="45.703913" lon="9.9152671"><ele>654.1666666666667</ele><time>2026-04-12T08:08:47.028Z</time></trkpt><trkpt lat="45.703852" lon="9.9152284"><ele>649.0</ele><time>2026-04-12T08:08:48.026Z</time></trkpt><trkpt lat="45.7037834" lon="9.9151123"><ele>652.2</ele><time>2026-04-12T08:08:49.969Z</time></trkpt><trkpt lat="45.7037628" lon="9.9149849"><ele>655.4000000000001</ele><time>2026-04-12T08:08:51.961Z</time></trkpt><trkpt lat="45.703756" lon="9.9148519"><ele>658.6</ele><time>2026-04-12T08:08:53.965Z</time></trkpt><trkpt lat="45.7037534" lon="9.9147006"><ele>661.8</ele><time>2026-04-12T08:08:55.976Z</time></trkpt><trkpt lat="45.7037297" lon="9.9145238"><ele>665.0</ele><time>2026-04-12T08:08:57.968Z</time></trkpt><trkpt lat="45.7037023" lon="9.9143527"><ele>664.2</ele><time>2026-04-12T08:08:59.974Z</time></trkpt><trkpt lat="45.7036393" lon="9.914231"><ele>663.4</ele><time>2026-04-12T08:09:01.972Z</time></trkpt><trkpt lat="45.7035564" lon="9.9141566"><ele>662.5999999999999</ele><time>2026-04-12T08:09:03.974Z</time></trkpt><trkpt lat="45.7034769" lon="9.914095"><ele>661.8</ele><time>2026-04-12T08:09:05.983Z</time></trkpt><trkpt lat="45.7033877" lon="9.9140489"><ele>661.0</ele><time>2026-04-12T08:09:07.967Z</time></trkpt><trkpt lat="45.703321" lon="9.9140128"><ele>658.6666666666667</ele><time>2026-04-12T08:09:09.981Z</time></trkpt><trkpt lat="45.7032266" lon="9.9139515"><ele>656.3333333333334</ele><time>2026-04-12T08:09:11.983Z</time></trkpt><trkpt lat="45.7031425" lon="9.9139118"><ele>654.0</ele><time>2026-04-12T08:09:13.968Z</time></trkpt><trkpt lat="45.7030861" lon="9.9138646"><ele>651.6666666666666</ele><time>2026-04-12T08:09:15.97Z</time></trkpt><trkpt lat="45.7030543" lon="9.9137691"><ele>649.3333333333333</ele><time>2026-04-12T08:09:17.969Z</time></trkpt><trkpt lat="45.7030157" lon="9.9136383"><ele>647.0</ele><time>2026-04-12T08:09:19.959Z</time></trkpt><trkpt lat="45.7029883" lon="9.9134964"><ele>647.5</ele><time>2026-04-12T08:09:21.967Z</time></trkpt><trkpt lat="45.7029726" lon="9.9133655"><ele>648.0</ele><time>2026-04-12T08:09:23.957Z</time></trkpt><trkpt lat="45.7029559" lon="9.9132311"><ele>648.5</ele><time>2026-04-12T08:09:25.941Z</time></trkpt><trkpt lat="45.702953" lon="9.9131033"><ele>649.0</ele><time>2026-04-12T08:09:27.963Z</time></trkpt><trkpt lat="45.7029748" lon="9.9129906"><ele>649.5</ele><time>2026-04-12T08:09:30.027Z</time></trkpt><trkpt lat="45.7029965" lon="9.9129018"><ele>650.0</ele><time>2026-04-12T08:09:31.961Z</time></trkpt><trkpt lat="45.7030199" lon="9.9128025"><ele>650.0</ele><time>2026-04-12T08:09:33.954Z</time></trkpt><trkpt lat="45.7030426" lon="9.9127073"><ele>650.0</ele><time>2026-04-12T08:09:35.956Z</time></trkpt><trkpt lat="45.703068" lon="9.9126205"><ele>650.0</ele><time>2026-04-12T08:09:38.037Z</time></trkpt><trkpt lat="45.7031064" lon="9.9124952"><ele>650.0</ele><time>2026-04-12T08:09:40.973Z</time></trkpt><trkpt lat="45.7031274" lon="9.9123923"><ele>650.0</ele><time>2026-04-12T08:09:42.977Z</time></trkpt><trkpt lat="45.7031574" lon="9.9123093"><ele>650.0</ele><time>2026-04-12T08:09:45Z</time></trkpt><trkpt lat="45.7031916" lon="9.9122243"><ele>650.0</ele><time>2026-04-12T08:09:47.98Z</time></trkpt><trkpt lat="45.7032034" lon="9.9121261"><ele>647.5</ele><time>2026-04-12T08:09:50.976Z</time></trkpt><trkpt lat="45.7031644" lon="9.9120022"><ele>645.0</ele><time>2026-04-12T08:09:53.974Z</time></trkpt><trkpt lat="45.7031486" lon="9.9119083"><ele>642.5</ele><time>2026-04-12T08:09:55.989Z</time></trkpt><trkpt lat="45.7031444" lon="9.9117904"><ele>640.0</ele><time>2026-04-12T08:09:57.981Z</time></trkpt><trkpt lat="45.7031446" lon="9.9116593"><ele>637.5</ele><time>2026-04-12T08:09:59.985Z</time></trkpt><trkpt lat="45.703122" lon="9.9115464"><ele>635.0</ele><time>2026-04-12T08:10:02.989Z</time></trkpt><trkpt lat="45.7030952" lon="9.911461"><ele>633.5</ele><time>2026-04-12T08:10:14.98Z</time></trkpt><trkpt lat="45.7030789" lon="9.9113666"><ele>632.0</ele><time>2026-04-12T08:10:25.983Z</time></trkpt><trkpt lat="45.703023" lon="9.9112688"><ele>630.5</ele><time>2026-04-12T08:10:29.985Z</time></trkpt><trkpt lat="45.7029665" lon="9.9111827"><ele>629.0</ele><time>2026-04-12T08:10:31.991Z</time></trkpt><trkpt lat="45.7029251" lon="9.9111"><ele>627.5</ele><time>2026-04-12T08:10:33.983Z</time></trkpt><trkpt lat="45.7028713" lon="9.9110236"><ele>626.0</ele><time>2026-04-12T08:11:08.972Z</time></trkpt><trkpt lat="45.7029054" lon="9.9111106"><ele>626.0</ele><time>2026-04-12T08:11:12.969Z</time></trkpt><trkpt lat="45.7029608" lon="9.9112086"><ele>626.0</ele><time>2026-04-12T08:11:15.995Z</time></trkpt><trkpt lat="45.7030149" lon="9.9112655"><ele>626.0</ele><time>2026-04-12T08:11:18.983Z</time></trkpt><trkpt lat="45.7030542" lon="9.9113493"><ele>626.0</ele><time>2026-04-12T08:11:22.98Z</time></trkpt><trkpt lat="45.7030857" lon="9.9114489"><ele>626.0</ele><time>2026-04-12T08:11:26.977Z</time></trkpt><trkpt lat="45.7030978" lon="9.9115389"><ele>626.0</ele><time>2026-04-12T08:11:29.974Z</time></trkpt><trkpt lat="45.7031122" lon="9.9116469"><ele>626.0</ele><time>2026-04-12T08:11:33.981Z</time></trkpt><trkpt lat="45.7031186" lon="9.9117509"><ele>626.0</ele><time>2026-04-12T08:11:36.954Z</time></trkpt><trkpt lat="45.7031378" lon="9.9118522"><ele>626.0</ele><time>2026-04-12T08:11:39.986Z</time></trkpt><trkpt lat="45.7031706" lon="9.9117721"><ele>626.0</ele><time>2026-04-12T08:11:49.98Z</time></trkpt><trkpt lat="45.7031856" lon="9.9116318"><ele>626.0</ele><time>2026-04-12T08:11:51.971Z</time></trkpt><trkpt lat="45.7031796" lon="9.9114576"><ele>626.0</ele><time>2026-04-12T08:11:53.976Z</time></trkpt><trkpt lat="45.7031759" lon="9.9112932"><ele>626.0</ele><time>2026-04-12T08:11:55.992Z</time></trkpt><trkpt lat="45.7031873" lon="9.9110962"><ele>626.0</ele><time>2026-04-12T08:11:57.978Z</time></trkpt><trkpt lat="45.7031922" lon="9.9109974"><ele>626.0</ele><time>2026-04-12T08:11:58.974Z</time></trkpt><trkpt lat="45.7032081" lon="9.9109051"><ele>626.0</ele><time>2026-04-12T08:11:59.991Z</time></trkpt><trkpt lat="45.7032313" lon="9.9108129"><ele>626.0</ele><time>2026-04-12T08:12:00.961Z</time></trkpt><trkpt lat="45.703277" lon="9.9106509"><ele>625.5</ele><time>2026-04-12T08:12:02.978Z</time></trkpt><trkpt lat="45.7033069" lon="9.9105694"><ele>625.0</ele><time>2026-04-12T08:12:03.978Z</time></trkpt><trkpt lat="45.7033381" lon="9.9104849"><ele>624.5</ele><time>2026-04-12T08:12:04.974Z</time></trkpt><trkpt lat="45.7033696" lon="9.9104011"><ele>624.0</ele><time>2026-04-12T08:12:05.962Z</time></trkpt><trkpt lat="45.7033934" lon="9.9103161"><ele>623.5</ele><time>2026-04-12T08:12:06.98Z</time></trkpt><trkpt lat="45.7034425" lon="9.910146"><ele>623.0</ele><time>2026-04-12T08:12:08.961Z</time></trkpt><trkpt lat="45.7034653" lon="9.9100609"><ele>624.75</ele><time>2026-04-12T08:12:09.986Z</time></trkpt><trkpt lat="45.7035046" lon="9.9098989"><ele>626.5</ele><time>2026-04-12T08:12:12.031Z</time></trkpt><trkpt lat="45.7035344" lon="9.9097331"><ele>628.25</ele><time>2026-04-12T08:12:13.963Z</time></trkpt><trkpt lat="45.7035754" lon="9.9095649"><ele>630.0</ele><time>2026-04-12T08:12:15.972Z</time></trkpt><trkpt lat="45.7036275" lon="9.9094566"><ele>624.5</ele><time>2026-04-12T08:12:18.034Z</time></trkpt><trkpt lat="45.703663" lon="9.9093787"><ele>619.0</ele><time>2026-04-12T08:12:19.985Z</time></trkpt><trkpt lat="45.7037098" lon="9.9093184"><ele>613.5</ele><time>2026-04-12T08:12:21.973Z</time></trkpt><trkpt lat="45.7037658" lon="9.9092466"><ele>608.0</ele><time>2026-04-12T08:12:46.981Z</time></trkpt><trkpt lat="45.7037893" lon="9.9091416"><ele>602.5</ele><time>2026-04-12T08:13:06.971Z</time></trkpt><trkpt lat="45.7037511" lon="9.9090251"><ele>597.0</ele><time>2026-04-12T08:13:10.97Z</time></trkpt><trkpt lat="45.7036865" lon="9.9089524"><ele>597.0</ele><time>2026-04-12T08:13:12.945Z</time></trkpt><trkpt lat="45.7036165" lon="9.9088476"><ele>597.0</ele><time>2026-04-12T08:13:14.965Z</time></trkpt><trkpt lat="45.7035407" lon="9.9087244"><ele>597.0</ele><time>2026-04-12T08:13:16.967Z</time></trkpt><trkpt lat="45.7034772" lon="9.9085904"><ele>597.0</ele><time>2026-04-12T08:13:18.962Z</time></trkpt><trkpt lat="45.7034227" lon="9.9084931"><ele>597.0</ele><time>2026-04-12T08:13:20.971Z</time></trkpt><trkpt lat="45.7033723" lon="9.9084045"><ele>600.1666666666666</ele><time>2026-04-12T08:13:22.981Z</time></trkpt><trkpt lat="45.7033182" lon="9.9083031"><ele>603.3333333333334</ele><time>2026-04-12T08:13:24.971Z</time></trkpt><trkpt lat="45.7032566" lon="9.9081952"><ele>606.5</ele><time>2026-04-12T08:13:26.97Z</time></trkpt><trkpt lat="45.7031928" lon="9.9080676"><ele>609.6666666666667</ele><time>2026-04-12T08:13:28.961Z</time></trkpt><trkpt lat="45.7031525" lon="9.9079752"><ele>612.8333333333334</ele><time>2026-04-12T08:13:31.054Z</time></trkpt><trkpt lat="45.7030895" lon="9.9079175"><ele>616.0</ele><time>2026-04-12T08:13:35.974Z</time></trkpt><trkpt lat="45.7030486" lon="9.9079894"><ele>616.0</ele><time>2026-04-12T08:14:19.984Z</time></trkpt><trkpt lat="45.7030266" lon="9.9080766"><ele>616.0</ele><time>2026-04-12T08:14:23.965Z</time></trkpt><trkpt lat="45.7029908" lon="9.9081768"><ele>616.0</ele><time>2026-04-12T08:14:31.041Z</time></trkpt><trkpt lat="45.7029426" lon="9.908301"><ele>616.0</ele><time>2026-04-12T08:14:35.996Z</time></trkpt><trkpt lat="45.7029096" lon="9.9083779"><ele>616.0</ele><time>2026-04-12T08:14:37.971Z</time></trkpt><trkpt lat="45.7028835" lon="9.9084632"><ele>616.0</ele><time>2026-04-12T08:14:40.033Z</time></trkpt><trkpt lat="45.7028173" lon="9.9085517"><ele>616.0</ele><time>2026-04-12T08:14:47.988Z</time></trkpt><trkpt lat="45.7027391" lon="9.9085932"><ele>616.0</ele><time>2026-04-12T08:14:57.99Z</time></trkpt><trkpt lat="45.7027368" lon="9.9084882"><ele>616.0</ele><time>2026-04-12T08:15:01.984Z</time></trkpt><trkpt lat="45.7027533" lon="9.908375"><ele>616.0</ele><time>2026-04-12T08:15:06.975Z</time></trkpt><trkpt lat="45.7027455" lon="9.908273"><ele>616.0</ele><time>2026-04-12T08:15:09.974Z</time></trkpt><trkpt lat="45.7027442" lon="9.9081648"><ele>616.0</ele><time>2026-04-12T08:15:14.975Z</time></trkpt><trkpt lat="45.7027203" lon="9.9080494"><ele>610.8333333333334</ele><time>2026-04-12T08:15:17.995Z</time></trkpt><trkpt lat="45.7027416" lon="9.9079247"><ele>605.6666666666667</ele><time>2026-04-12T08:15:19.982Z</time></trkpt><trkpt lat="45.7027384" lon="9.9078214"><ele>600.5</ele><time>2026-04-12T08:15:21.988Z</time></trkpt><trkpt lat="45.7027083" lon="9.9077176"><ele>595.3333333333334</ele><time>2026-04-12T08:15:23.981Z</time></trkpt><trkpt lat="45.7026743" lon="9.9076322"><ele>590.1666666666666</ele><time>2026-04-12T08:15:25.998Z</time></trkpt><trkpt lat="45.7026537" lon="9.9074991"><ele>585.0</ele><time>2026-04-12T08:15:28.989Z</time></trkpt><trkpt lat="45.7026343" lon="9.9074099"><ele>585.0</ele><time>2026-04-12T08:15:30.985Z</time></trkpt><trkpt lat="45.7026042" lon="9.9073119"><ele>585.0</ele><time>2026-04-12T08:15:33.989Z</time></trkpt><trkpt lat="45.7025749" lon="9.9071977"><ele>585.0</ele><time>2026-04-12T08:15:36.974Z</time></trkpt><trkpt lat="45.7025283" lon="9.9071158"><ele>585.0</ele><time>2026-04-12T08:15:38.938Z</time></trkpt><trkpt lat="45.7024692" lon="9.907049"><ele>585.0</ele><time>2026-04-12T08:15:40.962Z</time></trkpt><trkpt lat="45.7024265" lon="9.9069651"><ele>585.0</ele><time>2026-04-12T08:15:42.955Z</time></trkpt><trkpt lat="45.7023255" lon="9.9068682"><ele>585.0</ele><time>2026-04-12T08:15:44.958Z</time></trkpt><trkpt lat="45.7022501" lon="9.9067926"><ele>585.0</ele><time>2026-04-12T08:15:45.951Z</time></trkpt><trkpt lat="45.7021771" lon="9.9067477"><ele>585.0</ele><time>2026-04-12T08:15:48.006Z</time></trkpt><trkpt lat="45.7021086" lon="9.9067002"><ele>585.0</ele><time>2026-04-12T08:15:49.957Z</time></trkpt><trkpt lat="45.7020602" lon="9.906631"><ele>585.0</ele><time>2026-04-12T08:15:52.951Z</time></trkpt><trkpt lat="45.7020572" lon="9.9065067"><ele>585.0</ele><time>2026-04-12T08:15:55.963Z</time></trkpt><trkpt lat="45.7020587" lon="9.9064071"><ele>586.5714285714286</ele><time>2026-04-12T08:15:58.955Z</time></trkpt><trkpt lat="45.7020807" lon="9.9063192"><ele>588.1428571428571</ele><time>2026-04-12T08:16:00.952Z</time></trkpt><trkpt lat="45.7020503" lon="9.9062269"><ele>589.7142857142857</ele><time>2026-04-12T08:16:06.956Z</time></trkpt><trkpt lat="45.7020188" lon="9.9061196"><ele>591.2857142857142</ele><time>2026-04-12T08:16:32.942Z</time></trkpt><trkpt lat="45.7019912" lon="9.9060049"><ele>592.8571428571428</ele><time>2026-04-12T08:16:35.957Z</time></trkpt><trkpt lat="45.701982" lon="9.9058994"><ele>594.4285714285714</ele><time>2026-04-12T08:16:38.943Z</time></trkpt><trkpt lat="45.7019959" lon="9.9058026"><ele>596.0</ele><time>2026-04-12T08:16:55.977Z</time></trkpt><trkpt lat="45.7019955" lon="9.9056567"><ele>597.1666666666666</ele><time>2026-04-12T08:16:58.974Z</time></trkpt><trkpt lat="45.7020064" lon="9.9055215"><ele>598.3333333333333</ele><time>2026-04-12T08:17:00.973Z</time></trkpt><trkpt lat="45.702005" lon="9.905414"><ele>599.5</ele><time>2026-04-12T08:17:01.948Z</time></trkpt><trkpt lat="45.7019799" lon="9.9052666"><ele>600.6666666666666</ele><time>2026-04-12T08:17:04.031Z</time></trkpt><trkpt lat="45.701947" lon="9.9051521"><ele>601.8333333333334</ele><time>2026-04-12T08:17:05.96Z</time></trkpt><trkpt lat="45.7019081" lon="9.9050486"><ele>603.0</ele><time>2026-04-12T08:17:07.958Z</time></trkpt><trkpt lat="45.7018499" lon="9.9049599"><ele>596.0</ele><time>2026-04-12T08:17:09.96Z</time></trkpt><trkpt lat="45.7017811" lon="9.9048603"><ele>589.0</ele><time>2026-04-12T08:17:11.956Z</time></trkpt><trkpt lat="45.7017233" lon="9.9047499"><ele>582.0</ele><time>2026-04-12T08:17:13.967Z</time></trkpt><trkpt lat="45.7016785" lon="9.9046728"><ele>575.0</ele><time>2026-04-12T08:17:16.961Z</time></trkpt><trkpt lat="45.7016388" lon="9.904578"><ele>568.0</ele><time>2026-04-12T08:19:37.972Z</time></trkpt><trkpt lat="45.7015878" lon="9.9044809"><ele>561.0</ele><time>2026-04-12T08:19:40.969Z</time></trkpt><trkpt lat="45.7014903" lon="9.9043866"><ele>561.0</ele><time>2026-04-12T08:19:42.973Z</time></trkpt><trkpt lat="45.7013542" lon="9.9043011"><ele>561.0</ele><time>2026-04-12T08:19:44.952Z</time></trkpt><trkpt lat="45.7012759" lon="9.9042974"><ele>561.0</ele><time>2026-04-12T08:19:45.972Z</time></trkpt><trkpt lat="45.7011998" lon="9.9042932"><ele>561.0</ele><time>2026-04-12T08:19:46.976Z</time></trkpt><trkpt lat="45.7010759" lon="9.9042673"><ele>561.0</ele><time>2026-04-12T08:19:48.948Z</time></trkpt><trkpt lat="45.700966" lon="9.9042224"><ele>556.8</ele><time>2026-04-12T08:19:50.972Z</time></trkpt><trkpt lat="45.700874" lon="9.9041151"><ele>552.6</ele><time>2026-04-12T08:19:52.972Z</time></trkpt><trkpt lat="45.7007963" lon="9.9039918"><ele>548.4</ele><time>2026-04-12T08:19:54.982Z</time></trkpt><trkpt lat="45.7007529" lon="9.9039018"><ele>544.2</ele><time>2026-04-12T08:19:56.973Z</time></trkpt><trkpt lat="45.7007274" lon="9.9037838"><ele>540.0</ele><time>2026-04-12T08:19:59.952Z</time></trkpt><trkpt lat="45.7007649" lon="9.9037014"><ele>540.0</ele><time>2026-04-12T08:20:01.994Z</time></trkpt><trkpt lat="45.7007997" lon="9.9035827"><ele>540.0</ele><time>2026-04-12T08:20:04.978Z</time></trkpt><trkpt lat="45.700831" lon="9.9034793"><ele>540.0</ele><time>2026-04-12T08:20:06.965Z</time></trkpt><trkpt lat="45.7008614" lon="9.9033631"><ele>540.0</ele><time>2026-04-12T08:20:08.972Z</time></trkpt><trkpt lat="45.7008991" lon="9.9032561"><ele>540.0</ele><time>2026-04-12T08:20:10.953Z</time></trkpt><trkpt lat="45.7009359" lon="9.9031462"><ele>540.0</ele><time>2026-04-12T08:20:12.957Z</time></trkpt><trkpt lat="45.7009665" lon="9.9030286"><ele>540.3333333333334</ele><time>2026-04-12T08:20:14.974Z</time></trkpt><trkpt lat="45.7009845" lon="9.9029381"><ele>540.6666666666666</ele><time>2026-04-12T08:20:15.969Z</time></trkpt><trkpt lat="45.701011" lon="9.9028097"><ele>541.0</ele><time>2026-04-12T08:20:17.973Z</time></trkpt><trkpt lat="45.7010323" lon="9.9026809"><ele>541.3333333333333</ele><time>2026-04-12T08:20:19.971Z</time></trkpt><trkpt lat="45.7010439" lon="9.9025504"><ele>541.6666666666666</ele><time>2026-04-12T08:20:21.967Z</time></trkpt><trkpt lat="45.7010624" lon="9.9024297"><ele>542.0</ele><time>2026-04-12T08:20:23.967Z</time></trkpt><trkpt lat="45.7010519" lon="9.9023118"><ele>541.2</ele><time>2026-04-12T08:20:25.974Z</time></trkpt><trkpt lat="45.7010011" lon="9.9021694"><ele>540.4000000000001</ele><time>2026-04-12T08:20:27.969Z</time></trkpt><trkpt lat="45.7009751" lon="9.9020738"><ele>539.5999999999999</ele><time>2026-04-12T08:20:28.969Z</time></trkpt><trkpt lat="45.7009363" lon="9.901907"><ele>538.8</ele><time>2026-04-12T08:20:30.966Z</time></trkpt><trkpt lat="45.7009193" lon="9.901799"><ele>538.0</ele><time>2026-04-12T08:20:31.982Z</time></trkpt><trkpt lat="45.7008954" lon="9.9016777"><ele>538.0</ele><time>2026-04-12T08:20:32.969Z</time></trkpt><trkpt lat="45.7008643" lon="9.9015433"><ele>538.0</ele><time>2026-04-12T08:20:33.976Z</time></trkpt><trkpt lat="45.7008199" lon="9.90142"><ele>538.0</ele><time>2026-04-12T08:20:34.967Z</time></trkpt><trkpt lat="45.7007634" lon="9.9013146"><ele>538.0</ele><time>2026-04-12T08:20:35.978Z</time></trkpt><trkpt lat="45.7007213" lon="9.9012303"><ele>538.0</ele><time>2026-04-12T08:20:36.971Z</time></trkpt><trkpt lat="45.7006815" lon="9.9011581"><ele>538.0</ele><time>2026-04-12T08:20:37.977Z</time></trkpt><trkpt lat="45.700644" lon="9.9010841"><ele>538.0</ele><time>2026-04-12T08:20:38.977Z</time></trkpt><trkpt lat="45.7006156" lon="9.9009892"><ele>538.0</ele><time>2026-04-12T08:20:39.973Z</time></trkpt><trkpt lat="45.7005789" lon="9.9008471"><ele>538.0</ele><time>2026-04-12T08:20:41.989Z</time></trkpt><trkpt lat="45.7005547" lon="9.9006766"><ele>538.0</ele><time>2026-04-12T08:20:43.976Z</time></trkpt><trkpt lat="45.7005356" lon="9.90058"><ele>538.0</ele><time>2026-04-12T08:20:44.979Z</time></trkpt><trkpt lat="45.7005109" lon="9.9004825"><ele>538.0</ele><time>2026-04-12T08:20:45.964Z</time></trkpt><trkpt lat="45.7004937" lon="9.900311"><ele>539.0</ele><time>2026-04-12T08:20:47.973Z</time></trkpt><trkpt lat="45.7004642" lon="9.9002177"><ele>540.0</ele><time>2026-04-12T08:20:49.955Z</time></trkpt><trkpt lat="45.7003974" lon="9.9001753"><ele>541.0</ele><time>2026-04-12T08:20:51.98Z</time></trkpt><trkpt lat="45.7003257" lon="9.9001221"><ele>542.0</ele><time>2026-04-12T08:20:53.978Z</time></trkpt><trkpt lat="45.7002622" lon="9.9000789"><ele>543.0</ele><time>2026-04-12T08:20:55.972Z</time></trkpt><trkpt lat="45.700207" lon="9.8999762"><ele>544.0</ele><time>2026-04-12T08:20:58.973Z</time></trkpt><trkpt lat="45.7001578" lon="9.8998591"><ele>539.6666666666667</ele><time>2026-04-12T08:21:00.966Z</time></trkpt><trkpt lat="45.7000769" lon="9.8997191"><ele>535.3333333333334</ele><time>2026-04-12T08:21:02.971Z</time></trkpt><trkpt lat="45.7000304" lon="9.8996506"><ele>531.0</ele><time>2026-04-12T08:21:03.971Z</time></trkpt><trkpt lat="45.6999914" lon="9.8995788"><ele>526.6666666666666</ele><time>2026-04-12T08:21:04.973Z</time></trkpt><trkpt lat="45.6999183" lon="9.8994501"><ele>522.3333333333333</ele><time>2026-04-12T08:21:06.97Z</time></trkpt><trkpt lat="45.6998796" lon="9.8993746"><ele>518.0</ele><time>2026-04-12T08:21:07.972Z</time></trkpt><trkpt lat="45.699846" lon="9.899297"><ele>519.4285714285714</ele><time>2026-04-12T08:21:08.97Z</time></trkpt><trkpt lat="45.6998152" lon="9.8992124"><ele>520.8571428571429</ele><time>2026-04-12T08:21:09.971Z</time></trkpt><trkpt lat="45.6998011" lon="9.8991198"><ele>522.2857142857142</ele><time>2026-04-12T08:21:10.971Z</time></trkpt><trkpt lat="45.6997872" lon="9.8990169"><ele>523.7142857142858</ele><time>2026-04-12T08:21:11.976Z</time></trkpt><trkpt lat="45.6997695" lon="9.8989097"><ele>525.1428571428571</ele><time>2026-04-12T08:21:12.976Z</time></trkpt><trkpt lat="45.6997579" lon="9.8987974"><ele>526.5714285714286</ele><time>2026-04-12T08:21:13.976Z</time></trkpt><trkpt lat="45.6997391" lon="9.898681"><ele>528.0</ele><time>2026-04-12T08:21:14.984Z</time></trkpt><trkpt lat="45.6997222" lon="9.8985666"><ele>528.0</ele><time>2026-04-12T08:21:15.979Z</time></trkpt><trkpt lat="45.6997092" lon="9.8984609"><ele>528.0</ele><time>2026-04-12T08:21:16.952Z</time></trkpt><trkpt lat="45.6996969" lon="9.8983558"><ele>528.0</ele><time>2026-04-12T08:21:17.966Z</time></trkpt><trkpt lat="45.6996789" lon="9.8982494"><ele>528.0</ele><time>2026-04-12T08:21:18.975Z</time></trkpt><trkpt lat="45.6996576" lon="9.8981605"><ele>528.0</ele><time>2026-04-12T08:21:19.98Z</time></trkpt><trkpt lat="45.6996361" lon="9.8980408"><ele>528.0</ele><time>2026-04-12T08:21:21.976Z</time></trkpt><trkpt lat="45.6996402" lon="9.8979082"><ele>527.6</ele><time>2026-04-12T08:21:23.972Z</time></trkpt><trkpt lat="45.6996744" lon="9.8977839"><ele>527.1999999999999</ele><time>2026-04-12T08:21:25.967Z</time></trkpt><trkpt lat="45.6996303" lon="9.8976746"><ele>526.8</ele><time>2026-04-12T08:21:28.984Z</time></trkpt><trkpt lat="45.6995554" lon="9.8976891"><ele>526.4</ele><time>2026-04-12T08:21:30.981Z</time></trkpt><trkpt lat="45.6994571" lon="9.8977447"><ele>526.0</ele><time>2026-04-12T08:21:32.973Z</time></trkpt><trkpt lat="45.6993465" lon="9.8977842"><ele>518.0</ele><time>2026-04-12T08:21:34.978Z</time></trkpt><trkpt lat="45.6992448" lon="9.8978296"><ele>510.0</ele><time>2026-04-12T08:21:36.957Z</time></trkpt><trkpt lat="45.699142" lon="9.8978971"><ele>502.0</ele><time>2026-04-12T08:21:38.968Z</time></trkpt><trkpt lat="45.699061" lon="9.8979271"><ele>494.0</ele><time>2026-04-12T08:21:40.977Z</time></trkpt><trkpt lat="45.6989655" lon="9.8979095"><ele>486.0</ele><time>2026-04-12T08:21:42.971Z</time></trkpt><trkpt lat="45.6988781" lon="9.8978398"><ele>486.0</ele><time>2026-04-12T08:21:44.956Z</time></trkpt><trkpt lat="45.6987928" lon="9.8977759"><ele>486.0</ele><time>2026-04-12T08:21:46.974Z</time></trkpt><trkpt lat="45.6986977" lon="9.8977931"><ele>486.0</ele><time>2026-04-12T08:21:48.979Z</time></trkpt><trkpt lat="45.6986204" lon="9.8978196"><ele>486.0</ele><time>2026-04-12T08:21:50.973Z</time></trkpt><trkpt lat="45.6985735" lon="9.8976949"><ele>486.0</ele><time>2026-04-12T08:21:52.965Z</time></trkpt><trkpt lat="45.6985992" lon="9.8975938"><ele>486.0</ele><time>2026-04-12T08:21:54.956Z</time></trkpt><trkpt lat="45.6985813" lon="9.8974928"><ele>483.2857142857143</ele><time>2026-04-12T08:21:58.965Z</time></trkpt><trkpt lat="45.6985625" lon="9.8973932"><ele>480.57142857142856</ele><time>2026-04-12T08:22:01.971Z</time></trkpt><trkpt lat="45.6985459" lon="9.8972811"><ele>477.85714285714283</ele><time>2026-04-12T08:22:04.973Z</time></trkpt><trkpt lat="45.6985401" lon="9.897191"><ele>475.1428571428571</ele><time>2026-04-12T08:22:07.044Z</time></trkpt><trkpt lat="45.6985338" lon="9.897096"><ele>472.42857142857144</ele><time>2026-04-12T08:22:08.977Z</time></trkpt><trkpt lat="45.6985192" lon="9.8969985"><ele>469.71428571428567</ele><time>2026-04-12T08:22:10.958Z</time></trkpt><trkpt lat="45.6985042" lon="9.896904"><ele>466.99999999999994</ele><time>2026-04-12T08:22:12.97Z</time></trkpt><trkpt lat="45.6984794" lon="9.8967778"><ele>468.66666666666663</ele><time>2026-04-12T08:22:15.969Z</time></trkpt><trkpt lat="45.6984535" lon="9.8966952"><ele>470.3333333333333</ele><time>2026-04-12T08:22:18.052Z</time></trkpt><trkpt lat="45.6984225" lon="9.8965697"><ele>472.0</ele><time>2026-04-12T08:22:20.968Z</time></trkpt><trkpt lat="45.6984071" lon="9.8964821"><ele>473.66666666666663</ele><time>2026-04-12T08:22:22.969Z</time></trkpt><trkpt lat="45.6983738" lon="9.8963669"><ele>475.3333333333333</ele><time>2026-04-12T08:22:25.966Z</time></trkpt><trkpt lat="45.6983513" lon="9.8962497"><ele>477.0</ele><time>2026-04-12T08:22:28.972Z</time></trkpt><trkpt lat="45.6983657" lon="9.8961387"><ele>477.0</ele><time>2026-04-12T08:22:31.966Z</time></trkpt><trkpt lat="45.6984442" lon="9.896117"><ele>477.0</ele><time>2026-04-12T08:22:34.958Z</time></trkpt><trkpt lat="45.6985233" lon="9.8961913"><ele>477.0</ele><time>2026-04-12T08:22:37.97Z</time></trkpt><trkpt lat="45.6985788" lon="9.896242"><ele>477.0</ele><time>2026-04-12T08:22:39.971Z</time></trkpt><trkpt lat="45.6986538" lon="9.8963164"><ele>477.0</ele><time>2026-04-12T08:22:42.989Z</time></trkpt><trkpt lat="45.6987113" lon="9.8963974"><ele>477.0</ele><time>2026-04-12T08:22:45.971Z</time></trkpt><trkpt lat="45.6987748" lon="9.8964262"><ele>480.6666666666667</ele><time>2026-04-12T08:22:48.965Z</time></trkpt><trkpt lat="45.6988398" lon="9.8963828"><ele>484.33333333333337</ele><time>2026-04-12T08:22:52.057Z</time></trkpt><trkpt lat="45.6988662" lon="9.8962896"><ele>488.0</ele><time>2026-04-12T08:22:54.961Z</time></trkpt><trkpt lat="45.6988627" lon="9.8961633"><ele>491.6666666666667</ele><time>2026-04-12T08:22:57.969Z</time></trkpt><trkpt lat="45.698821" lon="9.896091"><ele>495.33333333333337</ele><time>2026-04-12T08:22:59.967Z</time></trkpt><trkpt lat="45.6987811" lon="9.8960162"><ele>499.0</ele><time>2026-04-12T08:23:01.963Z</time></trkpt><trkpt lat="45.6987369" lon="9.8959062"><ele>500.50000000000006</ele><time>2026-04-12T08:23:04.98Z</time></trkpt><trkpt lat="45.698681" lon="9.8958047"><ele>502.0</ele><time>2026-04-12T08:23:07.978Z</time></trkpt><trkpt lat="45.698649" lon="9.8957242"><ele>503.5</ele><time>2026-04-12T08:23:09.979Z</time></trkpt><trkpt lat="45.6985959" lon="9.8956308"><ele>505.0</ele><time>2026-04-12T08:23:12.982Z</time></trkpt><trkpt lat="45.6985435" lon="9.8955409"><ele>506.50000000000006</ele><time>2026-04-12T08:23:15.949Z</time></trkpt><trkpt lat="45.6984899" lon="9.8954483"><ele>508.0</ele><time>2026-04-12T08:23:18.971Z</time></trkpt><trkpt lat="45.6984453" lon="9.8953824"><ele>507.33333333333337</ele><time>2026-04-12T08:23:20.966Z</time></trkpt><trkpt lat="45.6984142" lon="9.8952955"><ele>506.6666666666667</ele><time>2026-04-12T08:23:22.955Z</time></trkpt><trkpt lat="45.6983648" lon="9.8952043"><ele>506.0</ele><time>2026-04-12T08:23:25.958Z</time></trkpt><trkpt lat="45.6983212" lon="9.8951129"><ele>505.33333333333337</ele><time>2026-04-12T08:23:28.961Z</time></trkpt><trkpt lat="45.6982715" lon="9.8950126"><ele>504.6666666666667</ele><time>2026-04-12T08:23:31.96Z</time></trkpt><trkpt lat="45.698222" lon="9.8949326"><ele>504.0</ele><time>2026-04-12T08:23:34.954Z</time></trkpt><trkpt lat="45.6981557" lon="9.8948535"><ele>504.0</ele><time>2026-04-12T08:23:37.969Z</time></trkpt><trkpt lat="45.6980911" lon="9.8947745"><ele>504.0</ele><time>2026-04-12T08:23:40.964Z</time></trkpt><trkpt lat="45.6980253" lon="9.894703"><ele>504.0</ele><time>2026-04-12T08:23:43.965Z</time></trkpt><trkpt lat="45.6979667" lon="9.8946552"><ele>504.0</ele><time>2026-04-12T08:23:45.959Z</time></trkpt><trkpt lat="45.6978906" lon="9.8945736"><ele>504.0</ele><time>2026-04-12T08:23:48.961Z</time></trkpt><trkpt lat="45.6978421" lon="9.8945135"><ele>504.0</ele><time>2026-04-12T08:23:50.965Z</time></trkpt><trkpt lat="45.6977826" lon="9.8944644"><ele>505.8333333333333</ele><time>2026-04-12T08:23:52.95Z</time></trkpt><trkpt lat="45.6977317" lon="9.8944104"><ele>507.66666666666663</ele><time>2026-04-12T08:23:54.96Z</time></trkpt><trkpt lat="45.6976767" lon="9.8943489"><ele>509.5</ele><time>2026-04-12T08:23:56.945Z</time></trkpt><trkpt lat="45.6976189" lon="9.8943028"><ele>511.3333333333333</ele><time>2026-04-12T08:23:58.971Z</time></trkpt><trkpt lat="45.6975444" lon="9.8942341"><ele>513.1666666666666</ele><time>2026-04-12T08:24:01.954Z</time></trkpt><trkpt lat="45.6974678" lon="9.8941678"><ele>515.0</ele><time>2026-04-12T08:24:04.963Z</time></trkpt><trkpt lat="45.6973976" lon="9.8941051"><ele>515.0</ele><time>2026-04-12T08:24:07.964Z</time></trkpt><trkpt lat="45.6973436" lon="9.8940548"><ele>515.0</ele><time>2026-04-12T08:24:09.958Z</time></trkpt><trkpt lat="45.6972865" lon="9.8940042"><ele>515.0</ele><time>2026-04-12T08:24:11.963Z</time></trkpt><trkpt lat="45.6972199" lon="9.8939224"><ele>515.0</ele><time>2026-04-12T08:24:14.947Z</time></trkpt><trkpt lat="45.6971473" lon="9.8938463"><ele>515.0</ele><time>2026-04-12T08:24:17.972Z</time></trkpt><trkpt lat="45.697074" lon="9.8937657"><ele>515.0</ele><time>2026-04-12T08:24:20.967Z</time></trkpt><trkpt lat="45.6970044" lon="9.8936818"><ele>515.0</ele><time>2026-04-12T08:24:23.964Z</time></trkpt><trkpt lat="45.6969486" lon="9.8935785"><ele>515.0</ele><time>2026-04-12T08:24:26.962Z</time></trkpt><trkpt lat="45.6969117" lon="9.8935015"><ele>515.0</ele><time>2026-04-12T08:24:28.953Z</time></trkpt><trkpt lat="45.6968707" lon="9.8934315"><ele>515.0</ele><time>2026-04-12T08:24:30.971Z</time></trkpt><trkpt lat="45.69683" lon="9.8933611"><ele>515.0</ele><time>2026-04-12T08:24:32.963Z</time></trkpt><trkpt lat="45.6967864" lon="9.8932947"><ele>515.0</ele><time>2026-04-12T08:24:34.961Z</time></trkpt><trkpt lat="45.6967544" lon="9.8932135"><ele>515.0</ele><time>2026-04-12T08:24:36.971Z</time></trkpt><trkpt lat="45.6966974" lon="9.8931322"><ele>518.8333333333333</ele><time>2026-04-12T08:24:39.963Z</time></trkpt><trkpt lat="45.6966068" lon="9.8931068"><ele>522.6666666666666</ele><time>2026-04-12T08:24:42.956Z</time></trkpt><trkpt lat="45.6965218" lon="9.8931254"><ele>526.5</ele><time>2026-04-12T08:24:45.952Z</time></trkpt><trkpt lat="45.6964565" lon="9.8931385"><ele>530.3333333333334</ele><time>2026-04-12T08:24:47.949Z</time></trkpt><trkpt lat="45.6963898" lon="9.8931443"><ele>534.1666666666667</ele><time>2026-04-12T08:24:49.956Z</time></trkpt><trkpt lat="45.6963038" lon="9.8931516"><ele>538.0</ele><time>2026-04-12T08:24:52.96Z</time></trkpt><trkpt lat="45.69622" lon="9.8931596"><ele>538.0</ele><time>2026-04-12T08:24:55.967Z</time></trkpt><trkpt lat="45.6961428" lon="9.8931936"><ele>538.0</ele><time>2026-04-12T08:24:59.952Z</time></trkpt><trkpt lat="45.6960424" lon="9.8932189"><ele>538.0</ele><time>2026-04-12T08:25:01.96Z</time></trkpt><trkpt lat="45.6959461" lon="9.8932204"><ele>538.0</ele><time>2026-04-12T08:25:03.954Z</time></trkpt><trkpt lat="45.6958416" lon="9.8932276"><ele>538.0</ele><time>2026-04-12T08:25:05.955Z</time></trkpt><trkpt lat="45.6957507" lon="9.8932449"><ele>538.0</ele><time>2026-04-12T08:25:07.956Z</time></trkpt><trkpt lat="45.6956719" lon="9.8932653"><ele>538.0</ele><time>2026-04-12T08:25:09.963Z</time></trkpt><trkpt lat="45.6956186" lon="9.89333"><ele>538.0</ele><time>2026-04-12T08:25:11.963Z</time></trkpt><trkpt lat="45.6955778" lon="9.8934205"><ele>538.0</ele><time>2026-04-12T08:25:13.966Z</time></trkpt><trkpt lat="45.6955352" lon="9.8935265"><ele>538.0</ele><time>2026-04-12T08:25:15.962Z</time></trkpt><trkpt lat="45.6955087" lon="9.8936105"><ele>538.0</ele><time>2026-04-12T08:25:17.963Z</time></trkpt><trkpt lat="45.6954767" lon="9.8937122"><ele>533.4</ele><time>2026-04-12T08:25:19.948Z</time></trkpt><trkpt lat="45.6954263" lon="9.8937861"><ele>528.8</ele><time>2026-04-12T08:25:21.941Z</time></trkpt><trkpt lat="45.6953446" lon="9.8938525"><ele>524.2</ele><time>2026-04-12T08:25:23.96Z</time></trkpt><trkpt lat="45.6952596" lon="9.8939083"><ele>519.6</ele><time>2026-04-12T08:25:25.96Z</time></trkpt><trkpt lat="45.6951569" lon="9.8939358"><ele>515.0</ele><time>2026-04-12T08:25:27.964Z</time></trkpt><trkpt lat="45.6950696" lon="9.8939418"><ele>515.0</ele><time>2026-04-12T08:25:29.97Z</time></trkpt><trkpt lat="45.6949706" lon="9.8939604"><ele>515.0</ele><time>2026-04-12T08:25:31.971Z</time></trkpt><trkpt lat="45.694868" lon="9.8939617"><ele>515.0</ele><time>2026-04-12T08:25:33.965Z</time></trkpt><trkpt lat="45.6947831" lon="9.8939212"><ele>515.0</ele><time>2026-04-12T08:25:35.972Z</time></trkpt><trkpt lat="45.6947028" lon="9.8938802"><ele>515.0</ele><time>2026-04-12T08:25:37.959Z</time></trkpt><trkpt lat="45.6946346" lon="9.8938146"><ele>515.0</ele><time>2026-04-12T08:25:40.965Z</time></trkpt><trkpt lat="45.6945874" lon="9.8937161"><ele>515.0</ele><time>2026-04-12T08:25:43.966Z</time></trkpt><trkpt lat="45.6945268" lon="9.8936352"><ele>515.0</ele><time>2026-04-12T08:25:46.958Z</time></trkpt><trkpt lat="45.6944729" lon="9.8935708"><ele>515.0</ele><time>2026-04-12T08:25:49.974Z</time></trkpt><trkpt lat="45.6944169" lon="9.8935059"><ele>515.0</ele><time>2026-04-12T08:25:52.944Z</time></trkpt><trkpt lat="45.6943466" lon="9.8934602"><ele>515.0</ele><time>2026-04-12T08:25:55.961Z</time></trkpt><trkpt lat="45.6942854" lon="9.8934015"><ele>519.6666666666666</ele><time>2026-04-12T08:25:58.955Z</time></trkpt><trkpt lat="45.6942197" lon="9.8933301"><ele>524.3333333333333</ele><time>2026-04-12T08:26:01.962Z</time></trkpt><trkpt lat="45.6941599" lon="9.8932798"><ele>529.0</ele><time>2026-04-12T08:26:04.964Z</time></trkpt><trkpt lat="45.6940833" lon="9.8932782"><ele>533.6666666666666</ele><time>2026-04-12T08:26:07.965Z</time></trkpt><trkpt lat="45.6940098" lon="9.8932543"><ele>538.3333333333334</ele><time>2026-04-12T08:26:10.969Z</time></trkpt><trkpt lat="45.6939433" lon="9.8932379"><ele>543.0</ele><time>2026-04-12T08:26:12.968Z</time></trkpt><trkpt lat="45.6938496" lon="9.8932321"><ele>543.0</ele><time>2026-04-12T08:26:15.939Z</time></trkpt><trkpt lat="45.6937616" lon="9.8932953"><ele>543.0</ele><time>2026-04-12T08:26:17.957Z</time></trkpt><trkpt lat="45.6937093" lon="9.8933841"><ele>543.0</ele><time>2026-04-12T08:26:19.961Z</time></trkpt><trkpt lat="45.6936576" lon="9.8934694"><ele>543.0</ele><time>2026-04-12T08:26:21.96Z</time></trkpt><trkpt lat="45.6936084" lon="9.8935398"><ele>543.0</ele><time>2026-04-12T08:26:23.963Z</time></trkpt><trkpt lat="45.6935609" lon="9.8936238"><ele>543.0</ele><time>2026-04-12T08:26:25.95Z</time></trkpt><trkpt lat="45.6935107" lon="9.8937247"><ele>541.3333333333334</ele><time>2026-04-12T08:26:28.949Z</time></trkpt><trkpt lat="45.693476" lon="9.893804"><ele>539.6666666666666</ele><time>2026-04-12T08:26:30.965Z</time></trkpt><trkpt lat="45.6934159" lon="9.893887"><ele>538.0</ele><time>2026-04-12T08:26:32.96Z</time></trkpt><trkpt lat="45.6933693" lon="9.8939558"><ele>536.3333333333333</ele><time>2026-04-12T08:26:34.958Z</time></trkpt><trkpt lat="45.6932925" lon="9.8940079"><ele>534.6666666666666</ele><time>2026-04-12T08:26:37.963Z</time></trkpt><trkpt lat="45.6932219" lon="9.8940544"><ele>533.0</ele><time>2026-04-12T08:26:40.949Z</time></trkpt><trkpt lat="45.6931451" lon="9.894102"><ele>533.0</ele><time>2026-04-12T08:26:43.96Z</time></trkpt><trkpt lat="45.693079" lon="9.8941356"><ele>533.0</ele><time>2026-04-12T08:26:45.956Z</time></trkpt><trkpt lat="45.6930187" lon="9.8941631"><ele>533.0</ele><time>2026-04-12T08:26:47.96Z</time></trkpt><trkpt lat="45.6929449" lon="9.894179"><ele>533.0</ele><time>2026-04-12T08:26:49.967Z</time></trkpt><trkpt lat="45.6928598" lon="9.8941792"><ele>533.0</ele><time>2026-04-12T08:26:52.966Z</time></trkpt><trkpt lat="45.6927836" lon="9.8941789"><ele>533.0</ele><time>2026-04-12T08:26:55.966Z</time></trkpt><trkpt lat="45.6926718" lon="9.8942024"><ele>535.5</ele><time>2026-04-12T08:27:02.954Z</time></trkpt><trkpt lat="45.692588" lon="9.894212"><ele>538.0</ele><time>2026-04-12T08:27:06.954Z</time></trkpt><trkpt lat="45.6924835" lon="9.8942056"><ele>540.5</ele><time>2026-04-12T08:27:09.963Z</time></trkpt><trkpt lat="45.6924089" lon="9.8941835"><ele>543.0</ele><time>2026-04-12T08:27:11.965Z</time></trkpt><trkpt lat="45.6923168" lon="9.8941778"><ele>545.5</ele><time>2026-04-12T08:27:14.954Z</time></trkpt><trkpt lat="45.692239" lon="9.8941933"><ele>548.0</ele><time>2026-04-12T08:27:17.953Z</time></trkpt><trkpt lat="45.6921679" lon="9.8942371"><ele>548.1666666666666</ele><time>2026-04-12T08:27:20.956Z</time></trkpt><trkpt lat="45.6920846" lon="9.8942947"><ele>548.3333333333333</ele><time>2026-04-12T08:27:23.96Z</time></trkpt><trkpt lat="45.6920279" lon="9.8943358"><ele>548.5</ele><time>2026-04-12T08:27:25.967Z</time></trkpt><trkpt lat="45.6919489" lon="9.8943828"><ele>548.6666666666666</ele><time>2026-04-12T08:27:28.957Z</time></trkpt><trkpt lat="45.691893" lon="9.8944305"><ele>548.8333333333334</ele><time>2026-04-12T08:27:30.958Z</time></trkpt><trkpt lat="45.6918357" lon="9.8944784"><ele>549.0</ele><time>2026-04-12T08:27:32.989Z</time></trkpt><trkpt lat="45.6917552" lon="9.8945405"><ele>549.0</ele><time>2026-04-12T08:27:35.955Z</time></trkpt><trkpt lat="45.6916769" lon="9.8945889"><ele>549.0</ele><time>2026-04-12T08:27:38.963Z</time></trkpt><trkpt lat="45.6916201" lon="9.8946577"><ele>549.0</ele><time>2026-04-12T08:27:41.949Z</time></trkpt><trkpt lat="45.6915559" lon="9.8947255"><ele>549.0</ele><time>2026-04-12T08:27:44.961Z</time></trkpt><trkpt lat="45.6914993" lon="9.8947806"><ele>549.0</ele><time>2026-04-12T08:27:46.952Z</time></trkpt><trkpt lat="45.6914343" lon="9.8947974"><ele>549.0</ele><time>2026-04-12T08:27:48.971Z</time></trkpt><trkpt lat="45.6913605" lon="9.8948214"><ele>549.0</ele><time>2026-04-12T08:27:51.967Z</time></trkpt><trkpt lat="45.6912625" lon="9.8948514"><ele>549.0</ele><time>2026-04-12T08:27:56.942Z</time></trkpt><trkpt lat="45.691185" lon="9.8948894"><ele>549.0</ele><time>2026-04-12T08:27:58.946Z</time></trkpt><trkpt lat="45.6911112" lon="9.8949251"><ele>549.0</ele><time>2026-04-12T08:28:00.942Z</time></trkpt><trkpt lat="45.691045" lon="9.8949607"><ele>549.0</ele><time>2026-04-12T08:28:02.948Z</time></trkpt><trkpt lat="45.6909797" lon="9.8949983"><ele>549.0</ele><time>2026-04-12T08:28:04.974Z</time></trkpt><trkpt lat="45.6908877" lon="9.8950422"><ele>549.0</ele><time>2026-04-12T08:28:07.951Z</time></trkpt><trkpt lat="45.6908185" lon="9.8950597"><ele>549.0</ele><time>2026-04-12T08:28:09.983Z</time></trkpt><trkpt lat="45.690751" lon="9.8950945"><ele>549.0</ele><time>2026-04-12T08:28:11.981Z</time></trkpt><trkpt lat="45.690671" lon="9.8951161"><ele>549.0</ele><time>2026-04-12T08:28:14.942Z</time></trkpt><trkpt lat="45.6906028" lon="9.8951533"><ele>549.0</ele><time>2026-04-12T08:28:17.959Z</time></trkpt><trkpt lat="45.6905195" lon="9.8951866"><ele>549.0</ele><time>2026-04-12T08:28:21.948Z</time></trkpt><trkpt lat="45.6904329" lon="9.8952244"><ele>549.0</ele><time>2026-04-12T08:28:25.956Z</time></trkpt><trkpt lat="45.6903676" lon="9.8952257"><ele>549.0</ele><time>2026-04-12T08:28:28.953Z</time></trkpt><trkpt lat="45.6902957" lon="9.8952296"><ele>549.0</ele><time>2026-04-12T08:28:32.965Z</time></trkpt><trkpt lat="45.6902303" lon="9.895275"><ele>549.0</ele><time>2026-04-12T08:28:37.958Z</time></trkpt><trkpt lat="45.6901494" lon="9.8953213"><ele>549.0</ele><time>2026-04-12T08:28:41.959Z</time></trkpt><trkpt lat="45.6900621" lon="9.8953632"><ele>549.0</ele><time>2026-04-12T08:28:44.966Z</time></trkpt><trkpt lat="45.6899874" lon="9.8953864"><ele>551.5714285714286</ele><time>2026-04-12T08:28:47.957Z</time></trkpt><trkpt lat="45.6899199" lon="9.8954185"><ele>554.1428571428571</ele><time>2026-04-12T08:28:50.971Z</time></trkpt><trkpt lat="45.6898493" lon="9.8954559"><ele>556.7142857142858</ele><time>2026-04-12T08:28:53.961Z</time></trkpt><trkpt lat="45.6897944" lon="9.895504"><ele>559.2857142857142</ele><time>2026-04-12T08:28:56.961Z</time></trkpt><trkpt lat="45.6897365" lon="9.8955544"><ele>561.8571428571429</ele><time>2026-04-12T08:28:59.971Z</time></trkpt><trkpt lat="45.6896775" lon="9.8956083"><ele>564.4285714285714</ele><time>2026-04-12T08:29:02.968Z</time></trkpt><trkpt lat="45.6896152" lon="9.8956605"><ele>567.0</ele><time>2026-04-12T08:29:05.958Z</time></trkpt><trkpt lat="45.6895352" lon="9.8957137"><ele>567.0</ele><time>2026-04-12T08:29:09.03Z</time></trkpt><trkpt lat="45.6894589" lon="9.8957801"><ele>567.0</ele><time>2026-04-12T08:29:11.978Z</time></trkpt><trkpt lat="45.6893919" lon="9.8958272"><ele>567.0</ele><time>2026-04-12T08:29:14.971Z</time></trkpt><trkpt lat="45.6893239" lon="9.8958835"><ele>567.0</ele><time>2026-04-12T08:29:17.979Z</time></trkpt><trkpt lat="45.6892541" lon="9.8959431"><ele>567.0</ele><time>2026-04-12T08:29:20.964Z</time></trkpt><trkpt lat="45.6891818" lon="9.8960241"><ele>567.0</ele><time>2026-04-12T08:29:23.958Z</time></trkpt><trkpt lat="45.6891252" lon="9.896083"><ele>567.3333333333334</ele><time>2026-04-12T08:29:25.967Z</time></trkpt><trkpt lat="45.6890564" lon="9.8961963"><ele>567.6666666666666</ele><time>2026-04-12T08:29:29.031Z</time></trkpt><trkpt lat="45.6890124" lon="9.8963129"><ele>568.0</ele><time>2026-04-12T08:29:31.968Z</time></trkpt><trkpt lat="45.6889757" lon="9.8963907"><ele>568.3333333333333</ele><time>2026-04-12T08:29:33.979Z</time></trkpt><trkpt lat="45.6889233" lon="9.8964478"><ele>568.6666666666666</ele><time>2026-04-12T08:29:35.971Z</time></trkpt><trkpt lat="45.6888562" lon="9.8964811"><ele>569.0</ele><time>2026-04-12T08:29:37.981Z</time></trkpt><trkpt lat="45.6887706" lon="9.8964933"><ele>569.0</ele><time>2026-04-12T08:29:40.976Z</time></trkpt><trkpt lat="45.688684" lon="9.8965107"><ele>569.0</ele><time>2026-04-12T08:29:43.985Z</time></trkpt><trkpt lat="45.6886111" lon="9.8965041"><ele>569.0</ele><time>2026-04-12T08:29:46.967Z</time></trkpt><trkpt lat="45.6885359" lon="9.8964867"><ele>569.0</ele><time>2026-04-12T08:29:49.963Z</time></trkpt><trkpt lat="45.6884477" lon="9.8964702"><ele>569.0</ele><time>2026-04-12T08:29:53.945Z</time></trkpt><trkpt lat="45.6883917" lon="9.8965281"><ele>569.0</ele><time>2026-04-12T08:29:55.946Z</time></trkpt><trkpt lat="45.6883086" lon="9.8966029"><ele>568.5714285714287</ele><time>2026-04-12T08:29:58.966Z</time></trkpt><trkpt lat="45.6882291" lon="9.8966462"><ele>568.1428571428571</ele><time>2026-04-12T08:30:02.004Z</time></trkpt><trkpt lat="45.6881565" lon="9.8966746"><ele>567.7142857142858</ele><time>2026-04-12T08:30:04.967Z</time></trkpt><trkpt lat="45.6880881" lon="9.8967139"><ele>567.2857142857143</ele><time>2026-04-12T08:32:16.964Z</time></trkpt><trkpt lat="45.6880082" lon="9.8967014"><ele>566.8571428571429</ele><time>2026-04-12T08:32:41.975Z</time></trkpt><trkpt lat="45.6879458" lon="9.8967215"><ele>566.4285714285714</ele><time>2026-04-12T08:32:44.976Z</time></trkpt><trkpt lat="45.687879" lon="9.8967541"><ele>566.0</ele><time>2026-04-12T08:32:47.955Z</time></trkpt><trkpt lat="45.6878035" lon="9.8967746"><ele>568.0</ele><time>2026-04-12T08:32:50.954Z</time></trkpt><trkpt lat="45.6877268" lon="9.8967753"><ele>570.0</ele><time>2026-04-12T08:32:53.96Z</time></trkpt><trkpt lat="45.6876784" lon="9.8967033"><ele>572.0</ele><time>2026-04-12T08:32:57.971Z</time></trkpt><trkpt lat="45.6877088" lon="9.8965977"><ele>574.0</ele><time>2026-04-12T08:33:03.957Z</time></trkpt><trkpt lat="45.6877476" lon="9.8965044"><ele>576.0</ele><time>2026-04-12T08:33:05.977Z</time></trkpt><trkpt lat="45.6878018" lon="9.8964323"><ele>578.0</ele><time>2026-04-12T08:33:07.968Z</time></trkpt><trkpt lat="45.6878373" lon="9.8962975"><ele>579.1999999999999</ele><time>2026-04-12T08:33:10.967Z</time></trkpt><trkpt lat="45.6878597" lon="9.8962122"><ele>580.4</ele><time>2026-04-12T08:33:12.968Z</time></trkpt><trkpt lat="45.6878893" lon="9.8961111"><ele>581.5999999999999</ele><time>2026-04-12T08:33:14.966Z</time></trkpt><trkpt lat="45.6879079" lon="9.8959605"><ele>582.8</ele><time>2026-04-12T08:33:16.963Z</time></trkpt><trkpt lat="45.6879071" lon="9.8957916"><ele>584.0</ele><time>2026-04-12T08:33:18.973Z</time></trkpt><trkpt lat="45.6878846" lon="9.8956453"><ele>587.2</ele><time>2026-04-12T08:33:20.963Z</time></trkpt><trkpt lat="45.6878626" lon="9.8955225"><ele>590.4</ele><time>2026-04-12T08:33:22.972Z</time></trkpt><trkpt lat="45.6878586" lon="9.895388"><ele>593.6</ele><time>2026-04-12T08:33:24.97Z</time></trkpt><trkpt lat="45.6878588" lon="9.8952275"><ele>596.8</ele><time>2026-04-12T08:33:26.962Z</time></trkpt><trkpt lat="45.6878451" lon="9.8950389"><ele>600.0</ele><time>2026-04-12T08:33:28.948Z</time></trkpt><trkpt lat="45.6878155" lon="9.8948903"><ele>601.4285714285713</ele><time>2026-04-12T08:33:30.958Z</time></trkpt><trkpt lat="45.6878013" lon="9.8947858"><ele>602.8571428571429</ele><time>2026-04-12T08:33:31.953Z</time></trkpt><trkpt lat="45.687814" lon="9.8946582"><ele>604.2857142857142</ele><time>2026-04-12T08:33:33.965Z</time></trkpt><trkpt lat="45.6878544" lon="9.8945726"><ele>605.7142857142857</ele><time>2026-04-12T08:33:36.961Z</time></trkpt><trkpt lat="45.6878607" lon="9.8944781"><ele>607.1428571428571</ele><time>2026-04-12T08:33:40.971Z</time></trkpt><trkpt lat="45.6878774" lon="9.8943806"><ele>608.5714285714286</ele><time>2026-04-12T08:33:44.954Z</time></trkpt><trkpt lat="45.6878654" lon="9.8942749"><ele>610.0</ele><time>2026-04-12T08:33:56.959Z</time></trkpt><trkpt lat="45.6878935" lon="9.8941677"><ele>610.0</ele><time>2026-04-12T08:33:59.979Z</time></trkpt><trkpt lat="45.6879175" lon="9.8940554"><ele>610.0</ele><time>2026-04-12T08:34:02.955Z</time></trkpt><trkpt lat="45.6879153" lon="9.8939608"><ele>610.0</ele><time>2026-04-12T08:34:04.959Z</time></trkpt><trkpt lat="45.6879158" lon="9.8938274"><ele>610.0</ele><time>2026-04-12T08:34:07.971Z</time></trkpt><trkpt lat="45.6879122" lon="9.8936895"><ele>610.0</ele><time>2026-04-12T08:34:10.964Z</time></trkpt><trkpt lat="45.6879156" lon="9.8935979"><ele>610.0</ele><time>2026-04-12T08:34:12.956Z</time></trkpt><trkpt lat="45.6879454" lon="9.8935124"><ele>610.0</ele><time>2026-04-12T08:34:15.962Z</time></trkpt><trkpt lat="45.68801" lon="9.8934531"><ele>610.0</ele><time>2026-04-12T08:34:19.976Z</time></trkpt><trkpt lat="45.6880602" lon="9.8933513"><ele>610.0</ele><time>2026-04-12T08:34:22.97Z</time></trkpt><trkpt lat="45.6880889" lon="9.8932395"><ele>610.0</ele><time>2026-04-12T08:34:24.965Z</time></trkpt><trkpt lat="45.6881394" lon="9.8931272"><ele>610.0</ele><time>2026-04-12T08:34:26.963Z</time></trkpt><trkpt lat="45.6881775" lon="9.8930172"><ele>610.0</ele><time>2026-04-12T08:34:29.951Z</time></trkpt><trkpt lat="45.6882109" lon="9.8929192"><ele>607.1666666666667</ele><time>2026-04-12T08:34:32.965Z</time></trkpt><trkpt lat="45.6882454" lon="9.8927771"><ele>604.3333333333334</ele><time>2026-04-12T08:34:35.961Z</time></trkpt><trkpt lat="45.6882393" lon="9.8926601"><ele>601.5</ele><time>2026-04-12T08:34:37.959Z</time></trkpt><trkpt lat="45.6882356" lon="9.8925269"><ele>598.6666666666666</ele><time>2026-04-12T08:34:40.964Z</time></trkpt><trkpt lat="45.6882239" lon="9.8924155"><ele>595.8333333333333</ele><time>2026-04-12T08:34:42.95Z</time></trkpt><trkpt lat="45.6882252" lon="9.8922997"><ele>593.0</ele><time>2026-04-12T08:34:44.966Z</time></trkpt><trkpt lat="45.688245" lon="9.8921614"><ele>591.0</ele><time>2026-04-12T08:34:46.958Z</time></trkpt><trkpt lat="45.6882489" lon="9.8920372"><ele>589.0</ele><time>2026-04-12T08:34:48.968Z</time></trkpt><trkpt lat="45.6882744" lon="9.8919116"><ele>587.0</ele><time>2026-04-12T08:34:50.964Z</time></trkpt><trkpt lat="45.6883132" lon="9.8918086"><ele>585.0</ele><time>2026-04-12T08:34:53.959Z</time></trkpt><trkpt lat="45.6882861" lon="9.8917177"><ele>583.0</ele><time>2026-04-12T08:35:03.968Z</time></trkpt><trkpt lat="45.6882651" lon="9.8915625"><ele>581.0</ele><time>2026-04-12T08:35:14.96Z</time></trkpt><trkpt lat="45.6882555" lon="9.891453"><ele>579.4285714285714</ele><time>2026-04-12T08:35:24.97Z</time></trkpt><trkpt lat="45.6882393" lon="9.8913288"><ele>577.8571428571429</ele><time>2026-04-12T08:35:29.957Z</time></trkpt><trkpt lat="45.6881944" lon="9.8912508"><ele>576.2857142857142</ele><time>2026-04-12T08:35:39.952Z</time></trkpt><trkpt lat="45.688132" lon="9.8911818"><ele>574.7142857142858</ele><time>2026-04-12T08:35:50.955Z</time></trkpt><trkpt lat="45.6881804" lon="9.8911224"><ele>573.1428571428571</ele><time>2026-04-12T08:36:00.963Z</time></trkpt><trkpt lat="45.6881975" lon="9.8910133"><ele>571.5714285714286</ele><time>2026-04-12T08:36:03.958Z</time></trkpt><trkpt lat="45.6882332" lon="9.8909321"><ele>570.0</ele><time>2026-04-12T08:36:05.96Z</time></trkpt><trkpt lat="45.6882669" lon="9.8908489"><ele>568.0</ele><time>2026-04-12T08:36:08.962Z</time></trkpt><trkpt lat="45.6882866" lon="9.8907542"><ele>566.0</ele><time>2026-04-12T08:36:14.978Z</time></trkpt><trkpt lat="45.6883071" lon="9.8906478"><ele>564.0</ele><time>2026-04-12T08:36:17.975Z</time></trkpt><trkpt lat="45.6883396" lon="9.8905465"><ele>562.0</ele><time>2026-04-12T08:36:20.958Z</time></trkpt><trkpt lat="45.6883657" lon="9.8904583"><ele>560.0</ele><time>2026-04-12T08:36:24.97Z</time></trkpt><trkpt lat="45.6884141" lon="9.8903673"><ele>558.0</ele><time>2026-04-12T08:36:28.948Z</time></trkpt><trkpt lat="45.688444" lon="9.8902784"><ele>556.0</ele><time>2026-04-12T08:36:31.969Z</time></trkpt><trkpt lat="45.6884746" lon="9.8901733"><ele>555.2857142857142</ele><time>2026-04-12T08:36:36.967Z</time></trkpt><trkpt lat="45.6884896" lon="9.890077"><ele>554.5714285714286</ele><time>2026-04-12T08:36:40.963Z</time></trkpt><trkpt lat="45.6885098" lon="9.8899864"><ele>553.8571428571429</ele><time>2026-04-12T08:36:44.962Z</time></trkpt><trkpt lat="45.6885557" lon="9.8898911"><ele>553.1428571428571</ele><time>2026-04-12T08:36:48.969Z</time></trkpt><trkpt lat="45.6885925" lon="9.8897783"><ele>552.4285714285714</ele><time>2026-04-12T08:36:52.94Z</time></trkpt><trkpt lat="45.6886297" lon="9.8896933"><ele>551.7142857142857</ele><time>2026-04-12T08:36:55.969Z</time></trkpt><trkpt lat="45.6886692" lon="9.8896166"><ele>551.0</ele><time>2026-04-12T08:36:58.961Z</time></trkpt><trkpt lat="45.6887157" lon="9.8895449"><ele>556.3333333333333</ele><time>2026-04-12T08:37:01.948Z</time></trkpt><trkpt lat="45.6887787" lon="9.8894782"><ele>561.6666666666666</ele><time>2026-04-12T08:37:04.945Z</time></trkpt><trkpt lat="45.688823" lon="9.8894062"><ele>567.0</ele><time>2026-04-12T08:37:07.974Z</time></trkpt><trkpt lat="45.6888758" lon="9.8893187"><ele>572.3333333333334</ele><time>2026-04-12T08:37:11.969Z</time></trkpt><trkpt lat="45.6889009" lon="9.8892122"><ele>577.6666666666667</ele><time>2026-04-12T08:37:14.961Z</time></trkpt><trkpt lat="45.6889103" lon="9.8890945"><ele>583.0</ele><time>2026-04-12T08:37:17.965Z</time></trkpt><trkpt lat="45.6889178" lon="9.888987"><ele>583.0</ele><time>2026-04-12T08:37:21.967Z</time></trkpt><trkpt lat="45.6889361" lon="9.8888897"><ele>583.0</ele><time>2026-04-12T08:37:24.967Z</time></trkpt><trkpt lat="45.6889409" lon="9.8887674"><ele>583.0</ele><time>2026-04-12T08:37:27.965Z</time></trkpt><trkpt lat="45.6889765" lon="9.8886586"><ele>583.0</ele><time>2026-04-12T08:37:30.972Z</time></trkpt><trkpt lat="45.6890058" lon="9.8885467"><ele>583.0</ele><time>2026-04-12T08:37:33.966Z</time></trkpt><trkpt lat="45.6890425" lon="9.8884363"><ele>583.0</ele><time>2026-04-12T08:37:37.966Z</time></trkpt><trkpt lat="45.6890589" lon="9.8883394"><ele>582.7142857142858</ele><time>2026-04-12T08:37:40.978Z</time></trkpt><trkpt lat="45.6890864" lon="9.8882317"><ele>582.4285714285714</ele><time>2026-04-12T08:37:44.966Z</time></trkpt><trkpt lat="45.6891186" lon="9.8881473"><ele>582.1428571428571</ele><time>2026-04-12T08:37:48.951Z</time></trkpt><trkpt lat="45.6891549" lon="9.8880501"><ele>581.8571428571429</ele><time>2026-04-12T08:37:52.98Z</time></trkpt><trkpt lat="45.6892139" lon="9.8880099"><ele>581.5714285714286</ele><time>2026-04-12T08:37:58.968Z</time></trkpt><trkpt lat="45.6892475" lon="9.8879293"><ele>581.2857142857143</ele><time>2026-04-12T08:38:04.963Z</time></trkpt><trkpt lat="45.6892784" lon="9.8878254"><ele>581.0</ele><time>2026-04-12T08:38:18.971Z</time></trkpt><trkpt lat="45.6892826" lon="9.887732"><ele>581.0</ele><time>2026-04-12T08:38:24.975Z</time></trkpt><trkpt lat="45.6892945" lon="9.8876326"><ele>581.0</ele><time>2026-04-12T08:38:27.972Z</time></trkpt><trkpt lat="45.6893038" lon="9.8875109"><ele>581.0</ele><time>2026-04-12T08:38:30.96Z</time></trkpt><trkpt lat="45.6893035" lon="9.8874073"><ele>581.0</ele><time>2026-04-12T08:38:32.96Z</time></trkpt><trkpt lat="45.6893021" lon="9.8873014"><ele>581.0</ele><time>2026-04-12T08:38:34.963Z</time></trkpt><trkpt lat="45.6892982" lon="9.8871951"><ele>581.0</ele><time>2026-04-12T08:38:36.967Z</time></trkpt><trkpt lat="45.6893076" lon="9.8870665"><ele>580.8333333333333</ele><time>2026-04-12T08:38:39.951Z</time></trkpt><trkpt lat="45.6893156" lon="9.8869632"><ele>580.6666666666666</ele><time>2026-04-12T08:38:41.951Z</time></trkpt><trkpt lat="45.689298" lon="9.8868515"><ele>580.5</ele><time>2026-04-12T08:38:44.963Z</time></trkpt><trkpt lat="45.6892833" lon="9.8867401"><ele>580.3333333333334</ele><time>2026-04-12T08:38:48.963Z</time></trkpt><trkpt lat="45.6892968" lon="9.8866472"><ele>580.1666666666667</ele><time>2026-04-12T08:38:51.966Z</time></trkpt><trkpt lat="45.6893186" lon="9.8865497"><ele>580.0</ele><time>2026-04-12T08:38:53.974Z</time></trkpt><trkpt lat="45.6893573" lon="9.8864439"><ele>580.6666666666667</ele><time>2026-04-12T08:38:55.965Z</time></trkpt><trkpt lat="45.689391" lon="9.8863113"><ele>581.3333333333334</ele><time>2026-04-12T08:38:57.977Z</time></trkpt><trkpt lat="45.6894395" lon="9.8862013"><ele>582.0</ele><time>2026-04-12T08:38:59.972Z</time></trkpt><trkpt lat="45.689504" lon="9.8861353"><ele>582.6666666666666</ele><time>2026-04-12T08:39:02.975Z</time></trkpt><trkpt lat="45.6895565" lon="9.8860692"><ele>583.3333333333333</ele><time>2026-04-12T08:39:05.953Z</time></trkpt><trkpt lat="45.6896078" lon="9.8859863"><ele>584.0</ele><time>2026-04-12T08:39:07.972Z</time></trkpt><trkpt lat="45.6896476" lon="9.885891"><ele>585.3333333333333</ele><time>2026-04-12T08:39:09.969Z</time></trkpt><trkpt lat="45.689686" lon="9.8857984"><ele>586.6666666666666</ele><time>2026-04-12T08:39:11.976Z</time></trkpt><trkpt lat="45.6897218" lon="9.8857101"><ele>588.0</ele><time>2026-04-12T08:39:13.963Z</time></trkpt><trkpt lat="45.6897661" lon="9.8856097"><ele>589.3333333333334</ele><time>2026-04-12T08:39:16.958Z</time></trkpt><trkpt lat="45.6898077" lon="9.8854933"><ele>590.6666666666667</ele><time>2026-04-12T08:39:19.959Z</time></trkpt><trkpt lat="45.6898428" lon="9.8854183"><ele>592.0</ele><time>2026-04-12T08:39:21.951Z</time></trkpt><trkpt lat="45.6898805" lon="9.8853315"><ele>592.0</ele><time>2026-04-12T08:39:23.971Z</time></trkpt><trkpt lat="45.6898898" lon="9.8852384"><ele>592.0</ele><time>2026-04-12T08:39:25.965Z</time></trkpt><trkpt lat="45.6899232" lon="9.8851139"><ele>592.0</ele><time>2026-04-12T08:39:28.948Z</time></trkpt><trkpt lat="45.6899681" lon="9.8849926"><ele>592.0</ele><time>2026-04-12T08:39:31.983Z</time></trkpt><trkpt lat="45.6900152" lon="9.8849258"><ele>592.0</ele><time>2026-04-12T08:39:34.97Z</time></trkpt><trkpt lat="45.6900481" lon="9.884831"><ele>592.0</ele><time>2026-04-12T08:39:37.963Z</time></trkpt><trkpt lat="45.6900846" lon="9.8847564"><ele>591.1666666666667</ele><time>2026-04-12T08:39:39.967Z</time></trkpt><trkpt lat="45.6901345" lon="9.8846819"><ele>590.3333333333334</ele><time>2026-04-12T08:39:41.975Z</time></trkpt><trkpt lat="45.6902081" lon="9.8845691"><ele>589.5</ele><time>2026-04-12T08:39:43.957Z</time></trkpt><trkpt lat="45.6902806" lon="9.8844674"><ele>588.6666666666666</ele><time>2026-04-12T08:39:45.951Z</time></trkpt><trkpt lat="45.6903201" lon="9.8843937"><ele>587.8333333333333</ele><time>2026-04-12T08:39:46.961Z</time></trkpt><trkpt lat="45.6903646" lon="9.8843153"><ele>587.0</ele><time>2026-04-12T08:39:47.952Z</time></trkpt><trkpt lat="45.6904134" lon="9.8842219"><ele>589.2857142857143</ele><time>2026-04-12T08:39:48.966Z</time></trkpt><trkpt lat="45.6904651" lon="9.8841309"><ele>591.5714285714287</ele><time>2026-04-12T08:39:49.944Z</time></trkpt><trkpt lat="45.690516" lon="9.8840455"><ele>593.8571428571429</ele><time>2026-04-12T08:39:50.96Z</time></trkpt><trkpt lat="45.6905645" lon="9.88398"><ele>596.1428571428571</ele><time>2026-04-12T08:39:51.974Z</time></trkpt><trkpt lat="45.6906143" lon="9.8838963"><ele>598.4285714285713</ele><time>2026-04-12T08:39:52.97Z</time></trkpt><trkpt lat="45.6906273" lon="9.8837998"><ele>600.7142857142858</ele><time>2026-04-12T08:39:53.97Z</time></trkpt><trkpt lat="45.6906211" lon="9.883696"><ele>603.0</ele><time>2026-04-12T08:39:54.97Z</time></trkpt><trkpt lat="45.6905561" lon="9.8835272"><ele>603.0</ele><time>2026-04-12T08:39:56.951Z</time></trkpt><trkpt lat="45.6905084" lon="9.8834509"><ele>603.0</ele><time>2026-04-12T08:39:57.965Z</time></trkpt><trkpt lat="45.6904591" lon="9.8833841"><ele>603.0</ele><time>2026-04-12T08:39:58.981Z</time></trkpt><trkpt lat="45.6903674" lon="9.883276"><ele>603.0</ele><time>2026-04-12T08:40:00.976Z</time></trkpt><trkpt lat="45.6903062" lon="9.8831298"><ele>603.0</ele><time>2026-04-12T08:40:02.969Z</time></trkpt><trkpt lat="45.690283" lon="9.8830297"><ele>601.0</ele><time>2026-04-12T08:40:03.973Z</time></trkpt><trkpt lat="45.6902622" lon="9.8829037"><ele>599.0</ele><time>2026-04-12T08:40:04.968Z</time></trkpt><trkpt lat="45.690242" lon="9.8828103"><ele>597.0</ele><time>2026-04-12T08:40:05.964Z</time></trkpt><trkpt lat="45.6902234" lon="9.8826432"><ele>595.0</ele><time>2026-04-12T08:40:07.961Z</time></trkpt><trkpt lat="45.690232" lon="9.8824617"><ele>593.0</ele><time>2026-04-12T08:40:09.968Z</time></trkpt><trkpt lat="45.690232" lon="9.8823589"><ele>587.6666666666666</ele><time>2026-04-12T08:40:10.964Z</time></trkpt><trkpt lat="45.6902085" lon="9.8822462"><ele>582.3333333333333</ele><time>2026-04-12T08:40:11.976Z</time></trkpt><trkpt lat="45.6901579" lon="9.8821451"><ele>577.0</ele><time>2026-04-12T08:40:12.969Z</time></trkpt><trkpt lat="45.690112" lon="9.8820546"><ele>571.6666666666666</ele><time>2026-04-12T08:40:13.966Z</time></trkpt><trkpt lat="45.6900786" lon="9.8819458"><ele>566.3333333333334</ele><time>2026-04-12T08:40:14.974Z</time></trkpt><trkpt lat="45.6900586" lon="9.8818376"><ele>561.0</ele><time>2026-04-12T08:40:15.97Z</time></trkpt><trkpt lat="45.6900397" lon="9.8817302"><ele>560.5</ele><time>2026-04-12T08:40:16.949Z</time></trkpt><trkpt lat="45.6900116" lon="9.8816248"><ele>560.0</ele><time>2026-04-12T08:40:17.963Z</time></trkpt><trkpt lat="45.6899779" lon="9.8815241"><ele>559.5</ele><time>2026-04-12T08:40:18.973Z</time></trkpt><trkpt lat="45.6899369" lon="9.881423"><ele>559.0</ele><time>2026-04-12T08:40:19.977Z</time></trkpt><trkpt lat="45.6899023" lon="9.8813198"><ele>558.5</ele><time>2026-04-12T08:40:20.974Z</time></trkpt><trkpt lat="45.6898629" lon="9.8812237"><ele>558.0</ele><time>2026-04-12T08:40:21.953Z</time></trkpt><trkpt lat="45.6898215" lon="9.8811345"><ele>558.0</ele><time>2026-04-12T08:40:22.969Z</time></trkpt><trkpt lat="45.6897865" lon="9.8810529"><ele>558.0</ele><time>2026-04-12T08:40:23.981Z</time></trkpt><trkpt lat="45.6897535" lon="9.8809707"><ele>558.0</ele><time>2026-04-12T08:40:24.981Z</time></trkpt><trkpt lat="45.6897071" lon="9.8808328"><ele>558.0</ele><time>2026-04-12T08:40:26.961Z</time></trkpt><trkpt lat="45.6896773" lon="9.8807119"><ele>558.0</ele><time>2026-04-12T08:40:28.978Z</time></trkpt><trkpt lat="45.6896607" lon="9.8805747"><ele>558.0</ele><time>2026-04-12T08:40:30.973Z</time></trkpt><trkpt lat="45.6896782" lon="9.8803979"><ele>557.8</ele><time>2026-04-12T08:40:32.966Z</time></trkpt><trkpt lat="45.6897467" lon="9.8802722"><ele>557.5999999999999</ele><time>2026-04-12T08:40:34.958Z</time></trkpt><trkpt lat="45.6898291" lon="9.8801555"><ele>557.4000000000001</ele><time>2026-04-12T08:40:36.975Z</time></trkpt><trkpt lat="45.6899133" lon="9.8800462"><ele>557.2</ele><time>2026-04-12T08:40:38.962Z</time></trkpt><trkpt lat="45.6899595" lon="9.8799835"><ele>557.0</ele><time>2026-04-12T08:40:39.975Z</time></trkpt><trkpt lat="45.6900458" lon="9.8798756"><ele>557.0</ele><time>2026-04-12T08:40:41.962Z</time></trkpt><trkpt lat="45.6901165" lon="9.8797561"><ele>557.0</ele><time>2026-04-12T08:40:43.966Z</time></trkpt><trkpt lat="45.6901498" lon="9.8796765"><ele>557.0</ele><time>2026-04-12T08:40:44.967Z</time></trkpt><trkpt lat="45.6901916" lon="9.879509"><ele>557.0</ele><time>2026-04-12T08:40:46.971Z</time></trkpt><trkpt lat="45.6902042" lon="9.8794118"><ele>557.0</ele><time>2026-04-12T08:40:47.977Z</time></trkpt><trkpt lat="45.6902223" lon="9.8793112"><ele>557.0</ele><time>2026-04-12T08:40:49.021Z</time></trkpt><trkpt lat="45.6902307" lon="9.8792107"><ele>555.2857142857143</ele><time>2026-04-12T08:40:49.963Z</time></trkpt><trkpt lat="45.6902209" lon="9.8791019"><ele>553.5714285714286</ele><time>2026-04-12T08:40:50.971Z</time></trkpt><trkpt lat="45.6901948" lon="9.8789926"><ele>551.8571428571429</ele><time>2026-04-12T08:40:51.96Z</time></trkpt><trkpt lat="45.6901674" lon="9.8788748"><ele>550.1428571428571</ele><time>2026-04-12T08:40:52.98Z</time></trkpt><trkpt lat="45.6901716" lon="9.878766"><ele>548.4285714285714</ele><time>2026-04-12T08:40:53.959Z</time></trkpt><trkpt lat="45.6902203" lon="9.8787045"><ele>546.7142857142858</ele><time>2026-04-12T08:40:54.963Z</time></trkpt><trkpt lat="45.6902834" lon="9.8786876"><ele>545.0</ele><time>2026-04-12T08:40:56.034Z</time></trkpt><trkpt lat="45.6903556" lon="9.8787288"><ele>544.0</ele><time>2026-04-12T08:40:57.036Z</time></trkpt><trkpt lat="45.6904317" lon="9.8787908"><ele>543.0</ele><time>2026-04-12T08:40:58.035Z</time></trkpt><trkpt lat="45.6905036" lon="9.8788476"><ele>542.0</ele><time>2026-04-12T08:40:58.967Z</time></trkpt><trkpt lat="45.6905822" lon="9.8788947"><ele>541.0</ele><time>2026-04-12T08:40:59.987Z</time></trkpt><trkpt lat="45.6906658" lon="9.8789644"><ele>540.0</ele><time>2026-04-12T08:41:00.987Z</time></trkpt><trkpt lat="45.6907444" lon="9.8790768"><ele>540.0</ele><time>2026-04-12T08:41:01.98Z</time></trkpt><trkpt lat="45.690813" lon="9.879236"><ele>540.0</ele><time>2026-04-12T08:41:02.986Z</time></trkpt><trkpt lat="45.6908932" lon="9.8793708"><ele>540.0</ele><time>2026-04-12T08:41:04.069Z</time></trkpt><trkpt lat="45.6909879" lon="9.8794814"><ele>540.0</ele><time>2026-04-12T08:41:04.978Z</time></trkpt><trkpt lat="45.691099" lon="9.8795872"><ele>537.0</ele><time>2026-04-12T08:41:06.033Z</time></trkpt><trkpt lat="45.6912066" lon="9.8796584"><ele>534.0</ele><time>2026-04-12T08:41:06.987Z</time></trkpt><trkpt lat="45.6913241" lon="9.879704"><ele>531.0</ele><time>2026-04-12T08:41:07.981Z</time></trkpt><trkpt lat="45.6914574" lon="9.8796961"><ele>528.0</ele><time>2026-04-12T08:41:08.969Z</time></trkpt><trkpt lat="45.6915884" lon="9.8796881"><ele>528.0</ele><time>2026-04-12T08:41:09.979Z</time></trkpt><trkpt lat="45.6917109" lon="9.8796855"><ele>528.0</ele><time>2026-04-12T08:41:10.978Z</time></trkpt><trkpt lat="45.6918286" lon="9.8796903"><ele>528.0</ele><time>2026-04-12T08:41:11.986Z</time></trkpt><trkpt lat="45.691939" lon="9.8796863"><ele>528.0</ele><time>2026-04-12T08:41:13.03Z</time></trkpt><trkpt lat="45.6920505" lon="9.8796737"><ele>526.4</ele><time>2026-04-12T08:41:13.978Z</time></trkpt><trkpt lat="45.6921521" lon="9.8796099"><ele>524.8</ele><time>2026-04-12T08:41:14.967Z</time></trkpt><trkpt lat="45.6922259" lon="9.8794855"><ele>523.2</ele><time>2026-04-12T08:41:15.984Z</time></trkpt><trkpt lat="45.6922875" lon="9.87935"><ele>521.6</ele><time>2026-04-12T08:41:16.976Z</time></trkpt><trkpt lat="45.6923432" lon="9.879225"><ele>520.0</ele><time>2026-04-12T08:41:17.965Z</time></trkpt><trkpt lat="45.6924056" lon="9.8790853"><ele>520.0</ele><time>2026-04-12T08:41:18.973Z</time></trkpt><trkpt lat="45.6924591" lon="9.8789535"><ele>520.0</ele><time>2026-04-12T08:41:19.984Z</time></trkpt><trkpt lat="45.6925185" lon="9.8788264"><ele>520.0</ele><time>2026-04-12T08:41:21.047Z</time></trkpt><trkpt lat="45.6925688" lon="9.8787085"><ele>520.0</ele><time>2026-04-12T08:41:22.034Z</time></trkpt><trkpt lat="45.6926143" lon="9.8785988"><ele>520.0</ele><time>2026-04-12T08:41:23.033Z</time></trkpt><trkpt lat="45.6926531" lon="9.8784865"><ele>520.1666666666667</ele><time>2026-04-12T08:41:23.977Z</time></trkpt><trkpt lat="45.6926761" lon="9.8783808"><ele>520.3333333333334</ele><time>2026-04-12T08:41:24.976Z</time></trkpt><trkpt lat="45.6926873" lon="9.878273"><ele>520.5</ele><time>2026-04-12T08:41:25.973Z</time></trkpt><trkpt lat="45.6926746" lon="9.8781636"><ele>520.6666666666666</ele><time>2026-04-12T08:41:26.978Z</time></trkpt><trkpt lat="45.6926634" lon="9.8780621"><ele>520.8333333333333</ele><time>2026-04-12T08:41:27.976Z</time></trkpt><trkpt lat="45.6926512" lon="9.8779699"><ele>521.0</ele><time>2026-04-12T08:41:28.977Z</time></trkpt><trkpt lat="45.6926427" lon="9.8778011"><ele>521.0</ele><time>2026-04-12T08:41:30.98Z</time></trkpt><trkpt lat="45.6926452" lon="9.8776615"><ele>521.0</ele><time>2026-04-12T08:41:32.988Z</time></trkpt><trkpt lat="45.6926573" lon="9.877552"><ele>521.0</ele><time>2026-04-12T08:41:34.957Z</time></trkpt><trkpt lat="45.6926738" lon="9.8774556"><ele>521.0</ele><time>2026-04-12T08:41:36.98Z</time></trkpt><trkpt lat="45.6926905" lon="9.8773291"><ele>521.0</ele><time>2026-04-12T08:41:38.986Z</time></trkpt><trkpt lat="45.6927149" lon="9.8772254"><ele>521.0</ele><time>2026-04-12T08:41:40.973Z</time></trkpt><trkpt lat="45.6927467" lon="9.8771041"><ele>521.4</ele><time>2026-04-12T08:41:42.983Z</time></trkpt><trkpt lat="45.6927821" lon="9.8769833"><ele>521.8</ele><time>2026-04-12T08:41:44.981Z</time></trkpt><trkpt lat="45.692829" lon="9.8768692"><ele>522.1999999999999</ele><time>2026-04-12T08:41:46.982Z</time></trkpt><trkpt lat="45.6928832" lon="9.8767387"><ele>522.6</ele><time>2026-04-12T08:41:48.969Z</time></trkpt><trkpt lat="45.6929291" lon="9.8766131"><ele>523.0</ele><time>2026-04-12T08:41:50.973Z</time></trkpt><trkpt lat="45.6929687" lon="9.8764739"><ele>523.0</ele><time>2026-04-12T08:41:52.974Z</time></trkpt><trkpt lat="45.6930303" lon="9.8763414"><ele>523.0</ele><time>2026-04-12T08:41:54.983Z</time></trkpt><trkpt lat="45.6930834" lon="9.8762091"><ele>523.0</ele><time>2026-04-12T08:41:56.974Z</time></trkpt><trkpt lat="45.6931499" lon="9.8760782"><ele>523.0</ele><time>2026-04-12T08:41:58.974Z</time></trkpt><trkpt lat="45.693223" lon="9.8759464"><ele>523.0</ele><time>2026-04-12T08:42:00.97Z</time></trkpt><trkpt lat="45.6932964" lon="9.8758187"><ele>522.4</ele><time>2026-04-12T08:42:02.97Z</time></trkpt><trkpt lat="45.6933563" lon="9.8756963"><ele>521.8</ele><time>2026-04-12T08:42:04.974Z</time></trkpt><trkpt lat="45.6934227" lon="9.8756172"><ele>521.2</ele><time>2026-04-12T08:42:06.971Z</time></trkpt><trkpt lat="45.6934895" lon="9.8755524"><ele>520.6</ele><time>2026-04-12T08:42:08.974Z</time></trkpt><trkpt lat="45.693564" lon="9.8754657"><ele>520.0</ele><time>2026-04-12T08:42:10.975Z</time></trkpt><trkpt lat="45.6936444" lon="9.8753876"><ele>518.0</ele><time>2026-04-12T08:42:12.979Z</time></trkpt><trkpt lat="45.6937089" lon="9.8752964"><ele>516.0</ele><time>2026-04-12T08:42:14.98Z</time></trkpt><trkpt lat="45.6937866" lon="9.8752059"><ele>514.0</ele><time>2026-04-12T08:42:16.984Z</time></trkpt><trkpt lat="45.6938643" lon="9.8750914"><ele>512.0</ele><time>2026-04-12T08:42:18.978Z</time></trkpt><trkpt lat="45.6939109" lon="9.8750293"><ele>510.0</ele><time>2026-04-12T08:42:19.983Z</time></trkpt><trkpt lat="45.6940013" lon="9.8748873"><ele>510.0</ele><time>2026-04-12T08:42:21.973Z</time></trkpt><trkpt lat="45.6940507" lon="9.8747908"><ele>510.0</ele><time>2026-04-12T08:42:22.959Z</time></trkpt><trkpt lat="45.694102" lon="9.8746864"><ele>510.0</ele><time>2026-04-12T08:42:23.976Z</time></trkpt><trkpt lat="45.694146" lon="9.874569"><ele>510.0</ele><time>2026-04-12T08:42:24.956Z</time></trkpt><trkpt lat="45.6941826" lon="9.8744347"><ele>510.0</ele><time>2026-04-12T08:42:25.962Z</time></trkpt><trkpt lat="45.6942234" lon="9.874289"><ele>510.0</ele><time>2026-04-12T08:42:26.981Z</time></trkpt><trkpt lat="45.6942727" lon="9.8741321"><ele>510.0</ele><time>2026-04-12T08:42:27.976Z</time></trkpt><trkpt lat="45.6943351" lon="9.8739763"><ele>510.0</ele><time>2026-04-12T08:42:28.978Z</time></trkpt><trkpt lat="45.6944272" lon="9.8738435"><ele>510.0</ele><time>2026-04-12T08:42:29.97Z</time></trkpt><trkpt lat="45.6945491" lon="9.8737182"><ele>504.5</ele><time>2026-04-12T08:42:31.065Z</time></trkpt><trkpt lat="45.6946622" lon="9.873613"><ele>499.0</ele><time>2026-04-12T08:42:32.037Z</time></trkpt><trkpt lat="45.6947891" lon="9.8735274"><ele>493.5</ele><time>2026-04-12T08:42:33.05Z</time></trkpt><trkpt lat="45.694894" lon="9.8734436"><ele>488.0</ele><time>2026-04-12T08:42:34.035Z</time></trkpt><trkpt lat="45.6950029" lon="9.8733765"><ele>487.3333333333333</ele><time>2026-04-12T08:42:34.963Z</time></trkpt><trkpt lat="45.6950979" lon="9.8733209"><ele>486.66666666666663</ele><time>2026-04-12T08:42:35.971Z</time></trkpt><trkpt lat="45.6951836" lon="9.8732786"><ele>486.0</ele><time>2026-04-12T08:42:36.972Z</time></trkpt><trkpt lat="45.6952541" lon="9.8732515"><ele>485.33333333333337</ele><time>2026-04-12T08:42:37.972Z</time></trkpt><trkpt lat="45.6953463" lon="9.8731926"><ele>484.6666666666667</ele><time>2026-04-12T08:42:39.958Z</time></trkpt><trkpt lat="45.6953691" lon="9.8730805"><ele>484.0</ele><time>2026-04-12T08:42:41.959Z</time></trkpt><trkpt lat="45.6953037" lon="9.8729859"><ele>484.0</ele><time>2026-04-12T08:42:43.965Z</time></trkpt><trkpt lat="45.6952352" lon="9.8728972"><ele>484.0</ele><time>2026-04-12T08:42:45.956Z</time></trkpt><trkpt lat="45.6951596" lon="9.8728096"><ele>484.0</ele><time>2026-04-12T08:42:47.972Z</time></trkpt><trkpt lat="45.6950633" lon="9.8727599"><ele>484.0</ele><time>2026-04-12T08:42:49.976Z</time></trkpt><trkpt lat="45.6949741" lon="9.8727016"><ele>484.0</ele><time>2026-04-12T08:42:51.97Z</time></trkpt><trkpt lat="45.6949166" lon="9.8726615"><ele>484.0</ele><time>2026-04-12T08:42:52.975Z</time></trkpt><trkpt lat="45.694853" lon="9.872625"><ele>483.99999999999994</ele><time>2026-04-12T08:42:53.974Z</time></trkpt><trkpt lat="45.6947876" lon="9.8725843"><ele>484.0</ele><time>2026-04-12T08:42:54.976Z</time></trkpt><trkpt lat="45.6947228" lon="9.8725401"><ele>484.0</ele><time>2026-04-12T08:42:55.977Z</time></trkpt><trkpt lat="45.6946672" lon="9.8724734"><ele>483.99999999999994</ele><time>2026-04-12T08:42:56.963Z</time></trkpt><trkpt lat="45.6946343" lon="9.8723801"><ele>484.0</ele><time>2026-04-12T08:42:57.975Z</time></trkpt><trkpt lat="45.6946207" lon="9.872286"><ele>484.0</ele><time>2026-04-12T08:42:58.974Z</time></trkpt><trkpt lat="45.6946127" lon="9.872182"><ele>482.83333333333337</ele><time>2026-04-12T08:42:59.977Z</time></trkpt><trkpt lat="45.6946122" lon="9.8720831"><ele>481.6666666666667</ele><time>2026-04-12T08:43:00.972Z</time></trkpt><trkpt lat="45.6946084" lon="9.8719839"><ele>480.5</ele><time>2026-04-12T08:43:02.032Z</time></trkpt><trkpt lat="45.6946018" lon="9.8718919"><ele>479.33333333333337</ele><time>2026-04-12T08:43:03.033Z</time></trkpt><trkpt lat="45.6945861" lon="9.8717066"><ele>478.1666666666667</ele><time>2026-04-12T08:43:04.976Z</time></trkpt><trkpt lat="45.6945823" lon="9.8716107"><ele>477.0</ele><time>2026-04-12T08:43:05.982Z</time></trkpt><trkpt lat="45.6945856" lon="9.8714307"><ele>476.3333333333333</ele><time>2026-04-12T08:43:08.055Z</time></trkpt><trkpt lat="45.6945886" lon="9.8712648"><ele>475.66666666666663</ele><time>2026-04-12T08:43:09.967Z</time></trkpt><trkpt lat="45.6945617" lon="9.8711332"><ele>475.0</ele><time>2026-04-12T08:43:11.953Z</time></trkpt><trkpt lat="45.6945325" lon="9.8710445"><ele>474.3333333333333</ele><time>2026-04-12T08:43:12.962Z</time></trkpt><trkpt lat="45.6945051" lon="9.870957"><ele>473.66666666666663</ele><time>2026-04-12T08:43:13.978Z</time></trkpt><trkpt lat="45.6944818" lon="9.8708695"><ele>473.0</ele><time>2026-04-12T08:43:14.973Z</time></trkpt><trkpt lat="45.6944891" lon="9.8707638"><ele>472.99999999999994</ele><time>2026-04-12T08:43:17.977Z</time></trkpt><trkpt lat="45.6945445" lon="9.8708136"><ele>473.0</ele><time>2026-04-12T08:43:21.974Z</time></trkpt><trkpt lat="45.6946061" lon="9.8708432"><ele>473.0</ele><time>2026-04-12T08:43:23.962Z</time></trkpt><trkpt lat="45.6947161" lon="9.8708837"><ele>473.0</ele><time>2026-04-12T08:43:25.974Z</time></trkpt><trkpt lat="45.6947947" lon="9.8709289"><ele>472.99999999999994</ele><time>2026-04-12T08:43:26.975Z</time></trkpt><trkpt lat="45.6948704" lon="9.8710524"><ele>473.0</ele><time>2026-04-12T08:43:29.039Z</time></trkpt><trkpt lat="45.6949202" lon="9.8712002"><ele>473.0</ele><time>2026-04-12T08:43:30.974Z</time></trkpt><trkpt lat="45.6949538" lon="9.8712908"><ele>472.99999999999994</ele><time>2026-04-12T08:43:31.974Z</time></trkpt><trkpt lat="45.69498" lon="9.8713866"><ele>472.99999999999994</ele><time>2026-04-12T08:43:32.98Z</time></trkpt><trkpt lat="45.6950182" lon="9.8715085"><ele>473.0</ele><time>2026-04-12T08:43:34.956Z</time></trkpt><trkpt lat="45.6951125" lon="9.8714383"><ele>473.0</ele><time>2026-04-12T08:43:37.983Z</time></trkpt><trkpt lat="45.6952165" lon="9.8713498"><ele>471.16666666666663</ele><time>2026-04-12T08:43:39.989Z</time></trkpt><trkpt lat="45.6953197" lon="9.8713311"><ele>469.3333333333333</ele><time>2026-04-12T08:43:41.972Z</time></trkpt><trkpt lat="45.6953921" lon="9.8713537"><ele>467.5</ele><time>2026-04-12T08:43:43.979Z</time></trkpt><trkpt lat="45.6954696" lon="9.8714049"><ele>465.66666666666663</ele><time>2026-04-12T08:43:45.985Z</time></trkpt><trkpt lat="45.6955052" lon="9.8715204"><ele>463.8333333333333</ele><time>2026-04-12T08:43:47.971Z</time></trkpt><trkpt lat="45.6955514" lon="9.8716251"><ele>462.0</ele><time>2026-04-12T08:43:49.979Z</time></trkpt><trkpt lat="45.69561" lon="9.8717199"><ele>463.8</ele><time>2026-04-12T08:43:51.99Z</time></trkpt><trkpt lat="45.695672" lon="9.8717795"><ele>465.6</ele><time>2026-04-12T08:43:52.983Z</time></trkpt><trkpt lat="45.6957769" lon="9.871887"><ele>467.40000000000003</ele><time>2026-04-12T08:43:54.973Z</time></trkpt><trkpt lat="45.6958609" lon="9.8720085"><ele>469.20000000000005</ele><time>2026-04-12T08:43:56.975Z</time></trkpt><trkpt lat="45.6959151" lon="9.8720597"><ele>471.0</ele><time>2026-04-12T08:43:57.98Z</time></trkpt><trkpt lat="45.6959794" lon="9.872101"><ele>471.0</ele><time>2026-04-12T08:43:58.983Z</time></trkpt><trkpt lat="45.6960852" lon="9.8721893"><ele>471.0</ele><time>2026-04-12T08:44:00.957Z</time></trkpt><trkpt lat="45.6961572" lon="9.8722925"><ele>471.0</ele><time>2026-04-12T08:44:02.976Z</time></trkpt><trkpt lat="45.696232" lon="9.8723968"><ele>471.0</ele><time>2026-04-12T08:44:04.98Z</time></trkpt><trkpt lat="45.6963156" lon="9.8724858"><ele>471.0</ele><time>2026-04-12T08:44:06.969Z</time></trkpt><trkpt lat="45.6963989" lon="9.8725612"><ele>470.1666666666667</ele><time>2026-04-12T08:44:08.965Z</time></trkpt><trkpt lat="45.6964903" lon="9.8725932"><ele>469.33333333333337</ele><time>2026-04-12T08:44:10.983Z</time></trkpt><trkpt lat="45.6965575" lon="9.8726073"><ele>468.5</ele><time>2026-04-12T08:44:12.978Z</time></trkpt><trkpt lat="45.6966265" lon="9.8725904"><ele>467.6666666666667</ele><time>2026-04-12T08:44:15.974Z</time></trkpt><trkpt lat="45.6967117" lon="9.872536"><ele>466.83333333333337</ele><time>2026-04-12T08:44:18.967Z</time></trkpt><trkpt lat="45.6967896" lon="9.8725211"><ele>466.0</ele><time>2026-04-12T08:44:20.974Z</time></trkpt><trkpt lat="45.6968851" lon="9.8725008"><ele>463.33333333333337</ele><time>2026-04-12T08:44:22.978Z</time></trkpt><trkpt lat="45.6969624" lon="9.8724958"><ele>460.6666666666667</ele><time>2026-04-12T08:44:24.977Z</time></trkpt><trkpt lat="45.6970481" lon="9.8724964"><ele>458.0</ele><time>2026-04-12T08:44:26.978Z</time></trkpt><trkpt lat="45.6971288" lon="9.8724934"><ele>455.33333333333337</ele><time>2026-04-12T08:44:28.981Z</time></trkpt><trkpt lat="45.6972223" lon="9.872478"><ele>452.6666666666667</ele><time>2026-04-12T08:44:31.967Z</time></trkpt><trkpt lat="45.6973051" lon="9.8724662"><ele>450.0</ele><time>2026-04-12T08:44:33.963Z</time></trkpt><trkpt lat="45.6973876" lon="9.872477"><ele>450.0</ele><time>2026-04-12T08:44:35.976Z</time></trkpt><trkpt lat="45.6974797" lon="9.8725121"><ele>450.0</ele><time>2026-04-12T08:44:37.977Z</time></trkpt><trkpt lat="45.6975843" lon="9.8725438"><ele>450.0</ele><time>2026-04-12T08:44:39.973Z</time></trkpt><trkpt lat="45.6976765" lon="9.8726162"><ele>450.0</ele><time>2026-04-12T08:44:42.034Z</time></trkpt><trkpt lat="45.6977654" lon="9.8726974"><ele>450.0</ele><time>2026-04-12T08:44:43.993Z</time></trkpt><trkpt lat="45.6978206" lon="9.8727445"><ele>447.8333333333333</ele><time>2026-04-12T08:44:45.972Z</time></trkpt><trkpt lat="45.6978888" lon="9.8727942"><ele>445.66666666666663</ele><time>2026-04-12T08:44:47.968Z</time></trkpt><trkpt lat="45.6979567" lon="9.8728513"><ele>443.5</ele><time>2026-04-12T08:44:49.975Z</time></trkpt><trkpt lat="45.6980186" lon="9.8729425"><ele>441.3333333333333</ele><time>2026-04-12T08:44:52.047Z</time></trkpt><trkpt lat="45.6980857" lon="9.8730017"><ele>439.16666666666663</ele><time>2026-04-12T08:44:54.97Z</time></trkpt><trkpt lat="45.6981337" lon="9.8730644"><ele>437.0</ele><time>2026-04-12T08:44:56.968Z</time></trkpt><trkpt lat="45.6981779" lon="9.8731653"><ele>436.99999999999994</ele><time>2026-04-12T08:44:58.966Z</time></trkpt><trkpt lat="45.6982338" lon="9.8732522"><ele>437.0</ele><time>2026-04-12T08:45:00.974Z</time></trkpt><trkpt lat="45.6982947" lon="9.8733215"><ele>437.0</ele><time>2026-04-12T08:45:02.993Z</time></trkpt><trkpt lat="45.6983554" lon="9.8733862"><ele>437.0</ele><time>2026-04-12T08:45:04.971Z</time></trkpt><trkpt lat="45.6983989" lon="9.8734627"><ele>436.99999999999994</ele><time>2026-04-12T08:45:06.969Z</time></trkpt><trkpt lat="45.6984645" lon="9.8735533"><ele>437.0</ele><time>2026-04-12T08:45:09.954Z</time></trkpt><trkpt lat="45.6985154" lon="9.8736076"><ele>435.3333333333333</ele><time>2026-04-12T08:45:12.042Z</time></trkpt><trkpt lat="45.6985805" lon="9.8736919"><ele>433.66666666666663</ele><time>2026-04-12T08:45:14.973Z</time></trkpt><trkpt lat="45.6986509" lon="9.8737664"><ele>432.0</ele><time>2026-04-12T08:45:17.985Z</time></trkpt><trkpt lat="45.6987065" lon="9.87382"><ele>430.33333333333337</ele><time>2026-04-12T08:45:19.97Z</time></trkpt><trkpt lat="45.6987503" lon="9.8738925"><ele>428.6666666666667</ele><time>2026-04-12T08:45:21.986Z</time></trkpt><trkpt lat="45.698792" lon="9.873981"><ele>427.0</ele><time>2026-04-12T08:45:24.976Z</time></trkpt><trkpt lat="45.6987995" lon="9.8740768"><ele>424.00000000000006</ele><time>2026-04-12T08:45:26.957Z</time></trkpt><trkpt lat="45.6987808" lon="9.8741865"><ele>421.0</ele><time>2026-04-12T08:45:28.978Z</time></trkpt><trkpt lat="45.6987336" lon="9.8743097"><ele>418.0</ele><time>2026-04-12T08:45:31.044Z</time></trkpt><trkpt lat="45.698707" lon="9.8744307"><ele>415.0</ele><time>2026-04-12T08:45:33.033Z</time></trkpt><trkpt lat="45.6987021" lon="9.8745631"><ele>412.00000000000006</ele><time>2026-04-12T08:45:35.978Z</time></trkpt><trkpt lat="45.6987546" lon="9.8746457"><ele>409.0</ele><time>2026-04-12T08:45:38.976Z</time></trkpt><trkpt lat="45.6988085" lon="9.8747147"><ele>407.33333333333337</ele><time>2026-04-12T08:45:40.972Z</time></trkpt><trkpt lat="45.6988666" lon="9.8747871"><ele>405.6666666666667</ele><time>2026-04-12T08:45:43.037Z</time></trkpt><trkpt lat="45.6989485" lon="9.8747786"><ele>404.0</ele><time>2026-04-12T08:45:45.986Z</time></trkpt><trkpt lat="45.699016" lon="9.8747998"><ele>402.33333333333337</ele><time>2026-04-12T08:45:47.973Z</time></trkpt><trkpt lat="45.6991038" lon="9.8748248"><ele>400.6666666666667</ele><time>2026-04-12T08:45:49.969Z</time></trkpt><trkpt lat="45.6991954" lon="9.8748938"><ele>399.0</ele><time>2026-04-12T08:45:52.036Z</time></trkpt><trkpt lat="45.6992877" lon="9.8749639"><ele>399.0</ele><time>2026-04-12T08:45:53.955Z</time></trkpt><trkpt lat="45.6993617" lon="9.8749137"><ele>399.0</ele><time>2026-04-12T08:45:55.967Z</time></trkpt><trkpt lat="45.699459" lon="9.8748647"><ele>399.0</ele><time>2026-04-12T08:45:57.936Z</time></trkpt><trkpt lat="45.6995318" lon="9.8748261"><ele>399.0</ele><time>2026-04-12T08:45:59.953Z</time></trkpt><trkpt lat="45.6996" lon="9.8747846"><ele>399.0</ele><time>2026-04-12T08:46:00.97Z</time></trkpt><trkpt lat="45.6996802" lon="9.8747102"><ele>399.0</ele><time>2026-04-12T08:46:02.974Z</time></trkpt><trkpt lat="45.6997149" lon="9.8746288"><ele>396.5</ele><time>2026-04-12T08:46:04.969Z</time></trkpt><trkpt lat="45.6996909" lon="9.8745357"><ele>394.0</ele><time>2026-04-12T08:46:08.955Z</time></trkpt><trkpt lat="45.6996165" lon="9.8744309"><ele>391.5</ele><time>2026-04-12T08:46:12.027Z</time></trkpt><trkpt lat="45.6995844" lon="9.8743403"><ele>389.0</ele><time>2026-04-12T08:46:13.954Z</time></trkpt><trkpt lat="45.699602" lon="9.874243"><ele>386.5</ele><time>2026-04-12T08:46:15.964Z</time></trkpt><trkpt lat="45.6996109" lon="9.8741529"><ele>384.0</ele><time>2026-04-12T08:46:17.971Z</time></trkpt><trkpt lat="45.6996175" lon="9.8740486"><ele>383.99999999999994</ele><time>2026-04-12T08:46:19.958Z</time></trkpt><trkpt lat="45.6996096" lon="9.8739471"><ele>384.0</ele><time>2026-04-12T08:46:21.948Z</time></trkpt><trkpt lat="45.699589" lon="9.873842"><ele>384.0</ele><time>2026-04-12T08:46:24.972Z</time></trkpt><trkpt lat="45.6995794" lon="9.8737397"><ele>384.0</ele><time>2026-04-12T08:46:28.968Z</time></trkpt><trkpt lat="45.6995832" lon="9.8736472"><ele>384.0</ele><time>2026-04-12T08:46:32.951Z</time></trkpt><trkpt lat="45.699591" lon="9.8735489"><ele>383.99999999999994</ele><time>2026-04-12T08:46:35.962Z</time></trkpt><trkpt lat="45.6996017" lon="9.8734431"><ele>384.0</ele><time>2026-04-12T08:46:39.964Z</time></trkpt><trkpt lat="45.6996266" lon="9.8733555"><ele>386.1666666666667</ele><time>2026-04-12T08:46:42.965Z</time></trkpt><trkpt lat="45.6996505" lon="9.8732608"><ele>388.33333333333337</ele><time>2026-04-12T08:46:45.944Z</time></trkpt><trkpt lat="45.6996859" lon="9.8731288"><ele>390.5</ele><time>2026-04-12T08:46:52.965Z</time></trkpt><trkpt lat="45.6997459" lon="9.8730745"><ele>392.6666666666667</ele><time>2026-04-12T08:46:55.962Z</time></trkpt><trkpt lat="45.6998027" lon="9.8729919"><ele>394.83333333333337</ele><time>2026-04-12T08:46:58.969Z</time></trkpt><trkpt lat="45.6998452" lon="9.8729246"><ele>397.0</ele><time>2026-04-12T08:47:00.966Z</time></trkpt><trkpt lat="45.6998944" lon="9.8728348"><ele>397.00000000000006</ele><time>2026-04-12T08:47:03.966Z</time></trkpt><trkpt lat="45.6999714" lon="9.8727889"><ele>397.0</ele><time>2026-04-12T08:47:06.97Z</time></trkpt><trkpt lat="45.7000325" lon="9.8727324"><ele>397.0</ele><time>2026-04-12T08:47:08.957Z</time></trkpt><trkpt lat="45.7001026" lon="9.872685"><ele>397.0</ele><time>2026-04-12T08:47:10.962Z</time></trkpt><trkpt lat="45.7001655" lon="9.8726188"><ele>397.00000000000006</ele><time>2026-04-12T08:47:12.968Z</time></trkpt><trkpt lat="45.7002507" lon="9.8724854"><ele>397.0</ele><time>2026-04-12T08:47:14.968Z</time></trkpt><trkpt lat="45.7003078" lon="9.8723936"><ele>395.83333333333337</ele><time>2026-04-12T08:47:16.967Z</time></trkpt><trkpt lat="45.7003856" lon="9.8723182"><ele>394.6666666666667</ele><time>2026-04-12T08:47:18.966Z</time></trkpt><trkpt lat="45.7004509" lon="9.8722378"><ele>393.5</ele><time>2026-04-12T08:47:20.966Z</time></trkpt><trkpt lat="45.7005166" lon="9.8721596"><ele>392.33333333333337</ele><time>2026-04-12T08:47:22.968Z</time></trkpt><trkpt lat="45.7005821" lon="9.8720788"><ele>391.1666666666667</ele><time>2026-04-12T08:47:24.974Z</time></trkpt><trkpt lat="45.7006587" lon="9.87202"><ele>390.0</ele><time>2026-04-12T08:47:26.971Z</time></trkpt><trkpt lat="45.7007322" lon="9.8719524"><ele>390.0</ele><time>2026-04-12T08:47:28.964Z</time></trkpt><trkpt lat="45.7007967" lon="9.8718909"><ele>390.0</ele><time>2026-04-12T08:47:30.979Z</time></trkpt><trkpt lat="45.7008675" lon="9.8717918"><ele>390.0</ele><time>2026-04-12T08:47:32.942Z</time></trkpt><trkpt lat="45.7009495" lon="9.8716972"><ele>390.0</ele><time>2026-04-12T08:47:34.964Z</time></trkpt><trkpt lat="45.7010426" lon="9.8716319"><ele>390.0</ele><time>2026-04-12T08:47:36.963Z</time></trkpt><trkpt lat="45.7011242" lon="9.8715518"><ele>387.5</ele><time>2026-04-12T08:47:38.967Z</time></trkpt><trkpt lat="45.701195" lon="9.8714857"><ele>385.0</ele><time>2026-04-12T08:47:39.958Z</time></trkpt><trkpt lat="45.7012565" lon="9.8714367"><ele>382.5</ele><time>2026-04-12T08:47:40.959Z</time></trkpt><trkpt lat="45.7013169" lon="9.871362"><ele>380.0</ele><time>2026-04-12T08:47:41.972Z</time></trkpt><trkpt lat="45.7014025" lon="9.8712758"><ele>377.5</ele><time>2026-04-12T08:47:43.96Z</time></trkpt><trkpt lat="45.7014813" lon="9.8712011"><ele>375.0</ele><time>2026-04-12T08:47:45.969Z</time></trkpt><trkpt lat="45.7015921" lon="9.8710788"><ele>375.0</ele><time>2026-04-12T08:47:47.966Z</time></trkpt><trkpt lat="45.7016457" lon="9.8710121"><ele>375.0</ele><time>2026-04-12T08:47:48.974Z</time></trkpt><trkpt lat="45.7016896" lon="9.870944"><ele>375.0</ele><time>2026-04-12T08:47:49.966Z</time></trkpt><trkpt lat="45.7017817" lon="9.8708091"><ele>375.0</ele><time>2026-04-12T08:47:52.032Z</time></trkpt><trkpt lat="45.7018733" lon="9.87069"><ele>375.0</ele><time>2026-04-12T08:47:54.039Z</time></trkpt><trkpt lat="45.7019528" lon="9.8705512"><ele>371.6666666666667</ele><time>2026-04-12T08:47:55.967Z</time></trkpt><trkpt lat="45.7019965" lon="9.8704572"><ele>368.3333333333333</ele><time>2026-04-12T08:47:56.942Z</time></trkpt><trkpt lat="45.702044" lon="9.8703835"><ele>365.0</ele><time>2026-04-12T08:47:57.954Z</time></trkpt><trkpt lat="45.7020941" lon="9.8703083"><ele>361.66666666666663</ele><time>2026-04-12T08:47:58.963Z</time></trkpt><trkpt lat="45.7021562" lon="9.8701926"><ele>358.3333333333333</ele><time>2026-04-12T08:48:00.966Z</time></trkpt><trkpt lat="45.7022073" lon="9.8700764"><ele>355.0</ele><time>2026-04-12T08:48:02.97Z</time></trkpt><trkpt lat="45.7022586" lon="9.8700134"><ele>355.0</ele><time>2026-04-12T08:48:04.977Z</time></trkpt><trkpt lat="45.7022836" lon="9.8699146"><ele>355.0</ele><time>2026-04-12T08:48:06.976Z</time></trkpt><trkpt lat="45.7023449" lon="9.8698354"><ele>355.0</ele><time>2026-04-12T08:48:08.976Z</time></trkpt><trkpt lat="45.7024157" lon="9.8697551"><ele>355.0</ele><time>2026-04-12T08:48:10.976Z</time></trkpt><trkpt lat="45.7024675" lon="9.8696931"><ele>355.0</ele><time>2026-04-12T08:48:12.042Z</time></trkpt><trkpt lat="45.7025282" lon="9.8696385"><ele>355.0</ele><time>2026-04-12T08:48:13.031Z</time></trkpt><trkpt lat="45.7025781" lon="9.8695794"><ele>355.0</ele><time>2026-04-12T08:48:13.984Z</time></trkpt><trkpt lat="45.7026783" lon="9.869493"><ele>355.0</ele><time>2026-04-12T08:48:15.976Z</time></trkpt><trkpt lat="45.7027663" lon="9.8694381"><ele>355.0</ele><time>2026-04-12T08:48:17.973Z</time></trkpt><trkpt lat="45.7028068" lon="9.8693286"><ele>355.0</ele><time>2026-04-12T08:48:19.955Z</time></trkpt><trkpt lat="45.7028364" lon="9.8692317"><ele>355.0</ele><time>2026-04-12T08:48:20.95Z</time></trkpt><trkpt lat="45.7028776" lon="9.8691402"><ele>355.0</ele><time>2026-04-12T08:48:21.971Z</time></trkpt><trkpt lat="45.7029458" lon="9.8690417"><ele>351.0</ele><time>2026-04-12T08:48:23.984Z</time></trkpt><trkpt lat="45.7030345" lon="9.8690395"><ele>347.0</ele><time>2026-04-12T08:48:27.034Z</time></trkpt><trkpt lat="45.7031029" lon="9.8689651"><ele>343.0</ele><time>2026-04-12T08:48:28.964Z</time></trkpt><trkpt lat="45.7031402" lon="9.8688831"><ele>339.0</ele><time>2026-04-12T08:48:29.974Z</time></trkpt><trkpt lat="45.7031635" lon="9.8687967"><ele>335.0</ele><time>2026-04-12T08:48:30.955Z</time></trkpt><trkpt lat="45.7031997" lon="9.8687148"><ele>331.0</ele><time>2026-04-12T08:48:32.957Z</time></trkpt><trkpt lat="45.7032396" lon="9.8686204"><ele>331.0</ele><time>2026-04-12T08:48:34.962Z</time></trkpt><trkpt lat="45.70333" lon="9.8684577"><ele>331.0</ele><time>2026-04-12T08:48:36.974Z</time></trkpt><trkpt lat="45.7033808" lon="9.8683662"><ele>331.0</ele><time>2026-04-12T08:48:37.957Z</time></trkpt><trkpt lat="45.703414" lon="9.8682751"><ele>331.0</ele><time>2026-04-12T08:48:38.961Z</time></trkpt><trkpt lat="45.7034448" lon="9.8681703"><ele>331.0</ele><time>2026-04-12T08:48:39.973Z</time></trkpt><trkpt lat="45.7034584" lon="9.8680526"><ele>331.0</ele><time>2026-04-12T08:48:40.975Z</time></trkpt><trkpt lat="45.7034671" lon="9.8679576"><ele>331.0</ele><time>2026-04-12T08:48:41.966Z</time></trkpt><trkpt lat="45.7034951" lon="9.8678724"><ele>331.0</ele><time>2026-04-12T08:48:42.956Z</time></trkpt><trkpt lat="45.7035512" lon="9.8677291"><ele>331.0</ele><time>2026-04-12T08:48:44.967Z</time></trkpt><trkpt lat="45.7035943" lon="9.8676046"><ele>331.0</ele><time>2026-04-12T08:48:47.045Z</time></trkpt><trkpt lat="45.7036264" lon="9.8675143"><ele>331.0</ele><time>2026-04-12T08:48:48.981Z</time></trkpt><trkpt lat="45.7036117" lon="9.867416"><ele>324.66666666666663</ele><time>2026-04-12T08:48:50.985Z</time></trkpt><trkpt lat="45.7036057" lon="9.8673231"><ele>318.3333333333333</ele><time>2026-04-12T08:49:10.955Z</time></trkpt><trkpt lat="45.7036324" lon="9.8672263"><ele>312.0</ele><time>2026-04-12T08:49:20.968Z</time></trkpt><trkpt lat="45.7036314" lon="9.8670987"><ele>305.6666666666667</ele><time>2026-04-12T08:49:22.972Z</time></trkpt><trkpt lat="45.7036487" lon="9.8669389"><ele>299.33333333333337</ele><time>2026-04-12T08:49:24.98Z</time></trkpt><trkpt lat="45.7036474" lon="9.8668368"><ele>293.0</ele><time>2026-04-12T08:49:25.984Z</time></trkpt><trkpt lat="45.7036432" lon="9.866737"><ele>293.0</ele><time>2026-04-12T08:49:26.982Z</time></trkpt><trkpt lat="45.7036374" lon="9.8666405"><ele>293.0</ele><time>2026-04-12T08:49:27.967Z</time></trkpt><trkpt lat="45.7036874" lon="9.8665127"><ele>293.0</ele><time>2026-04-12T08:49:29.958Z</time></trkpt><trkpt lat="45.7037822" lon="9.8665952"><ele>293.0</ele><time>2026-04-12T08:49:31.977Z</time></trkpt><trkpt lat="45.7038409" lon="9.8667628"><ele>293.0</ele><time>2026-04-12T08:49:33.973Z</time></trkpt><trkpt lat="45.7038625" lon="9.8668966"><ele>293.0</ele><time>2026-04-12T08:49:34.981Z</time></trkpt><trkpt lat="45.7038831" lon="9.8670317"><ele>293.0</ele><time>2026-04-12T08:49:35.985Z</time></trkpt><trkpt lat="45.7038957" lon="9.8672086"><ele>293.0</ele><time>2026-04-12T08:49:36.958Z</time></trkpt><trkpt lat="45.7039054" lon="9.8673598"><ele>293.0</ele><time>2026-04-12T08:49:37.982Z</time></trkpt><trkpt lat="45.7039118" lon="9.8675238"><ele>293.0</ele><time>2026-04-12T08:49:38.982Z</time></trkpt><trkpt lat="45.7039222" lon="9.867685"><ele>292.75</ele><time>2026-04-12T08:49:39.955Z</time></trkpt><trkpt lat="45.7039294" lon="9.8678599"><ele>292.5</ele><time>2026-04-12T08:49:40.967Z</time></trkpt><trkpt lat="45.7039367" lon="9.8680414"><ele>292.25</ele><time>2026-04-12T08:49:42.031Z</time></trkpt><trkpt lat="45.7039534" lon="9.8682288"><ele>292.0</ele><time>2026-04-12T08:49:43.044Z</time></trkpt><trkpt lat="45.7039682" lon="9.8684055"><ele>291.0</ele><time>2026-04-12T08:49:44.037Z</time></trkpt><trkpt lat="45.7039784" lon="9.8685842"><ele>290.0</ele><time>2026-04-12T08:49:44.974Z</time></trkpt><trkpt lat="45.7039894" lon="9.8687652"><ele>289.0</ele><time>2026-04-12T08:49:45.969Z</time></trkpt><trkpt lat="45.7040051" lon="9.8689404"><ele>288.0</ele><time>2026-04-12T08:49:46.989Z</time></trkpt><trkpt lat="45.7040228" lon="9.8691214"><ele>287.0</ele><time>2026-04-12T08:49:48.032Z</time></trkpt><trkpt lat="45.7040394" lon="9.8692942"><ele>286.0</ele><time>2026-04-12T08:49:49.028Z</time></trkpt><trkpt lat="45.7040554" lon="9.8694591"><ele>285.0</ele><time>2026-04-12T08:49:49.971Z</time></trkpt><trkpt lat="45.7040732" lon="9.8696054"><ele>284.0</ele><time>2026-04-12T08:49:50.974Z</time></trkpt><trkpt lat="45.704105" lon="9.8697319"><ele>283.0</ele><time>2026-04-12T08:49:51.986Z</time></trkpt><trkpt lat="45.7041757" lon="9.8698151"><ele>283.0</ele><time>2026-04-12T08:49:52.947Z</time></trkpt><trkpt lat="45.7042662" lon="9.8698404"><ele>283.0</ele><time>2026-04-12T08:49:54.035Z</time></trkpt><trkpt lat="45.704362" lon="9.8698679"><ele>283.0</ele><time>2026-04-12T08:49:54.975Z</time></trkpt><trkpt lat="45.7044523" lon="9.8699414"><ele>283.0</ele><time>2026-04-12T08:49:55.976Z</time></trkpt><trkpt lat="45.7044958" lon="9.8700797"><ele>283.0</ele><time>2026-04-12T08:49:56.969Z</time></trkpt><trkpt lat="45.704514" lon="9.8702195"><ele>281.0</ele><time>2026-04-12T08:49:57.974Z</time></trkpt><trkpt lat="45.7045218" lon="9.8703692"><ele>279.0</ele><time>2026-04-12T08:49:58.97Z</time></trkpt><trkpt lat="45.7045317" lon="9.8705116"><ele>277.0</ele><time>2026-04-12T08:49:59.974Z</time></trkpt><trkpt lat="45.7045551" lon="9.8706335"><ele>275.0</ele><time>2026-04-12T08:50:00.982Z</time></trkpt><trkpt lat="45.7045822" lon="9.870721"><ele>273.0</ele><time>2026-04-12T08:50:02.001Z</time></trkpt><trkpt lat="45.7046432" lon="9.8707446"><ele>271.0</ele><time>2026-04-12T08:50:03.961Z</time></trkpt><trkpt lat="45.704706" lon="9.8706751"><ele>271.0</ele><time>2026-04-12T08:50:05.976Z</time></trkpt><trkpt lat="45.704729" lon="9.8707732"><ele>271.0</ele><time>2026-04-12T08:50:08.971Z</time></trkpt><trkpt lat="45.7046514" lon="9.8708676"><ele>271.0</ele><time>2026-04-12T08:50:10.968Z</time></trkpt><trkpt lat="45.704598" lon="9.8709872"><ele>271.0</ele><time>2026-04-12T08:50:13.978Z</time></trkpt><trkpt lat="45.7045587" lon="9.8710812"><ele>271.0</ele><time>2026-04-12T08:50:15.977Z</time></trkpt><trkpt lat="45.7045106" lon="9.8711815"><ele>271.0</ele><time>2026-04-12T08:50:17.969Z</time></trkpt><trkpt lat="45.7044708" lon="9.8712882"><ele>271.66666666666663</ele><time>2026-04-12T08:50:19.965Z</time></trkpt><trkpt lat="45.7044435" lon="9.8713779"><ele>272.3333333333333</ele><time>2026-04-12T08:50:21.969Z</time></trkpt><trkpt lat="45.7044099" lon="9.8714884"><ele>273.0</ele><time>2026-04-12T08:50:24.971Z</time></trkpt><trkpt lat="45.704372" lon="9.8716004"><ele>273.6666666666667</ele><time>2026-04-12T08:50:27.979Z</time></trkpt><trkpt lat="45.704323" lon="9.8716987"><ele>274.33333333333337</ele><time>2026-04-12T08:50:31.038Z</time></trkpt><trkpt lat="45.7042888" lon="9.8718224"><ele>275.0</ele><time>2026-04-12T08:50:33.968Z</time></trkpt><trkpt lat="45.704253" lon="9.87192"><ele>277.57142857142856</ele><time>2026-04-12T08:50:36.953Z</time></trkpt><trkpt lat="45.7042198" lon="9.8720326"><ele>280.1428571428571</ele><time>2026-04-12T08:50:39.961Z</time></trkpt><trkpt lat="45.7041944" lon="9.8721183"><ele>282.71428571428567</ele><time>2026-04-12T08:50:41.963Z</time></trkpt><trkpt lat="45.7041761" lon="9.8722186"><ele>285.2857142857143</ele><time>2026-04-12T08:50:44.037Z</time></trkpt><trkpt lat="45.7041435" lon="9.8722998"><ele>287.85714285714283</ele><time>2026-04-12T08:50:45.961Z</time></trkpt><trkpt lat="45.7041025" lon="9.8723721"><ele>290.4285714285714</ele><time>2026-04-12T08:50:47.972Z</time></trkpt><trkpt lat="45.7040732" lon="9.8724519"><ele>293.0</ele><time>2026-04-12T08:50:49.968Z</time></trkpt><trkpt lat="45.7040484" lon="9.8725438"><ele>293.2857142857143</ele><time>2026-04-12T08:50:51.976Z</time></trkpt><trkpt lat="45.7040333" lon="9.8726411"><ele>293.57142857142856</ele><time>2026-04-12T08:50:53.975Z</time></trkpt><trkpt lat="45.7040348" lon="9.8727444"><ele>293.8571428571429</ele><time>2026-04-12T08:50:55.966Z</time></trkpt><trkpt lat="45.7040424" lon="9.8728521"><ele>294.1428571428571</ele><time>2026-04-12T08:50:57.949Z</time></trkpt><trkpt lat="45.704074" lon="9.872941"><ele>294.42857142857144</ele><time>2026-04-12T08:50:59.963Z</time></trkpt><trkpt lat="45.7041139" lon="9.87302"><ele>294.7142857142857</ele><time>2026-04-12T08:51:01.968Z</time></trkpt><trkpt lat="45.7041463" lon="9.8731083"><ele>295.0</ele><time>2026-04-12T08:51:03.943Z</time></trkpt><trkpt lat="45.7041846" lon="9.8731995"><ele>295.0</ele><time>2026-04-12T08:51:05.966Z</time></trkpt><trkpt lat="45.7042137" lon="9.8732996"><ele>295.0</ele><time>2026-04-12T08:51:07.971Z</time></trkpt><trkpt lat="45.7042347" lon="9.8734111"><ele>295.0</ele><time>2026-04-12T08:51:09.967Z</time></trkpt><trkpt lat="45.7042638" lon="9.8735157"><ele>295.0</ele><time>2026-04-12T08:51:11.972Z</time></trkpt><trkpt lat="45.7043179" lon="9.873616"><ele>295.0</ele><time>2026-04-12T08:51:13.953Z</time></trkpt><trkpt lat="45.704359" lon="9.8737196"><ele>295.0</ele><time>2026-04-12T08:51:15.966Z</time></trkpt><trkpt lat="45.7044044" lon="9.8738296"><ele>295.8333333333333</ele><time>2026-04-12T08:51:18.038Z</time></trkpt><trkpt lat="45.7044442" lon="9.8739415"><ele>296.66666666666663</ele><time>2026-04-12T08:51:19.981Z</time></trkpt><trkpt lat="45.7044856" lon="9.8740524"><ele>297.5</ele><time>2026-04-12T08:51:21.966Z</time></trkpt><trkpt lat="45.7045259" lon="9.8741628"><ele>298.3333333333333</ele><time>2026-04-12T08:51:23.975Z</time></trkpt><trkpt lat="45.7045641" lon="9.8742589"><ele>299.1666666666667</ele><time>2026-04-12T08:51:26.036Z</time></trkpt><trkpt lat="45.7045972" lon="9.8743611"><ele>300.0</ele><time>2026-04-12T08:51:27.967Z</time></trkpt><trkpt lat="45.7046097" lon="9.8744849"><ele>300.1428571428571</ele><time>2026-04-12T08:51:29.963Z</time></trkpt><trkpt lat="45.7046132" lon="9.874591"><ele>300.2857142857143</ele><time>2026-04-12T08:51:32.039Z</time></trkpt><trkpt lat="45.704563" lon="9.8746783"><ele>300.42857142857144</ele><time>2026-04-12T08:51:33.96Z</time></trkpt><trkpt lat="45.7045099" lon="9.8747436"><ele>300.57142857142856</ele><time>2026-04-12T08:51:35.957Z</time></trkpt><trkpt lat="45.7044594" lon="9.8748018"><ele>300.7142857142857</ele><time>2026-04-12T08:51:38.025Z</time></trkpt><trkpt lat="45.7044148" lon="9.8748679"><ele>300.85714285714283</ele><time>2026-04-12T08:51:39.964Z</time></trkpt><trkpt lat="45.7043727" lon="9.8749424"><ele>301.0</ele><time>2026-04-12T08:51:41.946Z</time></trkpt><trkpt lat="45.7043397" lon="9.8750365"><ele>301.8333333333333</ele><time>2026-04-12T08:51:43.948Z</time></trkpt><trkpt lat="45.7043199" lon="9.8751448"><ele>302.66666666666663</ele><time>2026-04-12T08:51:45.96Z</time></trkpt><trkpt lat="45.7043176" lon="9.8752437"><ele>303.5</ele><time>2026-04-12T08:51:48.045Z</time></trkpt><trkpt lat="45.7043479" lon="9.8753496"><ele>304.3333333333333</ele><time>2026-04-12T08:51:49.984Z</time></trkpt><trkpt lat="45.7043911" lon="9.8754624"><ele>305.1666666666667</ele><time>2026-04-12T08:51:51.968Z</time></trkpt><trkpt lat="45.7044189" lon="9.8755647"><ele>306.0</ele><time>2026-04-12T08:51:53.978Z</time></trkpt><trkpt lat="45.7044558" lon="9.8756502"><ele>306.0</ele><time>2026-04-12T08:51:56.032Z</time></trkpt><trkpt lat="45.7045161" lon="9.875724"><ele>306.0</ele><time>2026-04-12T08:51:58.032Z</time></trkpt><trkpt lat="45.7045695" lon="9.8757949"><ele>306.0</ele><time>2026-04-12T08:51:59.972Z</time></trkpt><trkpt lat="45.7046273" lon="9.8758585"><ele>306.0</ele><time>2026-04-12T08:52:01.964Z</time></trkpt><trkpt lat="45.7046795" lon="9.8759202"><ele>306.0</ele><time>2026-04-12T08:52:04.033Z</time></trkpt><trkpt lat="45.704743" lon="9.8759944"><ele>306.0</ele><time>2026-04-12T08:52:06.97Z</time></trkpt><trkpt lat="45.7047964" lon="9.8760457"><ele>306.0</ele><time>2026-04-12T08:52:08.95Z</time></trkpt><trkpt lat="45.704827" lon="9.8761302"><ele>306.0</ele><time>2026-04-12T08:52:13.939Z</time></trkpt><trkpt lat="45.7049062" lon="9.8761018"><ele>306.0</ele><time>2026-04-12T08:52:17.955Z</time></trkpt><trkpt lat="45.7049686" lon="9.8760529"><ele>306.0</ele><time>2026-04-12T08:52:19.956Z</time></trkpt><trkpt lat="45.7050417" lon="9.8759795"><ele>306.0</ele><time>2026-04-12T08:52:21.958Z</time></trkpt><trkpt lat="45.7051026" lon="9.87586"><ele>306.0</ele><time>2026-04-12T08:52:23.964Z</time></trkpt><trkpt lat="45.7051835" lon="9.8757323"><ele>306.0</ele><time>2026-04-12T08:52:25.964Z</time></trkpt><trkpt lat="45.7052305" lon="9.875654"><ele>306.0</ele><time>2026-04-12T08:52:27.043Z</time></trkpt><trkpt lat="45.7052963" lon="9.8755973"><ele>306.0</ele><time>2026-04-12T08:52:28.028Z</time></trkpt><trkpt lat="45.7053865" lon="9.8754843"><ele>306.0</ele><time>2026-04-12T08:52:29.957Z</time></trkpt><trkpt lat="45.705482" lon="9.8753697"><ele>306.0</ele><time>2026-04-12T08:52:31.976Z</time></trkpt><trkpt lat="45.7055498" lon="9.8752396"><ele>306.0</ele><time>2026-04-12T08:52:34.031Z</time></trkpt><trkpt lat="45.7056257" lon="9.8751421"><ele>306.0</ele><time>2026-04-12T08:52:35.978Z</time></trkpt><trkpt lat="45.7057293" lon="9.8751261"><ele>306.0</ele><time>2026-04-12T08:52:37.957Z</time></trkpt><trkpt lat="45.7057942" lon="9.8751152"><ele>306.0</ele><time>2026-04-12T08:52:38.979Z</time></trkpt><trkpt lat="45.705914" lon="9.8751573"><ele>306.0</ele><time>2026-04-12T08:52:41.04Z</time></trkpt><trkpt lat="45.7060119" lon="9.8751888"><ele>306.0</ele><time>2026-04-12T08:52:42.969Z</time></trkpt><trkpt lat="45.706062" lon="9.8752526"><ele>306.0</ele><time>2026-04-12T08:52:44.982Z</time></trkpt><trkpt lat="45.7061127" lon="9.8753351"><ele>306.0</ele><time>2026-04-12T08:52:46.977Z</time></trkpt><trkpt lat="45.706163" lon="9.8754315"><ele>306.0</ele><time>2026-04-12T08:52:48.956Z</time></trkpt><trkpt lat="45.7062196" lon="9.8755487"><ele>306.0</ele><time>2026-04-12T08:52:50.971Z</time></trkpt><trkpt lat="45.7062619" lon="9.8756598"><ele>306.0</ele><time>2026-04-12T08:52:52.961Z</time></trkpt><trkpt lat="45.7063154" lon="9.8757914"><ele>305.0</ele><time>2026-04-12T08:52:54.97Z</time></trkpt><trkpt lat="45.7063726" lon="9.8758898"><ele>304.0</ele><time>2026-04-12T08:52:56.971Z</time></trkpt><trkpt lat="45.7064196" lon="9.8759833"><ele>303.0</ele><time>2026-04-12T08:52:58.981Z</time></trkpt><trkpt lat="45.7064658" lon="9.8760905"><ele>302.0</ele><time>2026-04-12T08:53:00.973Z</time></trkpt><trkpt lat="45.7065006" lon="9.8761982"><ele>301.0</ele><time>2026-04-12T08:53:03.041Z</time></trkpt><trkpt lat="45.7065397" lon="9.8763084"><ele>300.0</ele><time>2026-04-12T08:53:04.955Z</time></trkpt><trkpt lat="45.7065591" lon="9.8764337"><ele>300.0</ele><time>2026-04-12T08:53:06.957Z</time></trkpt><trkpt lat="45.7065822" lon="9.8765479"><ele>300.0</ele><time>2026-04-12T08:53:08.974Z</time></trkpt><trkpt lat="45.7066073" lon="9.8766555"><ele>300.0</ele><time>2026-04-12T08:53:10.973Z</time></trkpt><trkpt lat="45.7066297" lon="9.8767813"><ele>300.0</ele><time>2026-04-12T08:53:12.967Z</time></trkpt><trkpt lat="45.706655" lon="9.8769138"><ele>300.0</ele><time>2026-04-12T08:53:14.969Z</time></trkpt><trkpt lat="45.7066857" lon="9.8770557"><ele>301.3333333333333</ele><time>2026-04-12T08:53:16.976Z</time></trkpt><trkpt lat="45.7067228" lon="9.8771811"><ele>302.6666666666667</ele><time>2026-04-12T08:53:18.973Z</time></trkpt><trkpt lat="45.7067493" lon="9.8772875"><ele>304.0</ele><time>2026-04-12T08:53:20.958Z</time></trkpt><trkpt lat="45.7067798" lon="9.8774097"><ele>305.33333333333337</ele><time>2026-04-12T08:53:22.969Z</time></trkpt><trkpt lat="45.7068113" lon="9.8775373"><ele>306.6666666666667</ele><time>2026-04-12T08:53:24.973Z</time></trkpt><trkpt lat="45.7068405" lon="9.8776561"><ele>308.0</ele><time>2026-04-12T08:53:27.031Z</time></trkpt><trkpt lat="45.7068663" lon="9.877781"><ele>308.5</ele><time>2026-04-12T08:53:28.961Z</time></trkpt><trkpt lat="45.7068931" lon="9.8778983"><ele>309.0</ele><time>2026-04-12T08:53:30.972Z</time></trkpt><trkpt lat="45.7069201" lon="9.8780274"><ele>309.5</ele><time>2026-04-12T08:53:32.969Z</time></trkpt><trkpt lat="45.7069471" lon="9.8781406"><ele>310.0</ele><time>2026-04-12T08:53:34.974Z</time></trkpt><trkpt lat="45.7069526" lon="9.8782486"><ele>310.5</ele><time>2026-04-12T08:53:36.951Z</time></trkpt><trkpt lat="45.7069371" lon="9.8783887"><ele>311.0</ele><time>2026-04-12T08:53:38.956Z</time></trkpt><trkpt lat="45.7069026" lon="9.878537"><ele>309.83333333333337</ele><time>2026-04-12T08:53:40.967Z</time></trkpt><trkpt lat="45.7068406" lon="9.8786859"><ele>308.6666666666667</ele><time>2026-04-12T08:53:43.056Z</time></trkpt><trkpt lat="45.7067885" lon="9.8787488"><ele>307.5</ele><time>2026-04-12T08:53:43.96Z</time></trkpt><trkpt lat="45.7067323" lon="9.878819"><ele>306.3333333333333</ele><time>2026-04-12T08:53:44.977Z</time></trkpt><trkpt lat="45.706678" lon="9.8789084"><ele>305.16666666666663</ele><time>2026-04-12T08:53:45.975Z</time></trkpt><trkpt lat="45.7066321" lon="9.8790159"><ele>304.0</ele><time>2026-04-12T08:53:46.98Z</time></trkpt><trkpt lat="45.7065996" lon="9.8791444"><ele>303.2</ele><time>2026-04-12T08:53:47.978Z</time></trkpt><trkpt lat="45.7065722" lon="9.8792805"><ele>302.4</ele><time>2026-04-12T08:53:48.98Z</time></trkpt><trkpt lat="45.7065525" lon="9.879426"><ele>301.6</ele><time>2026-04-12T08:53:49.972Z</time></trkpt><trkpt lat="45.7065236" lon="9.8795757"><ele>300.8</ele><time>2026-04-12T08:53:51.032Z</time></trkpt><trkpt lat="45.7064853" lon="9.8797203"><ele>300.0</ele><time>2026-04-12T08:53:52.052Z</time></trkpt><trkpt lat="45.7064431" lon="9.8798576"><ele>300.0</ele><time>2026-04-12T08:53:53.024Z</time></trkpt><trkpt lat="45.7064004" lon="9.8799805"><ele>300.0</ele><time>2026-04-12T08:53:54.038Z</time></trkpt><trkpt lat="45.7063618" lon="9.8800999"><ele>300.0</ele><time>2026-04-12T08:53:54.978Z</time></trkpt><trkpt lat="45.7063424" lon="9.8802241"><ele>300.0</ele><time>2026-04-12T08:53:55.978Z</time></trkpt><trkpt lat="45.7063149" lon="9.880344"><ele>300.0</ele><time>2026-04-12T08:53:56.974Z</time></trkpt><trkpt lat="45.7062851" lon="9.8804477"><ele>300.0</ele><time>2026-04-12T08:53:58.043Z</time></trkpt><trkpt lat="45.7062444" lon="9.8805397"><ele>300.8333333333333</ele><time>2026-04-12T08:53:59.032Z</time></trkpt><trkpt lat="45.7062021" lon="9.880622"><ele>301.6666666666667</ele><time>2026-04-12T08:53:59.974Z</time></trkpt><trkpt lat="45.7061197" lon="9.8807289"><ele>302.5</ele><time>2026-04-12T08:54:02.042Z</time></trkpt><trkpt lat="45.7060395" lon="9.8808016"><ele>303.33333333333337</ele><time>2026-04-12T08:54:04.049Z</time></trkpt><trkpt lat="45.7059788" lon="9.8808859"><ele>304.1666666666667</ele><time>2026-04-12T08:54:05.968Z</time></trkpt><trkpt lat="45.7059553" lon="9.8809729"><ele>305.0</ele><time>2026-04-12T08:54:08.027Z</time></trkpt><trkpt lat="45.7059476" lon="9.8811041"><ele>305.1666666666667</ele><time>2026-04-12T08:54:10.972Z</time></trkpt><trkpt lat="45.7059677" lon="9.8812141"><ele>305.33333333333337</ele><time>2026-04-12T08:54:13.96Z</time></trkpt><trkpt lat="45.7060067" lon="9.8813404"><ele>305.5</ele><time>2026-04-12T08:54:16.952Z</time></trkpt><trkpt lat="45.7060268" lon="9.8814296"><ele>305.6666666666667</ele><time>2026-04-12T08:54:19.031Z</time></trkpt><trkpt lat="45.706048" lon="9.8815318"><ele>305.8333333333333</ele><time>2026-04-12T08:54:20.977Z</time></trkpt><trkpt lat="45.7060694" lon="9.8816381"><ele>306.0</ele><time>2026-04-12T08:54:22.976Z</time></trkpt><trkpt lat="45.7060897" lon="9.8817388"><ele>307.7142857142857</ele><time>2026-04-12T08:54:24.975Z</time></trkpt><trkpt lat="45.706099" lon="9.8818297"><ele>309.42857142857144</ele><time>2026-04-12T08:54:27.037Z</time></trkpt><trkpt lat="45.7061108" lon="9.881923"><ele>311.1428571428571</ele><time>2026-04-12T08:54:28.963Z</time></trkpt><trkpt lat="45.7061239" lon="9.8820224"><ele>312.8571428571429</ele><time>2026-04-12T08:54:30.943Z</time></trkpt><trkpt lat="45.7061554" lon="9.882126"><ele>314.5714285714286</ele><time>2026-04-12T08:54:32.958Z</time></trkpt><trkpt lat="45.7061979" lon="9.8822078"><ele>316.2857142857143</ele><time>2026-04-12T08:54:34.968Z</time></trkpt><trkpt lat="45.7062499" lon="9.8822789"><ele>318.0</ele><time>2026-04-12T08:54:36.96Z</time></trkpt><trkpt lat="45.7063031" lon="9.8823426"><ele>318.0</ele><time>2026-04-12T08:54:38.976Z</time></trkpt><trkpt lat="45.7063469" lon="9.8824142"><ele>318.0</ele><time>2026-04-12T08:54:40.975Z</time></trkpt><trkpt lat="45.7064017" lon="9.882528"><ele>318.0</ele><time>2026-04-12T08:54:43.98Z</time></trkpt><trkpt lat="45.7064505" lon="9.8826213"><ele>318.0</ele><time>2026-04-12T08:54:46.965Z</time></trkpt><trkpt lat="45.7065292" lon="9.8826496"><ele>318.0</ele><time>2026-04-12T08:54:49.968Z</time></trkpt><trkpt lat="45.7066169" lon="9.8826854"><ele>318.0</ele><time>2026-04-12T08:54:52.967Z</time></trkpt><trkpt lat="45.7067042" lon="9.8827186"><ele>318.57142857142856</ele><time>2026-04-12T08:54:55.968Z</time></trkpt><trkpt lat="45.7067635" lon="9.8827531"><ele>319.14285714285717</ele><time>2026-04-12T08:54:59.032Z</time></trkpt><trkpt lat="45.7068128" lon="9.8828173"><ele>319.7142857142857</ele><time>2026-04-12T08:55:01.969Z</time></trkpt><trkpt lat="45.7068667" lon="9.8828849"><ele>320.2857142857143</ele><time>2026-04-12T08:55:03.961Z</time></trkpt><trkpt lat="45.7069137" lon="9.8829742"><ele>320.8571428571429</ele><time>2026-04-12T08:55:06.99Z</time></trkpt><trkpt lat="45.7068752" lon="9.8830559"><ele>321.42857142857144</ele><time>2026-04-12T08:55:09.97Z</time></trkpt><trkpt lat="45.7068149" lon="9.8831314"><ele>322.0</ele><time>2026-04-12T08:55:12.97Z</time></trkpt><trkpt lat="45.7067987" lon="9.8832326"><ele>322.5</ele><time>2026-04-12T08:55:16.041Z</time></trkpt><trkpt lat="45.7068103" lon="9.8833465"><ele>323.0</ele><time>2026-04-12T08:55:18.958Z</time></trkpt><trkpt lat="45.7068039" lon="9.8834417"><ele>323.5</ele><time>2026-04-12T08:55:21.971Z</time></trkpt><trkpt lat="45.7067722" lon="9.883552"><ele>324.0</ele><time>2026-04-12T08:55:25.979Z</time></trkpt><trkpt lat="45.7067993" lon="9.8836541"><ele>324.5</ele><time>2026-04-12T08:55:28.972Z</time></trkpt><trkpt lat="45.706853" lon="9.8837313"><ele>325.0</ele><time>2026-04-12T08:55:31.972Z</time></trkpt><trkpt lat="45.7069176" lon="9.8837911"><ele>326.4285714285714</ele><time>2026-04-12T08:55:35.967Z</time></trkpt><trkpt lat="45.7069781" lon="9.8838302"><ele>327.8571428571429</ele><time>2026-04-12T08:55:39.954Z</time></trkpt><trkpt lat="45.7070344" lon="9.8838717"><ele>329.2857142857143</ele><time>2026-04-12T08:55:53.964Z</time></trkpt><trkpt lat="45.7070821" lon="9.883966"><ele>330.71428571428567</ele><time>2026-04-12T08:56:01.044Z</time></trkpt><trkpt lat="45.7071275" lon="9.8840567"><ele>332.1428571428571</ele><time>2026-04-12T08:56:04.953Z</time></trkpt><trkpt lat="45.7071718" lon="9.8841386"><ele>333.57142857142856</ele><time>2026-04-12T08:56:07.976Z</time></trkpt><trkpt lat="45.707216" lon="9.8842414"><ele>335.0</ele><time>2026-04-12T08:56:11.969Z</time></trkpt><trkpt lat="45.7072685" lon="9.8843378"><ele>337.0</ele><time>2026-04-12T08:56:14.983Z</time></trkpt><trkpt lat="45.707311" lon="9.8844312"><ele>339.0</ele><time>2026-04-12T08:56:18.033Z</time></trkpt><trkpt lat="45.7073452" lon="9.8845398"><ele>341.0</ele><time>2026-04-12T08:56:23.033Z</time></trkpt><trkpt lat="45.7073843" lon="9.8847446"><ele>343.0</ele><time>2026-04-12T08:56:28.957Z</time></trkpt><trkpt lat="45.7074139" lon="9.8848243"><ele>345.0</ele><time>2026-04-12T08:56:30.951Z</time></trkpt><trkpt lat="45.7074637" lon="9.8848861"><ele>347.0</ele><time>2026-04-12T08:56:33.027Z</time></trkpt><trkpt lat="45.707505" lon="9.8849678"><ele>349.5</ele><time>2026-04-12T08:56:35.964Z</time></trkpt><trkpt lat="45.7075591" lon="9.8851223"><ele>352.0</ele><time>2026-04-12T08:56:41.967Z</time></trkpt><trkpt lat="45.7076086" lon="9.8851869"><ele>354.5</ele><time>2026-04-12T08:56:43.955Z</time></trkpt><trkpt lat="45.707699" lon="9.8852068"><ele>357.0</ele><time>2026-04-12T08:56:46.966Z</time></trkpt><trkpt lat="45.7077666" lon="9.8852027"><ele>359.5</ele><time>2026-04-12T08:56:48.967Z</time></trkpt><trkpt lat="45.7078677" lon="9.8851854"><ele>362.0</ele><time>2026-04-12T08:56:50.952Z</time></trkpt><trkpt lat="45.7079623" lon="9.8851383"><ele>359.83333333333337</ele><time>2026-04-12T08:56:53.03Z</time></trkpt><trkpt lat="45.7080317" lon="9.8850793"><ele>357.6666666666667</ele><time>2026-04-12T08:56:54.982Z</time></trkpt><trkpt lat="45.7080647" lon="9.8849929"><ele>355.5</ele><time>2026-04-12T08:56:56.98Z</time></trkpt><trkpt lat="45.7080451" lon="9.8848668"><ele>353.3333333333333</ele><time>2026-04-12T08:56:59.001Z</time></trkpt><trkpt lat="45.7080504" lon="9.8847747"><ele>351.16666666666663</ele><time>2026-04-12T08:57:00.975Z</time></trkpt><trkpt lat="45.7080679" lon="9.8846417"><ele>349.0</ele><time>2026-04-12T08:57:03.97Z</time></trkpt><trkpt lat="45.7080958" lon="9.8845451"><ele>349.0</ele><time>2026-04-12T08:57:05.968Z</time></trkpt><trkpt lat="45.7081282" lon="9.884442"><ele>349.0</ele><time>2026-04-12T08:57:07.963Z</time></trkpt><trkpt lat="45.7081698" lon="9.8843353"><ele>349.0</ele><time>2026-04-12T08:57:09.975Z</time></trkpt><trkpt lat="45.7081924" lon="9.884211"><ele>349.0</ele><time>2026-04-12T08:57:11.975Z</time></trkpt><trkpt lat="45.7082424" lon="9.8841094"><ele>349.0</ele><time>2026-04-12T08:57:14.036Z</time></trkpt><trkpt lat="45.7082942" lon="9.8840265"><ele>349.0</ele><time>2026-04-12T08:57:15.96Z</time></trkpt><trkpt lat="45.7083442" lon="9.88392"><ele>345.6</ele><time>2026-04-12T08:57:17.951Z</time></trkpt><trkpt lat="45.7083623" lon="9.883816"><ele>342.2</ele><time>2026-04-12T08:57:19.965Z</time></trkpt><trkpt lat="45.708382" lon="9.8837037"><ele>338.8</ele><time>2026-04-12T08:57:21.965Z</time></trkpt><trkpt lat="45.7084154" lon="9.8835791"><ele>335.40000000000003</ele><time>2026-04-12T08:57:23.964Z</time></trkpt><trkpt lat="45.7084459" lon="9.8834108"><ele>332.0</ele><time>2026-04-12T08:57:24.959Z</time></trkpt><trkpt lat="45.7084704" lon="9.8833022"><ele>331.33333333333337</ele><time>2026-04-12T08:57:25.961Z</time></trkpt><trkpt lat="45.708506" lon="9.8831601"><ele>330.6666666666667</ele><time>2026-04-12T08:57:28.034Z</time></trkpt><trkpt lat="45.7085402" lon="9.8830341"><ele>330.0</ele><time>2026-04-12T08:57:30.043Z</time></trkpt><trkpt lat="45.7085792" lon="9.8829305"><ele>329.3333333333333</ele><time>2026-04-12T08:57:31.982Z</time></trkpt><trkpt lat="45.7086208" lon="9.8828368"><ele>328.66666666666663</ele><time>2026-04-12T08:57:33.974Z</time></trkpt><trkpt lat="45.7086692" lon="9.8827475"><ele>328.0</ele><time>2026-04-12T08:57:35.969Z</time></trkpt><trkpt lat="45.7087298" lon="9.8826829"><ele>328.0</ele><time>2026-04-12T08:57:38.042Z</time></trkpt><trkpt lat="45.708798" lon="9.8826322"><ele>328.0</ele><time>2026-04-12T08:57:39.97Z</time></trkpt><trkpt lat="45.7088658" lon="9.8826002"><ele>328.0</ele><time>2026-04-12T08:57:41.964Z</time></trkpt><trkpt lat="45.7089317" lon="9.8825824"><ele>328.0</ele><time>2026-04-12T08:57:43.969Z</time></trkpt><trkpt lat="45.7090059" lon="9.8825419"><ele>328.0</ele><time>2026-04-12T08:57:47.043Z</time></trkpt><trkpt lat="45.709079" lon="9.8824775"><ele>328.0</ele><time>2026-04-12T08:57:49.981Z</time></trkpt><trkpt lat="45.7091438" lon="9.8824276"><ele>326.59999999999997</ele><time>2026-04-12T08:57:51.971Z</time></trkpt><trkpt lat="45.7092312" lon="9.8823576"><ele>325.2</ele><time>2026-04-12T08:57:54.009Z</time></trkpt><trkpt lat="45.7093238" lon="9.8822728"><ele>323.8</ele><time>2026-04-12T08:57:55.976Z</time></trkpt><trkpt lat="45.7094273" lon="9.8822063"><ele>322.4</ele><time>2026-04-12T08:57:57.975Z</time></trkpt><trkpt lat="45.7095235" lon="9.8821669"><ele>321.0</ele><time>2026-04-12T08:57:59.972Z</time></trkpt><trkpt lat="45.7096038" lon="9.882122"><ele>321.0</ele><time>2026-04-12T08:58:01.964Z</time></trkpt><trkpt lat="45.7097682" lon="9.8821291"><ele>321.0</ele><time>2026-04-12T08:58:04.965Z</time></trkpt><trkpt lat="45.7098307" lon="9.8821913"><ele>321.0</ele><time>2026-04-12T08:58:06.969Z</time></trkpt><trkpt lat="45.7098946" lon="9.8822741"><ele>321.0</ele><time>2026-04-12T08:58:09.959Z</time></trkpt><trkpt lat="45.7099288" lon="9.8823613"><ele>321.0</ele><time>2026-04-12T08:58:11.966Z</time></trkpt><trkpt lat="45.709986" lon="9.8824513"><ele>320.99999999999994</ele><time>2026-04-12T08:58:15.031Z</time></trkpt><trkpt lat="45.7100559" lon="9.8824494"><ele>321.0</ele><time>2026-04-12T08:58:17.961Z</time></trkpt><trkpt lat="45.7101181" lon="9.8824707"><ele>321.0</ele><time>2026-04-12T08:58:19.961Z</time></trkpt><trkpt lat="45.7101771" lon="9.8825101"><ele>321.0</ele><time>2026-04-12T08:58:21.951Z</time></trkpt><trkpt lat="45.7102465" lon="9.8825718"><ele>321.0</ele><time>2026-04-12T08:58:23.955Z</time></trkpt><trkpt lat="45.7103105" lon="9.8825759"><ele>320.99999999999994</ele><time>2026-04-12T08:58:25.041Z</time></trkpt><trkpt lat="45.7104005" lon="9.882586"><ele>321.0</ele><time>2026-04-12T08:58:26.968Z</time></trkpt><trkpt lat="45.7105024" lon="9.8826263"><ele>324.4</ele><time>2026-04-12T08:58:28.972Z</time></trkpt><trkpt lat="45.7106116" lon="9.8826704"><ele>327.8</ele><time>2026-04-12T08:58:30.974Z</time></trkpt><trkpt lat="45.710711" lon="9.8827156"><ele>331.2</ele><time>2026-04-12T08:58:33.037Z</time></trkpt><trkpt lat="45.7108105" lon="9.882742"><ele>334.59999999999997</ele><time>2026-04-12T08:58:34.974Z</time></trkpt><trkpt lat="45.7108871" lon="9.8827985"><ele>338.0</ele><time>2026-04-12T08:58:36.967Z</time></trkpt><trkpt lat="45.7109625" lon="9.8828583"><ele>338.0</ele><time>2026-04-12T08:58:38.971Z</time></trkpt><trkpt lat="45.7110438" lon="9.882924"><ele>338.0</ele><time>2026-04-12T08:58:40.956Z</time></trkpt><trkpt lat="45.7111291" lon="9.8829923"><ele>338.0</ele><time>2026-04-12T08:58:43.023Z</time></trkpt><trkpt lat="45.7112167" lon="9.8830593"><ele>338.0</ele><time>2026-04-12T08:58:44.968Z</time></trkpt><trkpt lat="45.7113066" lon="9.8831201"><ele>338.0</ele><time>2026-04-12T08:58:46.962Z</time></trkpt><trkpt lat="45.7114003" lon="9.8831685"><ele>341.0</ele><time>2026-04-12T08:58:48.946Z</time></trkpt><trkpt lat="45.7114906" lon="9.8832064"><ele>344.0</ele><time>2026-04-12T08:58:50.971Z</time></trkpt><trkpt lat="45.7115628" lon="9.8832553"><ele>347.0</ele><time>2026-04-12T08:58:52.962Z</time></trkpt><trkpt lat="45.711629" lon="9.8833102"><ele>350.0</ele><time>2026-04-12T08:58:54.972Z</time></trkpt><trkpt lat="45.7116934" lon="9.8833696"><ele>353.0</ele><time>2026-04-12T08:58:56.969Z</time></trkpt><trkpt lat="45.7117568" lon="9.8834377"><ele>356.0</ele><time>2026-04-12T08:58:58.966Z</time></trkpt><trkpt lat="45.7118294" lon="9.8835263"><ele>356.0</ele><time>2026-04-12T08:59:00.959Z</time></trkpt><trkpt lat="45.7118943" lon="9.8836126"><ele>356.0</ele><time>2026-04-12T08:59:02.959Z</time></trkpt><trkpt lat="45.7119689" lon="9.8836838"><ele>356.0</ele><time>2026-04-12T08:59:04.972Z</time></trkpt><trkpt lat="45.7120216" lon="9.8837447"><ele>356.0</ele><time>2026-04-12T08:59:06.966Z</time></trkpt><trkpt lat="45.7120712" lon="9.8838142"><ele>356.0</ele><time>2026-04-12T08:59:08.965Z</time></trkpt><trkpt lat="45.7121125" lon="9.8838903"><ele>356.0</ele><time>2026-04-12T08:59:10.959Z</time></trkpt><trkpt lat="45.7121635" lon="9.8839988"><ele>352.5</ele><time>2026-04-12T08:59:12.987Z</time></trkpt><trkpt lat="45.7122047" lon="9.8841155"><ele>349.0</ele><time>2026-04-12T08:59:14.969Z</time></trkpt><trkpt lat="45.7122464" lon="9.8842085"><ele>345.5</ele><time>2026-04-12T08:59:16.957Z</time></trkpt><trkpt lat="45.7122789" lon="9.8842934"><ele>342.0</ele><time>2026-04-12T08:59:18.969Z</time></trkpt><trkpt lat="45.7123135" lon="9.8843815"><ele>338.5</ele><time>2026-04-12T08:59:20.953Z</time></trkpt><trkpt lat="45.7123482" lon="9.8844741"><ele>335.0</ele><time>2026-04-12T08:59:23.032Z</time></trkpt><trkpt lat="45.7123769" lon="9.8845689"><ele>335.0</ele><time>2026-04-12T08:59:24.966Z</time></trkpt><trkpt lat="45.7124128" lon="9.8846752"><ele>335.0</ele><time>2026-04-12T08:59:26.958Z</time></trkpt><trkpt lat="45.7124571" lon="9.884797"><ele>335.0</ele><time>2026-04-12T08:59:28.963Z</time></trkpt><trkpt lat="45.7125196" lon="9.8849089"><ele>335.0</ele><time>2026-04-12T08:59:30.954Z</time></trkpt><trkpt lat="45.7125849" lon="9.8850026"><ele>335.0</ele><time>2026-04-12T08:59:32.965Z</time></trkpt><trkpt lat="45.712633" lon="9.8851108"><ele>336.83333333333337</ele><time>2026-04-12T08:59:34.95Z</time></trkpt><trkpt lat="45.7126784" lon="9.8852091"><ele>338.6666666666667</ele><time>2026-04-12T08:59:36.963Z</time></trkpt><trkpt lat="45.7127158" lon="9.8853012"><ele>340.5</ele><time>2026-04-12T08:59:39.03Z</time></trkpt><trkpt lat="45.7127465" lon="9.8854133"><ele>342.3333333333333</ele><time>2026-04-12T08:59:40.961Z</time></trkpt><trkpt lat="45.7127717" lon="9.8855152"><ele>344.16666666666663</ele><time>2026-04-12T08:59:42.955Z</time></trkpt><trkpt lat="45.712799" lon="9.8856241"><ele>346.0</ele><time>2026-04-12T08:59:44.968Z</time></trkpt><trkpt lat="45.7128206" lon="9.885741"><ele>340.8333333333333</ele><time>2026-04-12T08:59:47.027Z</time></trkpt><trkpt lat="45.7128309" lon="9.8858582"><ele>335.66666666666663</ele><time>2026-04-12T08:59:49.035Z</time></trkpt><trkpt lat="45.7128555" lon="9.8859694"><ele>330.5</ele><time>2026-04-12T08:59:50.973Z</time></trkpt><trkpt lat="45.7128788" lon="9.8860712"><ele>325.3333333333333</ele><time>2026-04-12T08:59:52.962Z</time></trkpt><trkpt lat="45.7129172" lon="9.886194"><ele>320.1666666666667</ele><time>2026-04-12T08:59:54.969Z</time></trkpt><trkpt lat="45.7129623" lon="9.886318"><ele>315.0</ele><time>2026-04-12T08:59:56.979Z</time></trkpt><trkpt lat="45.7130393" lon="9.8864524"><ele>315.0</ele><time>2026-04-12T08:59:58.972Z</time></trkpt><trkpt lat="45.7130869" lon="9.8865201"><ele>315.0</ele><time>2026-04-12T08:59:59.981Z</time></trkpt><trkpt lat="45.7131545" lon="9.8866551"><ele>315.0</ele><time>2026-04-12T09:00:01.966Z</time></trkpt><trkpt lat="45.7131865" lon="9.8867822"><ele>315.0</ele><time>2026-04-12T09:00:04.031Z</time></trkpt><trkpt lat="45.7131766" lon="9.8869038"><ele>315.0</ele><time>2026-04-12T09:00:05.963Z</time></trkpt><trkpt lat="45.7131416" lon="9.8870124"><ele>315.0</ele><time>2026-04-12T09:00:07.979Z</time></trkpt><trkpt lat="45.7130934" lon="9.8871178"><ele>315.6666666666667</ele><time>2026-04-12T09:00:10.964Z</time></trkpt><trkpt lat="45.7130493" lon="9.8872256"><ele>316.3333333333333</ele><time>2026-04-12T09:00:13.961Z</time></trkpt><trkpt lat="45.7130437" lon="9.8873395"><ele>317.0</ele><time>2026-04-12T09:00:15.981Z</time></trkpt><trkpt lat="45.7130472" lon="9.8874693"><ele>317.66666666666663</ele><time>2026-04-12T09:00:17.972Z</time></trkpt><trkpt lat="45.7130451" lon="9.8876061"><ele>318.3333333333333</ele><time>2026-04-12T09:00:19.983Z</time></trkpt><trkpt lat="45.7130535" lon="9.8877149"><ele>319.0</ele><time>2026-04-12T09:00:21.941Z</time></trkpt><trkpt lat="45.7130783" lon="9.8878259"><ele>319.0</ele><time>2026-04-12T09:00:23.956Z</time></trkpt><trkpt lat="45.713097" lon="9.8879409"><ele>319.0</ele><time>2026-04-12T09:00:25.965Z</time></trkpt><trkpt lat="45.7131169" lon="9.8880616"><ele>319.0</ele><time>2026-04-12T09:00:27.967Z</time></trkpt><trkpt lat="45.7131405" lon="9.8881681"><ele>319.0</ele><time>2026-04-12T09:00:30.029Z</time></trkpt><trkpt lat="45.7131653" lon="9.8883028"><ele>319.0</ele><time>2026-04-12T09:00:31.977Z</time></trkpt><trkpt lat="45.7131784" lon="9.8884272"><ele>319.0</ele><time>2026-04-12T09:00:33.977Z</time></trkpt><trkpt lat="45.7131842" lon="9.8885389"><ele>319.5</ele><time>2026-04-12T09:00:35.977Z</time></trkpt><trkpt lat="45.7131894" lon="9.8886609"><ele>320.0</ele><time>2026-04-12T09:00:37.967Z</time></trkpt><trkpt lat="45.7131941" lon="9.8887795"><ele>320.5</ele><time>2026-04-12T09:00:39.965Z</time></trkpt><trkpt lat="45.71318" lon="9.88889"><ele>321.0</ele><time>2026-04-12T09:00:41.972Z</time></trkpt><trkpt lat="45.7131451" lon="9.8889967"><ele>321.5</ele><time>2026-04-12T09:00:43.973Z</time></trkpt><trkpt lat="45.7130749" lon="9.8890983"><ele>322.0</ele><time>2026-04-12T09:00:45.954Z</time></trkpt><trkpt lat="45.7130465" lon="9.889191"><ele>322.16666666666663</ele><time>2026-04-12T09:00:47.98Z</time></trkpt><trkpt lat="45.7130452" lon="9.8893041"><ele>322.3333333333333</ele><time>2026-04-12T09:00:49.976Z</time></trkpt><trkpt lat="45.7130632" lon="9.8894211"><ele>322.5</ele><time>2026-04-12T09:00:51.974Z</time></trkpt><trkpt lat="45.7130792" lon="9.8895357"><ele>322.6666666666667</ele><time>2026-04-12T09:00:53.963Z</time></trkpt><trkpt lat="45.7130933" lon="9.8896383"><ele>322.83333333333337</ele><time>2026-04-12T09:00:55.972Z</time></trkpt><trkpt lat="45.7131006" lon="9.889767"><ele>323.0</ele><time>2026-04-12T09:00:58.038Z</time></trkpt><trkpt lat="45.7130892" lon="9.8898967"><ele>323.0</ele><time>2026-04-12T09:00:59.966Z</time></trkpt><trkpt lat="45.7130669" lon="9.8899956"><ele>323.0</ele><time>2026-04-12T09:01:01.972Z</time></trkpt><trkpt lat="45.7130113" lon="9.8900831"><ele>323.0</ele><time>2026-04-12T09:01:04.966Z</time></trkpt><trkpt lat="45.7129436" lon="9.890169"><ele>323.0</ele><time>2026-04-12T09:01:08.032Z</time></trkpt><trkpt lat="45.7129406" lon="9.89026"><ele>323.0</ele><time>2026-04-12T09:01:09.944Z</time></trkpt><trkpt lat="45.7129371" lon="9.8903708"><ele>323.0</ele><time>2026-04-12T09:01:11.962Z</time></trkpt><trkpt lat="45.7129239" lon="9.8904786"><ele>323.83333333333337</ele><time>2026-04-12T09:01:13.972Z</time></trkpt><trkpt lat="45.7129046" lon="9.8905876"><ele>324.6666666666667</ele><time>2026-04-12T09:01:15.963Z</time></trkpt><trkpt lat="45.7128877" lon="9.8907098"><ele>325.5</ele><time>2026-04-12T09:01:17.963Z</time></trkpt><trkpt lat="45.712865" lon="9.890836"><ele>326.3333333333333</ele><time>2026-04-12T09:01:20.032Z</time></trkpt><trkpt lat="45.7128447" lon="9.8909458"><ele>327.16666666666663</ele><time>2026-04-12T09:01:21.976Z</time></trkpt><trkpt lat="45.7128321" lon="9.8910549"><ele>328.0</ele><time>2026-04-12T09:01:23.968Z</time></trkpt><trkpt lat="45.712816" lon="9.891174"><ele>329.4</ele><time>2026-04-12T09:01:25.971Z</time></trkpt><trkpt lat="45.7128237" lon="9.8913005"><ele>330.79999999999995</ele><time>2026-04-12T09:01:27.981Z</time></trkpt><trkpt lat="45.7128217" lon="9.8914299"><ele>332.2</ele><time>2026-04-12T09:01:29.976Z</time></trkpt><trkpt lat="45.7128187" lon="9.8915646"><ele>333.6</ele><time>2026-04-12T09:01:31.976Z</time></trkpt><trkpt lat="45.7128066" lon="9.8917482"><ele>335.0</ele><time>2026-04-12T09:01:33.964Z</time></trkpt><trkpt lat="45.7127909" lon="9.8919007"><ele>337.5</ele><time>2026-04-12T09:01:35.974Z</time></trkpt><trkpt lat="45.7127952" lon="9.8920741"><ele>340.0</ele><time>2026-04-12T09:01:37.984Z</time></trkpt><trkpt lat="45.7127911" lon="9.8922427"><ele>342.5</ele><time>2026-04-12T09:01:39.961Z</time></trkpt><trkpt lat="45.7127846" lon="9.8924166"><ele>345.0</ele><time>2026-04-12T09:01:41.965Z</time></trkpt><trkpt lat="45.7127928" lon="9.892565"><ele>347.0</ele><time>2026-04-12T09:01:43.967Z</time></trkpt><trkpt lat="45.7128146" lon="9.8927179"><ele>349.0</ele><time>2026-04-12T09:01:45.971Z</time></trkpt><trkpt lat="45.7128481" lon="9.8928821"><ele>351.0</ele><time>2026-04-12T09:01:48.04Z</time></trkpt><trkpt lat="45.7128879" lon="9.8930253"><ele>353.0</ele><time>2026-04-12T09:01:49.977Z</time></trkpt><trkpt lat="45.7129045" lon="9.8931728"><ele>355.0</ele><time>2026-04-12T09:01:51.975Z</time></trkpt><trkpt lat="45.7129503" lon="9.8933014"><ele>355.0</ele><time>2026-04-12T09:01:53.968Z</time></trkpt><trkpt lat="45.7130226" lon="9.8932886"><ele>355.0</ele><time>2026-04-12T09:01:57.966Z</time></trkpt><trkpt lat="45.7130574" lon="9.8932084"><ele>355.0</ele><time>2026-04-12T09:01:59.961Z</time></trkpt><trkpt lat="45.7130793" lon="9.8930958"><ele>355.0</ele><time>2026-04-12T09:02:03.046Z</time></trkpt><trkpt lat="45.7131006" lon="9.8930094"><ele>355.0</ele><time>2026-04-12T09:02:05.036Z</time></trkpt><trkpt lat="45.7131288" lon="9.8928788"><ele>355.0</ele><time>2026-04-12T09:02:06.978Z</time></trkpt><trkpt lat="45.7131581" lon="9.8927485"><ele>355.0</ele><time>2026-04-12T09:02:08.971Z</time></trkpt><trkpt lat="45.7131876" lon="9.8926333"><ele>355.0</ele><time>2026-04-12T09:02:10.978Z</time></trkpt><trkpt lat="45.7132459" lon="9.8925468"><ele>355.0</ele><time>2026-04-12T09:02:12.967Z</time></trkpt><trkpt lat="45.713294" lon="9.892466"><ele>355.0</ele><time>2026-04-12T09:02:14.993Z</time></trkpt><trkpt lat="45.7133517" lon="9.8923941"><ele>355.0</ele><time>2026-04-12T09:02:16.968Z</time></trkpt><trkpt lat="45.7134207" lon="9.8923465"><ele>355.0</ele><time>2026-04-12T09:02:18.98Z</time></trkpt><trkpt lat="45.7134814" lon="9.8922935"><ele>353.5</ele><time>2026-04-12T09:02:20.97Z</time></trkpt><trkpt lat="45.7135392" lon="9.8922194"><ele>352.0</ele><time>2026-04-12T09:02:22.973Z</time></trkpt><trkpt lat="45.7135976" lon="9.8921393"><ele>350.5</ele><time>2026-04-12T09:02:24.974Z</time></trkpt><trkpt lat="45.7136467" lon="9.8920312"><ele>349.0</ele><time>2026-04-12T09:02:26.975Z</time></trkpt><trkpt lat="45.7136964" lon="9.8919191"><ele>347.5</ele><time>2026-04-12T09:02:29.041Z</time></trkpt><trkpt lat="45.7137325" lon="9.8918127"><ele>346.0</ele><time>2026-04-12T09:02:30.952Z</time></trkpt><trkpt lat="45.7137622" lon="9.8917208"><ele>346.0</ele><time>2026-04-12T09:02:32.961Z</time></trkpt><trkpt lat="45.7137967" lon="9.8916199"><ele>346.0</ele><time>2026-04-12T09:02:34.947Z</time></trkpt><trkpt lat="45.713829" lon="9.8915285"><ele>346.0</ele><time>2026-04-12T09:02:36.962Z</time></trkpt><trkpt lat="45.7138768" lon="9.89143"><ele>346.0</ele><time>2026-04-12T09:02:38.96Z</time></trkpt><trkpt lat="45.7139444" lon="9.8913475"><ele>346.0</ele><time>2026-04-12T09:02:40.958Z</time></trkpt><trkpt lat="45.7140057" lon="9.8912554"><ele>346.0</ele><time>2026-04-12T09:02:42.938Z</time></trkpt><trkpt lat="45.7140755" lon="9.8911898"><ele>346.0</ele><time>2026-04-12T09:02:44.955Z</time></trkpt><trkpt lat="45.7141396" lon="9.8911526"><ele>346.0</ele><time>2026-04-12T09:02:46.97Z</time></trkpt><trkpt lat="45.7142102" lon="9.8911352"><ele>346.0</ele><time>2026-04-12T09:02:48.96Z</time></trkpt><trkpt lat="45.7142879" lon="9.8910427"><ele>346.0</ele><time>2026-04-12T09:02:51.966Z</time></trkpt><trkpt lat="45.7143548" lon="9.8909439"><ele>346.0</ele><time>2026-04-12T09:02:53.957Z</time></trkpt><trkpt lat="45.7144133" lon="9.8908448"><ele>346.0</ele><time>2026-04-12T09:02:55.966Z</time></trkpt><trkpt lat="45.7144842" lon="9.8907734"><ele>345.7142857142857</ele><time>2026-04-12T09:02:57.955Z</time></trkpt><trkpt lat="45.7145485" lon="9.8907218"><ele>345.42857142857144</ele><time>2026-04-12T09:02:59.956Z</time></trkpt><trkpt lat="45.7146159" lon="9.8906752"><ele>345.14285714285717</ele><time>2026-04-12T09:03:01.958Z</time></trkpt><trkpt lat="45.7146777" lon="9.8906281"><ele>344.8571428571429</ele><time>2026-04-12T09:03:04.036Z</time></trkpt><trkpt lat="45.7147313" lon="9.8905771"><ele>344.57142857142856</ele><time>2026-04-12T09:03:05.956Z</time></trkpt><trkpt lat="45.7147887" lon="9.8905225"><ele>344.28571428571433</ele><time>2026-04-12T09:03:07.966Z</time></trkpt><trkpt lat="45.7148677" lon="9.8904988"><ele>344.0</ele><time>2026-04-12T09:03:09.965Z</time></trkpt><trkpt lat="45.7149441" lon="9.8904661"><ele>344.0</ele><time>2026-04-12T09:03:11.976Z</time></trkpt><trkpt lat="45.7150214" lon="9.8904488"><ele>344.0</ele><time>2026-04-12T09:03:14.034Z</time></trkpt><trkpt lat="45.7151154" lon="9.8904567"><ele>344.0</ele><time>2026-04-12T09:03:15.961Z</time></trkpt><trkpt lat="45.7152249" lon="9.8905411"><ele>344.0</ele><time>2026-04-12T09:03:17.974Z</time></trkpt><trkpt lat="45.7152974" lon="9.8905753"><ele>344.0</ele><time>2026-04-12T09:03:18.986Z</time></trkpt><trkpt lat="45.7153737" lon="9.8906043"><ele>340.4</ele><time>2026-04-12T09:03:19.981Z</time></trkpt><trkpt lat="45.7154571" lon="9.8906086"><ele>336.79999999999995</ele><time>2026-04-12T09:03:20.98Z</time></trkpt><trkpt lat="45.715558" lon="9.8906021"><ele>333.20000000000005</ele><time>2026-04-12T09:03:22.028Z</time></trkpt><trkpt lat="45.7156615" lon="9.8906135"><ele>329.6</ele><time>2026-04-12T09:03:23.026Z</time></trkpt><trkpt lat="45.7157796" lon="9.8906224"><ele>326.0</ele><time>2026-04-12T09:03:24.033Z</time></trkpt><trkpt lat="45.7158952" lon="9.890626"><ele>326.0</ele><time>2026-04-12T09:03:24.96Z</time></trkpt><trkpt lat="45.7160159" lon="9.8906286"><ele>326.0</ele><time>2026-04-12T09:03:25.957Z</time></trkpt><trkpt lat="45.7161309" lon="9.8906291"><ele>326.0</ele><time>2026-04-12T09:03:26.957Z</time></trkpt><trkpt lat="45.7162349" lon="9.8906229"><ele>326.0</ele><time>2026-04-12T09:03:27.955Z</time></trkpt><trkpt lat="45.7163237" lon="9.8906164"><ele>326.0</ele><time>2026-04-12T09:03:28.966Z</time></trkpt><trkpt lat="45.7163933" lon="9.8906214"><ele>324.6666666666667</ele><time>2026-04-12T09:03:29.946Z</time></trkpt><trkpt lat="45.7164572" lon="9.8906359"><ele>323.33333333333337</ele><time>2026-04-12T09:03:30.968Z</time></trkpt><trkpt lat="45.7165149" lon="9.8906728"><ele>322.0</ele><time>2026-04-12T09:03:32.031Z</time></trkpt><trkpt lat="45.7165837" lon="9.8907928"><ele>320.6666666666667</ele><time>2026-04-12T09:03:34.03Z</time></trkpt><trkpt lat="45.7166318" lon="9.8909552"><ele>319.3333333333333</ele><time>2026-04-12T09:03:35.977Z</time></trkpt><trkpt lat="45.7166506" lon="9.8910503"><ele>318.0</ele><time>2026-04-12T09:03:36.983Z</time></trkpt><trkpt lat="45.7166816" lon="9.891131"><ele>318.0</ele><time>2026-04-12T09:03:37.967Z</time></trkpt><trkpt lat="45.7167159" lon="9.8912157"><ele>318.0</ele><time>2026-04-12T09:03:39.062Z</time></trkpt><trkpt lat="45.7167856" lon="9.8913225"><ele>318.0</ele><time>2026-04-12T09:03:40.951Z</time></trkpt><trkpt lat="45.7168934" lon="9.8913588"><ele>318.0</ele><time>2026-04-12T09:03:42.963Z</time></trkpt><trkpt lat="45.7169621" lon="9.8913445"><ele>318.0</ele><time>2026-04-12T09:03:44.04Z</time></trkpt><trkpt lat="45.7170404" lon="9.8913287"><ele>318.0</ele><time>2026-04-12T09:03:44.987Z</time></trkpt><trkpt lat="45.7171135" lon="9.8913237"><ele>314.5</ele><time>2026-04-12T09:03:45.978Z</time></trkpt><trkpt lat="45.717191" lon="9.89133"><ele>311.0</ele><time>2026-04-12T09:03:46.97Z</time></trkpt><trkpt lat="45.7172657" lon="9.8913792"><ele>307.5</ele><time>2026-04-12T09:03:48.051Z</time></trkpt><trkpt lat="45.7173241" lon="9.8914576"><ele>304.0</ele><time>2026-04-12T09:03:49.031Z</time></trkpt><trkpt lat="45.717383" lon="9.891532"><ele>300.5</ele><time>2026-04-12T09:03:50.034Z</time></trkpt><trkpt lat="45.7174303" lon="9.8916139"><ele>297.0</ele><time>2026-04-12T09:03:50.97Z</time></trkpt><trkpt lat="45.7174756" lon="9.8916908"><ele>297.0</ele><time>2026-04-12T09:03:51.978Z</time></trkpt><trkpt lat="45.7175871" lon="9.8917423"><ele>297.0</ele><time>2026-04-12T09:03:53.968Z</time></trkpt><trkpt lat="45.7176776" lon="9.8916912"><ele>297.0</ele><time>2026-04-12T09:03:54.968Z</time></trkpt><trkpt lat="45.7177573" lon="9.8916123"><ele>297.0</ele><time>2026-04-12T09:03:55.981Z</time></trkpt><trkpt lat="45.7178621" lon="9.8915162"><ele>297.0</ele><time>2026-04-12T09:03:57.029Z</time></trkpt><trkpt lat="45.7179484" lon="9.8914267"><ele>296.1666666666667</ele><time>2026-04-12T09:03:57.963Z</time></trkpt><trkpt lat="45.718033" lon="9.8913488"><ele>295.3333333333333</ele><time>2026-04-12T09:03:59.034Z</time></trkpt><trkpt lat="45.7180945" lon="9.8912917"><ele>294.5</ele><time>2026-04-12T09:03:59.973Z</time></trkpt><trkpt lat="45.7181918" lon="9.8912216"><ele>293.66666666666663</ele><time>2026-04-12T09:04:01.973Z</time></trkpt><trkpt lat="45.7182501" lon="9.8911724"><ele>292.8333333333333</ele><time>2026-04-12T09:04:03.978Z</time></trkpt><trkpt lat="45.7182628" lon="9.8910373"><ele>292.0</ele><time>2026-04-12T09:04:06.998Z</time></trkpt><trkpt lat="45.7182381" lon="9.8909095"><ele>291.66666666666663</ele><time>2026-04-12T09:04:09.965Z</time></trkpt><trkpt lat="45.7182339" lon="9.8907857"><ele>291.3333333333333</ele><time>2026-04-12T09:04:11.97Z</time></trkpt><trkpt lat="45.7182365" lon="9.8906547"><ele>291.0</ele><time>2026-04-12T09:04:13.964Z</time></trkpt><trkpt lat="45.7182473" lon="9.8905449"><ele>290.6666666666667</ele><time>2026-04-12T09:04:15.972Z</time></trkpt><trkpt lat="45.7182635" lon="9.8904277"><ele>290.33333333333337</ele><time>2026-04-12T09:04:17.964Z</time></trkpt><trkpt lat="45.7182955" lon="9.8903249"><ele>290.0</ele><time>2026-04-12T09:04:19.967Z</time></trkpt><trkpt lat="45.718358" lon="9.8902302"><ele>290.0</ele><time>2026-04-12T09:04:21.98Z</time></trkpt><trkpt lat="45.7184214" lon="9.890151"><ele>290.0</ele><time>2026-04-12T09:04:23.973Z</time></trkpt><trkpt lat="45.7184756" lon="9.8900681"><ele>290.0</ele><time>2026-04-12T09:04:25.969Z</time></trkpt><trkpt lat="45.7185234" lon="9.889988"><ele>290.0</ele><time>2026-04-12T09:04:28.978Z</time></trkpt><trkpt lat="45.7185907" lon="9.8899096"><ele>290.0</ele><time>2026-04-12T09:04:31.976Z</time></trkpt><trkpt lat="45.7186505" lon="9.8898536"><ele>290.0</ele><time>2026-04-12T09:04:33.967Z</time></trkpt><trkpt lat="45.7187075" lon="9.8897687"><ele>290.33333333333337</ele><time>2026-04-12T09:04:35.976Z</time></trkpt><trkpt lat="45.7187716" lon="9.8897145"><ele>290.6666666666667</ele><time>2026-04-12T09:04:37.976Z</time></trkpt><trkpt lat="45.7188507" lon="9.8897097"><ele>291.0</ele><time>2026-04-12T09:04:39.965Z</time></trkpt><trkpt lat="45.7189196" lon="9.8897183"><ele>291.3333333333333</ele><time>2026-04-12T09:04:41.986Z</time></trkpt><trkpt lat="45.7189814" lon="9.8896891"><ele>291.66666666666663</ele><time>2026-04-12T09:04:43.968Z</time></trkpt><trkpt lat="45.7190421" lon="9.8896003"><ele>292.0</ele><time>2026-04-12T09:04:45.975Z</time></trkpt><trkpt lat="45.7190889" lon="9.8894664"><ele>292.0</ele><time>2026-04-12T09:04:47.952Z</time></trkpt><trkpt lat="45.7191469" lon="9.8893377"><ele>292.0</ele><time>2026-04-12T09:04:49.979Z</time></trkpt><trkpt lat="45.7191908" lon="9.8892142"><ele>292.0</ele><time>2026-04-12T09:04:51.979Z</time></trkpt><trkpt lat="45.7192066" lon="9.8890917"><ele>292.0</ele><time>2026-04-12T09:04:53.974Z</time></trkpt><trkpt lat="45.7191496" lon="9.8889782"><ele>292.0</ele><time>2026-04-12T09:04:55.979Z</time></trkpt><trkpt lat="45.7191008" lon="9.8889207"><ele>292.6</ele><time>2026-04-12T09:04:56.973Z</time></trkpt><trkpt lat="45.7190091" lon="9.8888502"><ele>293.2</ele><time>2026-04-12T09:04:58.973Z</time></trkpt><trkpt lat="45.7189191" lon="9.8887932"><ele>293.8</ele><time>2026-04-12T09:05:00.967Z</time></trkpt><trkpt lat="45.7188247" lon="9.8887405"><ele>294.4</ele><time>2026-04-12T09:05:02.965Z</time></trkpt><trkpt lat="45.7187392" lon="9.8886642"><ele>295.0</ele><time>2026-04-12T09:05:04.971Z</time></trkpt><trkpt lat="45.7186637" lon="9.8885566"><ele>295.0</ele><time>2026-04-12T09:05:06.986Z</time></trkpt><trkpt lat="45.7186121" lon="9.888433"><ele>295.0</ele><time>2026-04-12T09:05:09.036Z</time></trkpt><trkpt lat="45.7185651" lon="9.8883104"><ele>295.0</ele><time>2026-04-12T09:05:10.983Z</time></trkpt><trkpt lat="45.7185192" lon="9.8881921"><ele>295.0</ele><time>2026-04-12T09:05:12.974Z</time></trkpt><trkpt lat="45.7184721" lon="9.8880692"><ele>295.0</ele><time>2026-04-12T09:05:15.032Z</time></trkpt><trkpt lat="45.7184273" lon="9.8879489"><ele>295.0</ele><time>2026-04-12T09:05:16.97Z</time></trkpt><trkpt lat="45.7184084" lon="9.8878145"><ele>295.0</ele><time>2026-04-12T09:05:18.983Z</time></trkpt><trkpt lat="45.7184265" lon="9.887683"><ele>295.0</ele><time>2026-04-12T09:05:20.968Z</time></trkpt><trkpt lat="45.718457" lon="9.8875619"><ele>295.0</ele><time>2026-04-12T09:05:22.972Z</time></trkpt><trkpt lat="45.7185013" lon="9.8874433"><ele>295.0</ele><time>2026-04-12T09:05:25.04Z</time></trkpt><trkpt lat="45.7185382" lon="9.8873186"><ele>295.0</ele><time>2026-04-12T09:05:26.958Z</time></trkpt><trkpt lat="45.7185758" lon="9.8871885"><ele>295.0</ele><time>2026-04-12T09:05:28.971Z</time></trkpt><trkpt lat="45.7185789" lon="9.8870476"><ele>295.0</ele><time>2026-04-12T09:05:30.965Z</time></trkpt><trkpt lat="45.7185625" lon="9.8869159"><ele>295.0</ele><time>2026-04-12T09:05:33.041Z</time></trkpt><trkpt lat="45.7185446" lon="9.8867809"><ele>295.0</ele><time>2026-04-12T09:05:35.032Z</time></trkpt><trkpt lat="45.7185313" lon="9.886632"><ele>297.0</ele><time>2026-04-12T09:05:36.973Z</time></trkpt><trkpt lat="45.7185155" lon="9.8864995"><ele>299.0</ele><time>2026-04-12T09:05:39.028Z</time></trkpt><trkpt lat="45.7184923" lon="9.8863618"><ele>301.0</ele><time>2026-04-12T09:05:40.971Z</time></trkpt><trkpt lat="45.7184726" lon="9.8862284"><ele>303.0</ele><time>2026-04-12T09:05:43.035Z</time></trkpt><trkpt lat="45.7184309" lon="9.886088"><ele>305.0</ele><time>2026-04-12T09:05:45.034Z</time></trkpt><trkpt lat="45.7183882" lon="9.8859521"><ele>305.6</ele><time>2026-04-12T09:05:46.967Z</time></trkpt><trkpt lat="45.7183417" lon="9.8858324"><ele>306.2</ele><time>2026-04-12T09:05:48.981Z</time></trkpt><trkpt lat="45.7182799" lon="9.8857122"><ele>306.8</ele><time>2026-04-12T09:05:50.968Z</time></trkpt><trkpt lat="45.7182234" lon="9.8855935"><ele>307.4</ele><time>2026-04-12T09:05:52.978Z</time></trkpt><trkpt lat="45.7181726" lon="9.885476"><ele>308.0</ele><time>2026-04-12T09:05:54.967Z</time></trkpt><trkpt lat="45.7181178" lon="9.8853573"><ele>308.0</ele><time>2026-04-12T09:05:57.032Z</time></trkpt><trkpt lat="45.7180585" lon="9.8852397"><ele>308.0</ele><time>2026-04-12T09:05:59.034Z</time></trkpt><trkpt lat="45.717994" lon="9.885134"><ele>308.0</ele><time>2026-04-12T09:06:00.962Z</time></trkpt><trkpt lat="45.7178966" lon="9.8850518"><ele>308.0</ele><time>2026-04-12T09:06:02.941Z</time></trkpt><trkpt lat="45.7177638" lon="9.885014"><ele>308.0</ele><time>2026-04-12T09:06:04.938Z</time></trkpt><trkpt lat="45.7176691" lon="9.8849727"><ele>307.5</ele><time>2026-04-12T09:06:06.945Z</time></trkpt><trkpt lat="45.7176111" lon="9.8849324"><ele>307.0</ele><time>2026-04-12T09:06:07.949Z</time></trkpt><trkpt lat="45.717523" lon="9.8848414"><ele>306.5</ele><time>2026-04-12T09:06:09.952Z</time></trkpt><trkpt lat="45.7174796" lon="9.8847417"><ele>306.0</ele><time>2026-04-12T09:06:11.96Z</time></trkpt><trkpt lat="45.7174483" lon="9.8846332"><ele>305.5</ele><time>2026-04-12T09:06:13.942Z</time></trkpt><trkpt lat="45.7174369" lon="9.8845176"><ele>305.0</ele><time>2026-04-12T09:06:15.965Z</time></trkpt><trkpt lat="45.7174499" lon="9.884398"><ele>305.0</ele><time>2026-04-12T09:06:18.021Z</time></trkpt><trkpt lat="45.7174682" lon="9.8843036"><ele>305.0</ele><time>2026-04-12T09:06:19.965Z</time></trkpt><trkpt lat="45.717473" lon="9.8841882"><ele>305.0</ele><time>2026-04-12T09:06:21.964Z</time></trkpt><trkpt lat="45.7174664" lon="9.8840753"><ele>305.0</ele><time>2026-04-12T09:06:23.973Z</time></trkpt><trkpt lat="45.7174551" lon="9.8839621"><ele>305.0</ele><time>2026-04-12T09:06:25.955Z</time></trkpt><trkpt lat="45.7174479" lon="9.883836"><ele>305.0</ele><time>2026-04-12T09:06:27.972Z</time></trkpt><trkpt lat="45.7174382" lon="9.8837122"><ele>306.8</ele><time>2026-04-12T09:06:29.962Z</time></trkpt><trkpt lat="45.7174116" lon="9.8835889"><ele>308.6</ele><time>2026-04-12T09:06:31.969Z</time></trkpt><trkpt lat="45.717364" lon="9.8834616"><ele>310.4</ele><time>2026-04-12T09:06:34.061Z</time></trkpt><trkpt lat="45.7173079" lon="9.8833293"><ele>312.2</ele><time>2026-04-12T09:06:35.974Z</time></trkpt><trkpt lat="45.7172483" lon="9.883207"><ele>314.0</ele><time>2026-04-12T09:06:37.967Z</time></trkpt><trkpt lat="45.7171857" lon="9.8830699"><ele>316.0</ele><time>2026-04-12T09:06:39.968Z</time></trkpt><trkpt lat="45.7171219" lon="9.8829303"><ele>318.0</ele><time>2026-04-12T09:06:41.965Z</time></trkpt><trkpt lat="45.7170731" lon="9.882804"><ele>320.0</ele><time>2026-04-12T09:06:43.971Z</time></trkpt><trkpt lat="45.7170209" lon="9.8826653"><ele>322.0</ele><time>2026-04-12T09:06:45.984Z</time></trkpt><trkpt lat="45.7169873" lon="9.8825318"><ele>324.0</ele><time>2026-04-12T09:06:47.981Z</time></trkpt><trkpt lat="45.7169652" lon="9.8823956"><ele>325.0</ele><time>2026-04-12T09:06:50.035Z</time></trkpt><trkpt lat="45.7169441" lon="9.8822575"><ele>326.0</ele><time>2026-04-12T09:06:51.985Z</time></trkpt><trkpt lat="45.7169197" lon="9.8821221"><ele>327.0</ele><time>2026-04-12T09:06:54.038Z</time></trkpt><trkpt lat="45.7169085" lon="9.8819928"><ele>328.0</ele><time>2026-04-12T09:06:55.971Z</time></trkpt><trkpt lat="45.7168926" lon="9.8818605"><ele>329.0</ele><time>2026-04-12T09:06:57.99Z</time></trkpt><trkpt lat="45.7168795" lon="9.8817266"><ele>326.6666666666667</ele><time>2026-04-12T09:06:59.977Z</time></trkpt><trkpt lat="45.7168654" lon="9.8815954"><ele>324.33333333333337</ele><time>2026-04-12T09:07:01.967Z</time></trkpt><trkpt lat="45.7168538" lon="9.8814781"><ele>322.0</ele><time>2026-04-12T09:07:04.018Z</time></trkpt><trkpt lat="45.7168423" lon="9.8813568"><ele>319.6666666666667</ele><time>2026-04-12T09:07:05.964Z</time></trkpt><trkpt lat="45.7168317" lon="9.8812298"><ele>317.3333333333333</ele><time>2026-04-12T09:07:07.957Z</time></trkpt><trkpt lat="45.716823" lon="9.8810989"><ele>315.0</ele><time>2026-04-12T09:07:09.966Z</time></trkpt><trkpt lat="45.7168253" lon="9.8809614"><ele>315.5</ele><time>2026-04-12T09:07:11.988Z</time></trkpt><trkpt lat="45.7168238" lon="9.880853"><ele>316.0</ele><time>2026-04-12T09:07:13.969Z</time></trkpt><trkpt lat="45.7167968" lon="9.8807351"><ele>316.5</ele><time>2026-04-12T09:07:15.966Z</time></trkpt><trkpt lat="45.7167683" lon="9.880613"><ele>317.0</ele><time>2026-04-12T09:07:17.983Z</time></trkpt><trkpt lat="45.7167384" lon="9.8804834"><ele>317.5</ele><time>2026-04-12T09:07:19.951Z</time></trkpt><trkpt lat="45.7167071" lon="9.880364"><ele>318.0</ele><time>2026-04-12T09:07:21.966Z</time></trkpt><trkpt lat="45.7166881" lon="9.8802332"><ele>318.0</ele><time>2026-04-12T09:07:24.003Z</time></trkpt><trkpt lat="45.7167165" lon="9.8801187"><ele>318.0</ele><time>2026-04-12T09:07:25.965Z</time></trkpt><trkpt lat="45.7167543" lon="9.8800169"><ele>318.0</ele><time>2026-04-12T09:07:27.967Z</time></trkpt><trkpt lat="45.7167904" lon="9.8799136"><ele>318.0</ele><time>2026-04-12T09:07:29.977Z</time></trkpt><trkpt lat="45.7168279" lon="9.8798047"><ele>318.0</ele><time>2026-04-12T09:07:31.984Z</time></trkpt><trkpt lat="45.7168766" lon="9.8797101"><ele>318.0</ele><time>2026-04-12T09:07:34.03Z</time></trkpt><trkpt lat="45.7169217" lon="9.8796219"><ele>320.2857142857143</ele><time>2026-04-12T09:07:35.957Z</time></trkpt><trkpt lat="45.7169733" lon="9.8795291"><ele>322.5714285714286</ele><time>2026-04-12T09:07:37.973Z</time></trkpt><trkpt lat="45.7170101" lon="9.8794394"><ele>324.8571428571429</ele><time>2026-04-12T09:07:39.962Z</time></trkpt><trkpt lat="45.7170488" lon="9.8793489"><ele>327.1428571428571</ele><time>2026-04-12T09:07:42.034Z</time></trkpt><trkpt lat="45.7170845" lon="9.8792596"><ele>329.42857142857144</ele><time>2026-04-12T09:07:44.04Z</time></trkpt><trkpt lat="45.7171136" lon="9.8791762"><ele>331.7142857142857</ele><time>2026-04-12T09:07:45.946Z</time></trkpt><trkpt lat="45.7171385" lon="9.8790832"><ele>334.0</ele><time>2026-04-12T09:07:47.96Z</time></trkpt><trkpt lat="45.7171811" lon="9.8789501"><ele>334.3333333333333</ele><time>2026-04-12T09:07:50.963Z</time></trkpt><trkpt lat="45.7172104" lon="9.8788537"><ele>334.66666666666663</ele><time>2026-04-12T09:07:52.964Z</time></trkpt><trkpt lat="45.7172475" lon="9.8787571"><ele>335.0</ele><time>2026-04-12T09:07:54.96Z</time></trkpt><trkpt lat="45.7172817" lon="9.8786646"><ele>335.3333333333333</ele><time>2026-04-12T09:07:56.959Z</time></trkpt><trkpt lat="45.7173169" lon="9.878575"><ele>335.6666666666667</ele><time>2026-04-12T09:07:58.945Z</time></trkpt><trkpt lat="45.7173708" lon="9.8784591"><ele>336.0</ele><time>2026-04-12T09:08:01.973Z</time></trkpt><trkpt lat="45.7174133" lon="9.8783793"><ele>335.2857142857143</ele><time>2026-04-12T09:08:03.969Z</time></trkpt><trkpt lat="45.7174524" lon="9.878304"><ele>334.57142857142856</ele><time>2026-04-12T09:08:05.968Z</time></trkpt><trkpt lat="45.7174971" lon="9.8782162"><ele>333.8571428571429</ele><time>2026-04-12T09:08:08.039Z</time></trkpt><trkpt lat="45.7175415" lon="9.8781372"><ele>333.1428571428571</ele><time>2026-04-12T09:08:09.958Z</time></trkpt><trkpt lat="45.7175899" lon="9.8780653"><ele>332.42857142857144</ele><time>2026-04-12T09:08:11.971Z</time></trkpt><trkpt lat="45.7176339" lon="9.8779902"><ele>331.7142857142857</ele><time>2026-04-12T09:08:13.961Z</time></trkpt><trkpt lat="45.71768" lon="9.8779188"><ele>331.0</ele><time>2026-04-12T09:08:15.985Z</time></trkpt><trkpt lat="45.7177241" lon="9.8778368"><ele>334.8333333333333</ele><time>2026-04-12T09:08:17.961Z</time></trkpt><trkpt lat="45.7177697" lon="9.8777743"><ele>338.66666666666663</ele><time>2026-04-12T09:08:19.973Z</time></trkpt><trkpt lat="45.7178505" lon="9.8777209"><ele>342.5</ele><time>2026-04-12T09:08:22.967Z</time></trkpt><trkpt lat="45.7179409" lon="9.8777048"><ele>346.3333333333333</ele><time>2026-04-12T09:08:25.96Z</time></trkpt><trkpt lat="45.7180177" lon="9.8776879"><ele>350.1666666666667</ele><time>2026-04-12T09:08:28.963Z</time></trkpt><trkpt lat="45.718083" lon="9.8776751"><ele>354.0</ele><time>2026-04-12T09:08:31.954Z</time></trkpt><trkpt lat="45.7181648" lon="9.877695"><ele>354.0</ele><time>2026-04-12T09:08:35.029Z</time></trkpt><trkpt lat="45.718243" lon="9.8777105"><ele>354.0</ele><time>2026-04-12T09:08:37.964Z</time></trkpt><trkpt lat="45.7183234" lon="9.8777258"><ele>354.0</ele><time>2026-04-12T09:08:40.968Z</time></trkpt><trkpt lat="45.7184087" lon="9.8777459"><ele>354.0</ele><time>2026-04-12T09:08:43.965Z</time></trkpt><trkpt lat="45.7184883" lon="9.8777299"><ele>354.0</ele><time>2026-04-12T09:08:46.954Z</time></trkpt><trkpt lat="45.7185568" lon="9.8776844"><ele>354.0</ele><time>2026-04-12T09:08:49.969Z</time></trkpt><trkpt lat="45.7186204" lon="9.8776854"><ele>354.0</ele><time>2026-04-12T09:08:53.951Z</time></trkpt><trkpt lat="45.7186013" lon="9.8777756"><ele>354.0</ele><time>2026-04-12T09:08:56.942Z</time></trkpt><trkpt lat="45.7185724" lon="9.877861"><ele>354.0</ele><time>2026-04-12T09:09:00.044Z</time></trkpt><trkpt lat="45.7185462" lon="9.8779503"><ele>354.0</ele><time>2026-04-12T09:09:02.957Z</time></trkpt><trkpt lat="45.7185273" lon="9.8780475"><ele>354.0</ele><time>2026-04-12T09:09:05.98Z</time></trkpt><trkpt lat="45.7185117" lon="9.8781466"><ele>354.0</ele><time>2026-04-12T09:09:09.032Z</time></trkpt><trkpt lat="45.7184942" lon="9.8782607"><ele>354.0</ele><time>2026-04-12T09:09:11.963Z</time></trkpt><trkpt lat="45.7184778" lon="9.8783841"><ele>354.5714285714286</ele><time>2026-04-12T09:09:15.022Z</time></trkpt><trkpt lat="45.7184644" lon="9.8785035"><ele>355.1428571428571</ele><time>2026-04-12T09:09:17.961Z</time></trkpt><trkpt lat="45.7184471" lon="9.8786055"><ele>355.7142857142857</ele><time>2026-04-12T09:09:20.958Z</time></trkpt><trkpt lat="45.7183823" lon="9.8786314"><ele>356.28571428571433</ele><time>2026-04-12T09:09:51.962Z</time></trkpt><trkpt lat="45.7183586" lon="9.8787278"><ele>356.8571428571429</ele><time>2026-04-12T09:09:56.954Z</time></trkpt><trkpt lat="45.7183784" lon="9.8788225"><ele>357.42857142857144</ele><time>2026-04-12T09:10:00.949Z</time></trkpt><trkpt lat="45.7183112" lon="9.8787971"><ele>358.0</ele><time>2026-04-12T09:10:53.956Z</time></trkpt><trkpt lat="45.7182892" lon="9.8787101"><ele>358.0</ele><time>2026-04-12T09:10:56.957Z</time></trkpt><trkpt lat="45.7182352" lon="9.8786606"><ele>358.0</ele><time>2026-04-12T09:11:01.953Z</time></trkpt><trkpt lat="45.7183287" lon="9.8787895"><ele>358.0</ele><time>2026-04-12T09:11:07.968Z</time></trkpt><trkpt lat="45.718367" lon="9.8786519"><ele>358.0</ele><time>2026-04-12T09:12:00.947Z</time></trkpt><trkpt lat="45.7184035" lon="9.8785741"><ele>358.0</ele><time>2026-04-12T09:12:01.956Z</time></trkpt><trkpt lat="45.7183774" lon="9.8786636"><ele>358.0</ele><time>2026-04-12T09:12:03.939Z</time></trkpt></trkseg></trk></gpx>